<?xml version='1.0' encoding='UTF-8'?>
<gpx version="1.1" creator="https://www.komoot.de" xmlns="http://www.topografix.com/GPX/1/1" xmlns:xsi="http://www.w3.org/2001/XMLSchema-instance" xsi:schemaLocation="http://www.topografix.com/GPX/1/1 http://www.topografix.com/GPX/1/1/gpx.xsd">
  <metadata>
    <name>62_950SaalMoehlin</name>
    <author>
      <link href="https://www.komoot.de">
        <text>komoot</text>
        <type>text/html</type>
      </link>
    </author>
  </metadata>
  <trk>
    <name>62_950SaalMoehlin</name>
    <trkseg>
      <trkpt lat="47.541161" lon="7.870998">
        <ele>340.539827</ele>
        <time>2021-11-16T23:28:29.032Z</time>
      </trkpt>
      <trkpt lat="47.541410" lon="7.870791">
        <ele>340.539827</ele>
        <time>2021-11-16T23:28:33.806Z</time>
      </trkpt>
      <trkpt lat="47.541576" lon="7.870664">
        <ele>340.539827</ele>
        <time>2021-11-16T23:28:37.930Z</time>
      </trkpt>
      <trkpt lat="47.541796" lon="7.871042">
        <ele>340.539827</ele>
        <time>2021-11-16T23:28:45.025Z</time>
      </trkpt>
      <trkpt lat="47.541953" lon="7.871286">
        <ele>341.004683</ele>
        <time>2021-11-16T23:28:49.866Z</time>
      </trkpt>
      <trkpt lat="47.542039" lon="7.871556">
        <ele>341.685995</ele>
        <time>2021-11-16T23:28:54.229Z</time>
      </trkpt>
      <trkpt lat="47.542067" lon="7.871664">
        <ele>341.950013</ele>
        <time>2021-11-16T23:28:55.905Z</time>
      </trkpt>
      <trkpt lat="47.542091" lon="7.871721">
        <ele>342.103322</ele>
        <time>2021-11-16T23:28:56.518Z</time>
      </trkpt>
      <trkpt lat="47.542218" lon="7.871866">
        <ele>342.645382</ele>
        <time>2021-11-16T23:29:01.599Z</time>
      </trkpt>
      <trkpt lat="47.542394" lon="7.872341">
        <ele>343.881928</ele>
        <time>2021-11-16T23:29:11.668Z</time>
      </trkpt>
      <trkpt lat="47.542436" lon="7.872494">
        <ele>344.258851</ele>
        <time>2021-11-16T23:29:15.070Z</time>
      </trkpt>
      <trkpt lat="47.542537" lon="7.872430">
        <ele>344.630221</ele>
        <time>2021-11-16T23:29:17.182Z</time>
      </trkpt>
      <trkpt lat="47.542567" lon="7.872414">
        <ele>344.738012</ele>
        <time>2021-11-16T23:29:18.551Z</time>
      </trkpt>
      <trkpt lat="47.542714" lon="7.872334">
        <ele>345.267439</ele>
        <time>2021-11-16T23:29:24.139Z</time>
      </trkpt>
      <trkpt lat="47.542814" lon="7.872280">
        <ele>345.627262</ele>
        <time>2021-11-16T23:29:27.153Z</time>
      </trkpt>
      <trkpt lat="47.542919" lon="7.872226">
        <ele>346.003010</ele>
        <time>2021-11-16T23:29:30.959Z</time>
      </trkpt>
      <trkpt lat="47.543013" lon="7.872182">
        <ele>346.336276</ele>
        <time>2021-11-16T23:29:34.488Z</time>
      </trkpt>
      <trkpt lat="47.543233" lon="7.872082">
        <ele>347.521107</ele>
        <time>2021-11-16T23:29:41.720Z</time>
      </trkpt>
      <trkpt lat="47.543251" lon="7.872152">
        <ele>347.832877</ele>
        <time>2021-11-16T23:29:45.082Z</time>
      </trkpt>
      <trkpt lat="47.543332" lon="7.872237">
        <ele>348.444913</ele>
        <time>2021-11-16T23:29:48.409Z</time>
      </trkpt>
      <trkpt lat="47.544390" lon="7.872423">
        <ele>355.014080</ele>
        <time>2021-11-16T23:30:30.134Z</time>
      </trkpt>
      <trkpt lat="47.544883" lon="7.872555">
        <ele>358.139750</ele>
        <time>2021-11-16T23:30:52.543Z</time>
      </trkpt>
      <trkpt lat="47.545131" lon="7.872664">
        <ele>359.883795</ele>
        <time>2021-11-16T23:31:03.547Z</time>
      </trkpt>
      <trkpt lat="47.545375" lon="7.872836">
        <ele>361.705573</ele>
        <time>2021-11-16T23:31:14.488Z</time>
      </trkpt>
      <trkpt lat="47.545478" lon="7.872968">
        <ele>362.623770</ele>
        <time>2021-11-16T23:31:21.296Z</time>
      </trkpt>
      <trkpt lat="47.545515" lon="7.873015">
        <ele>362.952368</ele>
        <time>2021-11-16T23:31:23.252Z</time>
      </trkpt>
      <trkpt lat="47.545746" lon="7.873302">
        <ele>364.984948</ele>
        <time>2021-11-16T23:31:36.452Z</time>
      </trkpt>
      <trkpt lat="47.545934" lon="7.873549">
        <ele>366.679069</ele>
        <time>2021-11-16T23:31:46.552Z</time>
      </trkpt>
      <trkpt lat="47.546077" lon="7.873763">
        <ele>368.049447</ele>
        <time>2021-11-16T23:31:55.748Z</time>
      </trkpt>
      <trkpt lat="47.546135" lon="7.873859">
        <ele>368.635767</ele>
        <time>2021-11-16T23:31:58.987Z</time>
      </trkpt>
      <trkpt lat="47.546309" lon="7.874154">
        <ele>370.207450</ele>
        <time>2021-11-16T23:32:10.102Z</time>
      </trkpt>
      <trkpt lat="47.547126" lon="7.875801">
        <ele>376.133029</ele>
        <time>2021-11-16T23:32:55.863Z</time>
      </trkpt>
      <trkpt lat="47.547574" lon="7.876801">
        <ele>377.490824</ele>
        <time>2021-11-16T23:33:14.859Z</time>
      </trkpt>
      <trkpt lat="47.547992" lon="7.877974">
        <ele>377.357152</ele>
        <time>2021-11-16T23:33:27.660Z</time>
      </trkpt>
      <trkpt lat="47.548234" lon="7.878638">
        <ele>376.964916</ele>
        <time>2021-11-16T23:33:32.972Z</time>
      </trkpt>
      <trkpt lat="47.548422" lon="7.878959">
        <ele>375.834694</ele>
        <time>2021-11-16T23:33:35.815Z</time>
      </trkpt>
      <trkpt lat="47.548718" lon="7.879258">
        <ele>374.423176</ele>
        <time>2021-11-16T23:33:39.353Z</time>
      </trkpt>
      <trkpt lat="47.549140" lon="7.879391">
        <ele>372.723292</ele>
        <time>2021-11-16T23:33:43.540Z</time>
      </trkpt>
      <trkpt lat="47.549318" lon="7.879398">
        <ele>372.021724</ele>
        <time>2021-11-16T23:33:45.167Z</time>
      </trkpt>
      <trkpt lat="47.549327" lon="7.879547">
        <ele>371.623901</ele>
        <time>2021-11-16T23:33:46.153Z</time>
      </trkpt>
      <trkpt lat="47.549726" lon="7.880786">
        <ele>368.082659</ele>
        <time>2021-11-16T23:33:55.087Z</time>
      </trkpt>
      <trkpt lat="47.549927" lon="7.881490">
        <ele>366.149522</ele>
        <time>2021-11-16T23:34:00.119Z</time>
      </trkpt>
      <trkpt lat="47.550234" lon="7.883221">
        <ele>361.463096</ele>
        <time>2021-11-16T23:34:12.520Z</time>
      </trkpt>
      <trkpt lat="47.550332" lon="7.884727">
        <ele>357.304503</ele>
        <time>2021-11-16T23:34:22.365Z</time>
      </trkpt>
      <trkpt lat="47.550391" lon="7.885109">
        <ele>356.227398</ele>
        <time>2021-11-16T23:34:24.897Z</time>
      </trkpt>
      <trkpt lat="47.550548" lon="7.885799">
        <ele>353.548945</ele>
        <time>2021-11-16T23:34:29.502Z</time>
      </trkpt>
      <trkpt lat="47.550677" lon="7.886476">
        <ele>350.932471</ele>
        <time>2021-11-16T23:34:33.932Z</time>
      </trkpt>
      <trkpt lat="47.550758" lon="7.887295">
        <ele>347.853738</ele>
        <time>2021-11-16T23:34:39.074Z</time>
      </trkpt>
      <trkpt lat="47.550789" lon="7.887816">
        <ele>345.864343</ele>
        <time>2021-11-16T23:34:42.306Z</time>
      </trkpt>
      <trkpt lat="47.550831" lon="7.888611">
        <ele>342.493148</ele>
        <time>2021-11-16T23:34:47.262Z</time>
      </trkpt>
      <trkpt lat="47.550833" lon="7.889069">
        <ele>340.556883</ele>
        <time>2021-11-16T23:34:50.072Z</time>
      </trkpt>
      <trkpt lat="47.550915" lon="7.890600">
        <ele>334.292049</ele>
        <time>2021-11-16T23:34:59.465Z</time>
      </trkpt>
      <trkpt lat="47.550904" lon="7.891725">
        <ele>330.739073</ele>
        <time>2021-11-16T23:35:06.468Z</time>
      </trkpt>
      <trkpt lat="47.550892" lon="7.893176">
        <ele>326.430329</ele>
        <time>2021-11-16T23:35:16.081Z</time>
      </trkpt>
      <trkpt lat="47.550908" lon="7.894308">
        <ele>325.346191</ele>
        <time>2021-11-16T23:35:25.286Z</time>
      </trkpt>
      <trkpt lat="47.550878" lon="7.895158">
        <ele>324.531196</ele>
        <time>2021-11-16T23:35:32.471Z</time>
      </trkpt>
      <trkpt lat="47.550838" lon="7.895509">
        <ele>324.190353</ele>
        <time>2021-11-16T23:35:35.635Z</time>
      </trkpt>
      <trkpt lat="47.550660" lon="7.896255">
        <ele>323.068146</ele>
        <time>2021-11-16T23:35:42.123Z</time>
      </trkpt>
      <trkpt lat="47.550639" lon="7.896345">
        <ele>322.918130</ele>
        <time>2021-11-16T23:35:43.310Z</time>
      </trkpt>
      <trkpt lat="47.550648" lon="7.896481">
        <ele>322.702854</ele>
        <time>2021-11-16T23:35:44.266Z</time>
      </trkpt>
      <trkpt lat="47.550819" lon="7.898109">
        <ele>320.107302</ele>
        <time>2021-11-16T23:35:56.013Z</time>
      </trkpt>
      <trkpt lat="47.550801" lon="7.900244">
        <ele>314.281088</ele>
        <time>2021-11-16T23:36:09.851Z</time>
      </trkpt>
      <trkpt lat="47.550769" lon="7.901362">
        <ele>311.361367</ele>
        <time>2021-11-16T23:36:17.122Z</time>
      </trkpt>
      <trkpt lat="47.550757" lon="7.901591">
        <ele>310.861679</ele>
        <time>2021-11-16T23:36:19.259Z</time>
      </trkpt>
      <trkpt lat="47.550688" lon="7.902451">
        <ele>308.977579</ele>
        <time>2021-11-16T23:36:27.693Z</time>
      </trkpt>
      <trkpt lat="47.550498" lon="7.903445">
        <ele>306.730082</ele>
        <time>2021-11-16T23:36:38.109Z</time>
      </trkpt>
      <trkpt lat="47.550302" lon="7.904164">
        <ele>305.981620</ele>
        <time>2021-11-16T23:36:46.457Z</time>
      </trkpt>
      <trkpt lat="47.550025" lon="7.904774">
        <ele>305.471704</ele>
        <time>2021-11-16T23:36:54.941Z</time>
      </trkpt>
      <trkpt lat="47.549868" lon="7.905010">
        <ele>305.241879</ele>
        <time>2021-11-16T23:36:58.946Z</time>
      </trkpt>
      <trkpt lat="47.549867" lon="7.905155">
        <ele>305.141306</ele>
        <time>2021-11-16T23:37:00.676Z</time>
      </trkpt>
      <trkpt lat="47.549793" lon="7.905202">
        <ele>305.058572</ele>
        <time>2021-11-16T23:37:02.206Z</time>
      </trkpt>
      <trkpt lat="47.549674" lon="7.905336">
        <ele>304.904979</ele>
        <time>2021-11-16T23:37:04.999Z</time>
      </trkpt>
      <trkpt lat="47.549519" lon="7.906378">
        <ele>304.880447</ele>
        <time>2021-11-16T23:37:19.337Z</time>
      </trkpt>
      <trkpt lat="47.549039" lon="7.907742">
        <ele>305.686228</ele>
        <time>2021-11-16T23:37:43.643Z</time>
      </trkpt>
      <trkpt lat="47.548638" lon="7.908599">
        <ele>306.352057</ele>
        <time>2021-11-16T23:38:02.785Z</time>
      </trkpt>
      <trkpt lat="47.548279" lon="7.909060">
        <ele>306.887778</ele>
        <time>2021-11-16T23:38:15.017Z</time>
      </trkpt>
      <trkpt lat="47.548222" lon="7.909154">
        <ele>306.983956</ele>
        <time>2021-11-16T23:38:17.561Z</time>
      </trkpt>
      <trkpt lat="47.547859" lon="7.909845">
        <ele>307.650414</ele>
        <time>2021-11-16T23:38:31.436Z</time>
      </trkpt>
      <trkpt lat="47.547648" lon="7.910267">
        <ele>308.074836</ele>
        <time>2021-11-16T23:38:39.516Z</time>
      </trkpt>
      <trkpt lat="47.547348" lon="7.911011">
        <ele>309.039383</ele>
        <time>2021-11-16T23:38:49.035Z</time>
      </trkpt>
      <trkpt lat="47.546526" lon="7.912513">
        <ele>312.184586</ele>
        <time>2021-11-16T23:39:16.043Z</time>
      </trkpt>
      <trkpt lat="47.546113" lon="7.913536">
        <ele>319.263884</ele>
        <time>2021-11-16T23:39:52.132Z</time>
      </trkpt>
      <trkpt lat="47.546064" lon="7.913662">
        <ele>320.127502</ele>
        <time>2021-11-16T23:40:00.975Z</time>
      </trkpt>
      <trkpt lat="47.545846" lon="7.913439">
        <ele>322.458386</ele>
        <time>2021-11-16T23:40:14.916Z</time>
      </trkpt>
      <trkpt lat="47.545803" lon="7.913417">
        <ele>322.858648</ele>
        <time>2021-11-16T23:40:19.776Z</time>
      </trkpt>
      <trkpt lat="47.545760" lon="7.913396">
        <ele>323.257010</ele>
        <time>2021-11-16T23:40:24.911Z</time>
      </trkpt>
      <trkpt lat="47.545512" lon="7.913459">
        <ele>325.470886</ele>
        <time>2021-11-16T23:40:38.550Z</time>
      </trkpt>
      <trkpt lat="47.545283" lon="7.913975">
        <ele>328.722038</ele>
        <time>2021-11-16T23:41:09.091Z</time>
      </trkpt>
      <trkpt lat="47.544842" lon="7.914607">
        <ele>333.164209</ele>
        <time>2021-11-16T23:41:48.991Z</time>
      </trkpt>
      <trkpt lat="47.544667" lon="7.914777">
        <ele>334.679272</ele>
        <time>2021-11-16T23:42:05.828Z</time>
      </trkpt>
      <trkpt lat="47.544535" lon="7.914938">
        <ele>335.917150</ele>
        <time>2021-11-16T23:42:10.118Z</time>
      </trkpt>
      <trkpt lat="47.544436" lon="7.915136">
        <ele>337.121319</ele>
        <time>2021-11-16T23:42:16.011Z</time>
      </trkpt>
      <trkpt lat="47.544381" lon="7.915381">
        <ele>338.383114</ele>
        <time>2021-11-16T23:42:18.583Z</time>
      </trkpt>
      <trkpt lat="47.544170" lon="7.916929">
        <ele>337.780287</ele>
        <time>2021-11-16T23:42:35.576Z</time>
      </trkpt>
      <trkpt lat="47.544062" lon="7.917335">
        <ele>337.092346</ele>
        <time>2021-11-16T23:42:39.601Z</time>
      </trkpt>
      <trkpt lat="47.544023" lon="7.917429">
        <ele>336.918407</ele>
        <time>2021-11-16T23:42:40.623Z</time>
      </trkpt>
      <trkpt lat="47.543882" lon="7.917804">
        <ele>336.241714</ele>
        <time>2021-11-16T23:42:44.723Z</time>
      </trkpt>
      <trkpt lat="47.543788" lon="7.917949">
        <ele>335.924786</ele>
        <time>2021-11-16T23:42:46.677Z</time>
      </trkpt>
      <trkpt lat="47.543490" lon="7.918167">
        <ele>336.258053</ele>
        <time>2021-11-16T23:42:51.629Z</time>
      </trkpt>
      <trkpt lat="47.543011" lon="7.918178">
        <ele>337.834452</ele>
        <time>2021-11-16T23:43:02.349Z</time>
      </trkpt>
      <trkpt lat="47.542951" lon="7.918203">
        <ele>338.039551</ele>
        <time>2021-11-16T23:43:05.025Z</time>
      </trkpt>
      <trkpt lat="47.542901" lon="7.918253">
        <ele>338.238060</ele>
        <time>2021-11-16T23:43:06.567Z</time>
      </trkpt>
      <trkpt lat="47.542847" lon="7.918520">
        <ele>338.857195</ele>
        <time>2021-11-16T23:43:13.186Z</time>
      </trkpt>
      <trkpt lat="47.542897" lon="7.919138">
        <ele>340.239782</ele>
        <time>2021-11-16T23:43:33.046Z</time>
      </trkpt>
      <trkpt lat="47.542830" lon="7.919388">
        <ele>340.837272</ele>
        <time>2021-11-16T23:43:42.456Z</time>
      </trkpt>
      <trkpt lat="47.542762" lon="7.919488">
        <ele>341.152568</ele>
        <time>2021-11-16T23:43:46.735Z</time>
      </trkpt>
      <trkpt lat="47.542663" lon="7.919567">
        <ele>341.522597</ele>
        <time>2021-11-16T23:43:59.590Z</time>
      </trkpt>
      <trkpt lat="47.542445" lon="7.919627">
        <ele>342.857205</ele>
        <time>2021-11-16T23:44:23.797Z</time>
      </trkpt>
      <trkpt lat="47.541893" lon="7.920117">
        <ele>346.743202</ele>
        <time>2021-11-16T23:45:32.675Z</time>
      </trkpt>
      <trkpt lat="47.541270" lon="7.921054">
        <ele>352.104444</ele>
        <time>2021-11-16T23:47:04.368Z</time>
      </trkpt>
      <trkpt lat="47.540576" lon="7.921805">
        <ele>354.749296</ele>
        <time>2021-11-16T23:48:22.146Z</time>
      </trkpt>
      <trkpt lat="47.540468" lon="7.922009">
        <ele>355.257782</ele>
        <time>2021-11-16T23:48:37.719Z</time>
      </trkpt>
      <trkpt lat="47.540426" lon="7.922257">
        <ele>355.759275</ele>
        <time>2021-11-16T23:48:52.749Z</time>
      </trkpt>
      <trkpt lat="47.540276" lon="7.922517">
        <ele>356.430089</ele>
        <time>2021-11-16T23:49:13.013Z</time>
      </trkpt>
      <trkpt lat="47.539357" lon="7.923066">
        <ele>360.211399</ele>
        <time>2021-11-16T23:50:41.788Z</time>
      </trkpt>
      <trkpt lat="47.538673" lon="7.923346">
        <ele>363.371336</ele>
        <time>2021-11-16T23:51:50.730Z</time>
      </trkpt>
      <trkpt lat="47.538632" lon="7.923379">
        <ele>363.579115</ele>
        <time>2021-11-16T23:51:56.142Z</time>
      </trkpt>
      <trkpt lat="47.538225" lon="7.923716">
        <ele>365.651327</ele>
        <time>2021-11-16T23:52:46.530Z</time>
      </trkpt>
      <trkpt lat="47.537704" lon="7.924286">
        <ele>368.161268</ele>
        <time>2021-11-16T23:53:52.864Z</time>
      </trkpt>
      <trkpt lat="47.537368" lon="7.924418">
        <ele>369.508333</ele>
        <time>2021-11-16T23:54:26.813Z</time>
      </trkpt>
      <trkpt lat="47.537009" lon="7.924729">
        <ele>371.119966</ele>
        <time>2021-11-16T23:55:05.361Z</time>
      </trkpt>
      <trkpt lat="47.536706" lon="7.925193">
        <ele>372.516407</ele>
        <time>2021-11-16T23:55:17.047Z</time>
      </trkpt>
      <trkpt lat="47.536480" lon="7.925533">
        <ele>372.063632</ele>
        <time>2021-11-16T23:55:23.569Z</time>
      </trkpt>
      <trkpt lat="47.535703" lon="7.925981">
        <ele>370.891667</ele>
        <time>2021-11-16T23:55:36.543Z</time>
      </trkpt>
      <trkpt lat="47.535496" lon="7.926292">
        <ele>370.477234</ele>
        <time>2021-11-16T23:55:40.669Z</time>
      </trkpt>
      <trkpt lat="47.535366" lon="7.926580">
        <ele>370.148476</ele>
        <time>2021-11-16T23:55:44.065Z</time>
      </trkpt>
      <trkpt lat="47.535237" lon="7.926835">
        <ele>370.078133</ele>
        <time>2021-11-16T23:55:47.703Z</time>
      </trkpt>
      <trkpt lat="47.534394" lon="7.928043">
        <ele>370.168359</ele>
        <time>2021-11-16T23:56:10.932Z</time>
      </trkpt>
      <trkpt lat="47.534319" lon="7.928138">
        <ele>370.175950</ele>
        <time>2021-11-16T23:56:13.343Z</time>
      </trkpt>
      <trkpt lat="47.534250" lon="7.928183">
        <ele>370.181749</ele>
        <time>2021-11-16T23:56:15.501Z</time>
      </trkpt>
      <trkpt lat="47.534226" lon="7.928203">
        <ele>370.183867</ele>
        <time>2021-11-16T23:56:16.422Z</time>
      </trkpt>
      <trkpt lat="47.534168" lon="7.928273">
        <ele>370.189622</ele>
        <time>2021-11-16T23:56:18.956Z</time>
      </trkpt>
      <trkpt lat="47.533454" lon="7.928933">
        <ele>371.303909</ele>
        <time>2021-11-16T23:56:43.073Z</time>
      </trkpt>
      <trkpt lat="47.533316" lon="7.929060">
        <ele>371.579190</ele>
        <time>2021-11-16T23:56:46.245Z</time>
      </trkpt>
      <trkpt lat="47.532796" lon="7.929524">
        <ele>372.607797</ele>
        <time>2021-11-16T23:56:59.114Z</time>
      </trkpt>
      <trkpt lat="47.532584" lon="7.929704">
        <ele>373.021837</ele>
        <time>2021-11-16T23:57:06.084Z</time>
      </trkpt>
      <trkpt lat="47.532610" lon="7.929877">
        <ele>373.224590</ele>
        <time>2021-11-16T23:57:07.332Z</time>
      </trkpt>
      <trkpt lat="47.532726" lon="7.930299">
        <ele>373.272949</ele>
        <time>2021-11-16T23:57:14.659Z</time>
      </trkpt>
      <trkpt lat="47.532726" lon="7.930392">
        <ele>373.277462</ele>
        <time>2021-11-16T23:57:15.255Z</time>
      </trkpt>
      <trkpt lat="47.532599" lon="7.930581">
        <ele>373.290403</ele>
        <time>2021-11-16T23:57:20.354Z</time>
      </trkpt>
      <trkpt lat="47.532261" lon="7.931393">
        <ele>373.336698</ele>
        <time>2021-11-16T23:57:28.531Z</time>
      </trkpt>
      <trkpt lat="47.532237" lon="7.931571">
        <ele>373.345507</ele>
        <time>2021-11-16T23:57:31.465Z</time>
      </trkpt>
      <trkpt lat="47.532170" lon="7.931998">
        <ele>373.366782</ele>
        <time>2021-11-16T23:57:34.757Z</time>
      </trkpt>
      <trkpt lat="47.531984" lon="7.932581">
        <ele>373.346838</ele>
        <time>2021-11-16T23:57:40.463Z</time>
      </trkpt>
      <trkpt lat="47.531985" lon="7.932692">
        <ele>373.335785</ele>
        <time>2021-11-16T23:57:41.332Z</time>
      </trkpt>
      <trkpt lat="47.531984" lon="7.932824">
        <ele>373.322641</ele>
        <time>2021-11-16T23:57:42.484Z</time>
      </trkpt>
      <trkpt lat="47.531931" lon="7.933297">
        <ele>373.274901</ele>
        <time>2021-11-16T23:57:47.232Z</time>
      </trkpt>
      <trkpt lat="47.531622" lon="7.934065">
        <ele>373.185884</ele>
        <time>2021-11-16T23:57:56.376Z</time>
      </trkpt>
      <trkpt lat="47.531503" lon="7.934360">
        <ele>373.151668</ele>
        <time>2021-11-16T23:57:59.645Z</time>
      </trkpt>
      <trkpt lat="47.531505" lon="7.934420">
        <ele>373.145687</ele>
        <time>2021-11-16T23:58:00.326Z</time>
      </trkpt>
      <trkpt lat="47.531519" lon="7.934461">
        <ele>373.141112</ele>
        <time>2021-11-16T23:58:00.769Z</time>
      </trkpt>
      <trkpt lat="47.531561" lon="7.934562">
        <ele>373.129301</ele>
        <time>2021-11-16T23:58:01.777Z</time>
      </trkpt>
      <trkpt lat="47.531638" lon="7.934766">
        <ele>373.184464</ele>
        <time>2021-11-16T23:58:04.006Z</time>
      </trkpt>
      <trkpt lat="47.531548" lon="7.934833">
        <ele>373.286008</ele>
        <time>2021-11-16T23:58:05.698Z</time>
      </trkpt>
      <trkpt lat="47.531129" lon="7.935142">
        <ele>373.757865</ele>
        <time>2021-11-16T23:58:13.738Z</time>
      </trkpt>
      <trkpt lat="47.530759" lon="7.935410">
        <ele>374.173076</ele>
        <time>2021-11-16T23:58:21.759Z</time>
      </trkpt>
      <trkpt lat="47.530404" lon="7.935710">
        <ele>374.585108</ele>
        <time>2021-11-16T23:58:30.256Z</time>
      </trkpt>
      <trkpt lat="47.530062" lon="7.936223">
        <ele>375.162896</ele>
        <time>2021-11-16T23:58:40.715Z</time>
      </trkpt>
      <trkpt lat="47.530009" lon="7.936303">
        <ele>375.284507</ele>
        <time>2021-11-16T23:58:42.548Z</time>
      </trkpt>
      <trkpt lat="47.529827" lon="7.936525">
        <ele>375.663412</ele>
        <time>2021-11-16T23:58:47.351Z</time>
      </trkpt>
      <trkpt lat="47.529626" lon="7.936730">
        <ele>376.055604</ele>
        <time>2021-11-16T23:58:52.296Z</time>
      </trkpt>
      <trkpt lat="47.529468" lon="7.936891">
        <ele>376.363806</ele>
        <time>2021-11-16T23:58:55.902Z</time>
      </trkpt>
      <trkpt lat="47.529273" lon="7.937297">
        <ele>376.904433</ele>
        <time>2021-11-16T23:59:02.388Z</time>
      </trkpt>
      <trkpt lat="47.529185" lon="7.937741">
        <ele>377.406535</ele>
        <time>2021-11-16T23:59:08.892Z</time>
      </trkpt>
      <trkpt lat="47.529106" lon="7.937991">
        <ele>377.706043</ele>
        <time>2021-11-16T23:59:13.677Z</time>
      </trkpt>
      <trkpt lat="47.528958" lon="7.938333">
        <ele>378.393024</ele>
        <time>2021-11-16T23:59:20.344Z</time>
      </trkpt>
      <trkpt lat="47.528822" lon="7.938652">
        <ele>379.110493</ele>
        <time>2021-11-16T23:59:26.396Z</time>
      </trkpt>
      <trkpt lat="47.528658" lon="7.939111">
        <ele>380.098082</ele>
        <time>2021-11-16T23:59:35.664Z</time>
      </trkpt>
      <trkpt lat="47.528467" lon="7.939644">
        <ele>381.245632</ele>
        <time>2021-11-16T23:59:46.737Z</time>
      </trkpt>
      <trkpt lat="47.528286" lon="7.940193">
        <ele>382.407519</ele>
        <time>2021-11-16T23:59:58.061Z</time>
      </trkpt>
      <trkpt lat="47.528232" lon="7.940349">
        <ele>382.740910</ele>
        <time>2021-11-17T00:00:01.152Z</time>
      </trkpt>
      <trkpt lat="47.528193" lon="7.940482">
        <ele>383.051757</ele>
        <time>2021-11-17T00:00:03.672Z</time>
      </trkpt>
      <trkpt lat="47.528074" lon="7.940914">
        <ele>384.176582</ele>
        <time>2021-11-17T00:00:12.719Z</time>
      </trkpt>
      <trkpt lat="47.527738" lon="7.942144">
        <ele>387.375433</ele>
        <time>2021-11-17T00:00:39.053Z</time>
      </trkpt>
      <trkpt lat="47.527562" lon="7.942799">
        <ele>389.075002</ele>
        <time>2021-11-17T00:00:52.593Z</time>
      </trkpt>
      <trkpt lat="47.527379" lon="7.943358">
        <ele>391.125621</ele>
        <time>2021-11-17T00:01:04.955Z</time>
      </trkpt>
      <trkpt lat="47.527098" lon="7.943983">
        <ele>393.726991</ele>
        <time>2021-11-17T00:01:23.285Z</time>
      </trkpt>
      <trkpt lat="47.526465" lon="7.944912">
        <ele>398.299393</ele>
        <time>2021-11-17T00:01:57.197Z</time>
      </trkpt>
      <trkpt lat="47.526210" lon="7.945167">
        <ele>399.817126</ele>
        <time>2021-11-17T00:02:08.965Z</time>
      </trkpt>
      <trkpt lat="47.526080" lon="7.945282">
        <ele>400.558776</ele>
        <time>2021-11-17T00:02:14.621Z</time>
      </trkpt>
      <trkpt lat="47.525932" lon="7.945400">
        <ele>401.382018</ele>
        <time>2021-11-17T00:02:20.670Z</time>
      </trkpt>
      <trkpt lat="47.525755" lon="7.945530">
        <ele>402.349676</ele>
        <time>2021-11-17T00:02:27.960Z</time>
      </trkpt>
      <trkpt lat="47.525003" lon="7.946035">
        <ele>406.393768</ele>
        <time>2021-11-17T00:02:56.336Z</time>
      </trkpt>
      <trkpt lat="47.524540" lon="7.946546">
        <ele>408.663312</ele>
        <time>2021-11-17T00:03:12.778Z</time>
      </trkpt>
      <trkpt lat="47.524015" lon="7.947474">
        <ele>411.475488</ele>
        <time>2021-11-17T00:03:32.892Z</time>
      </trkpt>
      <trkpt lat="47.522871" lon="7.949842">
        <ele>419.804952</ele>
        <time>2021-11-17T00:04:35.950Z</time>
      </trkpt>
      <trkpt lat="47.522583" lon="7.950558">
        <ele>422.394504</ele>
        <time>2021-11-17T00:04:54.468Z</time>
      </trkpt>
      <trkpt lat="47.522583" lon="7.950558">
        <ele>422.394504</ele>
        <time>2021-11-17T00:04:54.550Z</time>
      </trkpt>
      <trkpt lat="47.522583" lon="7.950558">
        <ele>422.394504</ele>
        <time>2021-11-17T00:04:54.557Z</time>
      </trkpt>
      <trkpt lat="47.522551" lon="7.950637">
        <ele>422.684153</ele>
        <time>2021-11-17T00:04:59.936Z</time>
      </trkpt>
      <trkpt lat="47.522166" lon="7.951598">
        <ele>426.197438</ele>
        <time>2021-11-17T00:05:26.149Z</time>
      </trkpt>
      <trkpt lat="47.521866" lon="7.952202">
        <ele>428.554905</ele>
        <time>2021-11-17T00:05:42.629Z</time>
      </trkpt>
      <trkpt lat="47.520960" lon="7.953410">
        <ele>433.888606</ele>
        <time>2021-11-17T00:06:17.346Z</time>
      </trkpt>
      <trkpt lat="47.520851" lon="7.953518">
        <ele>434.447939</ele>
        <time>2021-11-17T00:06:21.870Z</time>
      </trkpt>
      <trkpt lat="47.520196" lon="7.954168">
        <ele>437.810695</ele>
        <time>2021-11-17T00:06:49.345Z</time>
      </trkpt>
      <trkpt lat="47.519633" lon="7.954614">
        <ele>440.093780</ele>
        <time>2021-11-17T00:07:11.659Z</time>
      </trkpt>
      <trkpt lat="47.519421" lon="7.954816">
        <ele>440.994376</ele>
        <time>2021-11-17T00:07:20.131Z</time>
      </trkpt>
      <trkpt lat="47.518911" lon="7.955491">
        <ele>443.438019</ele>
        <time>2021-11-17T00:07:39.854Z</time>
      </trkpt>
      <trkpt lat="47.518757" lon="7.955695">
        <ele>444.176190</ele>
        <time>2021-11-17T00:07:44.273Z</time>
      </trkpt>
      <trkpt lat="47.518060" lon="7.957077">
        <ele>443.852532</ele>
        <time>2021-11-17T00:08:00.049Z</time>
      </trkpt>
      <trkpt lat="47.517852" lon="7.957582">
        <ele>443.714132</ele>
        <time>2021-11-17T00:08:04.640Z</time>
      </trkpt>
      <trkpt lat="47.517628" lon="7.958176">
        <ele>443.570308</ele>
        <time>2021-11-17T00:08:10.039Z</time>
      </trkpt>
      <trkpt lat="47.517484" lon="7.958473">
        <ele>443.503281</ele>
        <time>2021-11-17T00:08:12.953Z</time>
      </trkpt>
      <trkpt lat="47.517422" lon="7.958602">
        <ele>443.474254</ele>
        <time>2021-11-17T00:08:14.285Z</time>
      </trkpt>
      <trkpt lat="47.516682" lon="7.959949">
        <ele>443.155925</ele>
        <time>2021-11-17T00:08:31.370Z</time>
      </trkpt>
      <trkpt lat="47.516286" lon="7.960801">
        <ele>444.148794</ele>
        <time>2021-11-17T00:08:44.964Z</time>
      </trkpt>
      <trkpt lat="47.515417" lon="7.961931">
        <ele>446.001525</ele>
        <time>2021-11-17T00:09:12.921Z</time>
      </trkpt>
      <trkpt lat="47.515199" lon="7.962207">
        <ele>446.422158</ele>
        <time>2021-11-17T00:09:17.396Z</time>
      </trkpt>
      <trkpt lat="47.515187" lon="7.962222">
        <ele>446.445105</ele>
        <time>2021-11-17T00:09:19.052Z</time>
      </trkpt>
      <trkpt lat="47.514883" lon="7.962671">
        <ele>447.072506</ele>
        <time>2021-11-17T00:09:26.970Z</time>
      </trkpt>
      <trkpt lat="47.514842" lon="7.962822">
        <ele>447.233111</ele>
        <time>2021-11-17T00:09:28.367Z</time>
      </trkpt>
      <trkpt lat="47.514838" lon="7.962840">
        <ele>447.251811</ele>
        <time>2021-11-17T00:09:28.507Z</time>
      </trkpt>
      <trkpt lat="47.514838" lon="7.963162">
        <ele>447.569577</ele>
        <time>2021-11-17T00:09:33.800Z</time>
      </trkpt>
      <trkpt lat="47.514830" lon="7.963311">
        <ele>447.717081</ele>
        <time>2021-11-17T00:09:35.451Z</time>
      </trkpt>
      <trkpt lat="47.514809" lon="7.963450">
        <ele>447.857643</ele>
        <time>2021-11-17T00:09:36.753Z</time>
      </trkpt>
      <trkpt lat="47.514722" lon="7.963775">
        <ele>448.202643</ele>
        <time>2021-11-17T00:09:43.071Z</time>
      </trkpt>
      <trkpt lat="47.514703" lon="7.963873">
        <ele>448.303260</ele>
        <time>2021-11-17T00:09:43.940Z</time>
      </trkpt>
      <trkpt lat="47.514699" lon="7.963986">
        <ele>448.414927</ele>
        <time>2021-11-17T00:09:45.290Z</time>
      </trkpt>
      <trkpt lat="47.514665" lon="7.964238">
        <ele>448.685080</ele>
        <time>2021-11-17T00:09:50.617Z</time>
      </trkpt>
      <trkpt lat="47.514616" lon="7.964407">
        <ele>449.006355</ele>
        <time>2021-11-17T00:09:52.541Z</time>
      </trkpt>
      <trkpt lat="47.514429" lon="7.964841">
        <ele>449.905641</ele>
        <time>2021-11-17T00:09:59.669Z</time>
      </trkpt>
      <trkpt lat="47.514345" lon="7.964927">
        <ele>450.169784</ele>
        <time>2021-11-17T00:10:01.592Z</time>
      </trkpt>
      <trkpt lat="47.514266" lon="7.964968">
        <ele>450.386301</ele>
        <time>2021-11-17T00:10:03.578Z</time>
      </trkpt>
      <trkpt lat="47.514153" lon="7.964997">
        <ele>450.682926</ele>
        <time>2021-11-17T00:10:06.495Z</time>
      </trkpt>
      <trkpt lat="47.513988" lon="7.964994">
        <ele>451.109718</ele>
        <time>2021-11-17T00:10:09.936Z</time>
      </trkpt>
      <trkpt lat="47.513857" lon="7.965014">
        <ele>451.450337</ele>
        <time>2021-11-17T00:10:13.467Z</time>
      </trkpt>
      <trkpt lat="47.513799" lon="7.965061">
        <ele>451.621349</ele>
        <time>2021-11-17T00:10:15.282Z</time>
      </trkpt>
      <trkpt lat="47.513691" lon="7.965208">
        <ele>452.000784</ele>
        <time>2021-11-17T00:10:18.702Z</time>
      </trkpt>
      <trkpt lat="47.513617" lon="7.965308">
        <ele>452.259916</ele>
        <time>2021-11-17T00:10:21.289Z</time>
      </trkpt>
      <trkpt lat="47.513496" lon="7.965435">
        <ele>452.643535</ele>
        <time>2021-11-17T00:10:25.400Z</time>
      </trkpt>
      <trkpt lat="47.513552" lon="7.965694">
        <ele>453.118604</ele>
        <time>2021-11-17T00:10:30.721Z</time>
      </trkpt>
      <trkpt lat="47.513574" lon="7.965795">
        <ele>453.309411</ele>
        <time>2021-11-17T00:10:33.248Z</time>
      </trkpt>
      <trkpt lat="47.513607" lon="7.966067">
        <ele>454.326773</ele>
        <time>2021-11-17T00:10:39.033Z</time>
      </trkpt>
      <trkpt lat="47.513677" lon="7.966493">
        <ele>455.940783</ele>
        <time>2021-11-17T00:10:49.300Z</time>
      </trkpt>
      <trkpt lat="47.513719" lon="7.966609">
        <ele>456.425312</ele>
        <time>2021-11-17T00:10:52.977Z</time>
      </trkpt>
      <trkpt lat="47.513963" lon="7.966968">
        <ele>458.300244</ele>
        <time>2021-11-17T00:11:06.039Z</time>
      </trkpt>
      <trkpt lat="47.514175" lon="7.967361">
        <ele>460.151826</ele>
        <time>2021-11-17T00:11:18.205Z</time>
      </trkpt>
      <trkpt lat="47.514265" lon="7.967596">
        <ele>461.146341</ele>
        <time>2021-11-17T00:11:24.828Z</time>
      </trkpt>
      <trkpt lat="47.514516" lon="7.968208">
        <ele>464.170703</ele>
        <time>2021-11-17T00:11:43.174Z</time>
      </trkpt>
      <trkpt lat="47.514581" lon="7.968390">
        <ele>465.361992</ele>
        <time>2021-11-17T00:11:50.503Z</time>
      </trkpt>
      <trkpt lat="47.514762" lon="7.968835">
        <ele>468.367800</ele>
        <time>2021-11-17T00:12:07.181Z</time>
      </trkpt>
      <trkpt lat="47.515012" lon="7.969232">
        <ele>471.508568</ele>
        <time>2021-11-17T00:12:25.631Z</time>
      </trkpt>
      <trkpt lat="47.515227" lon="7.969425">
        <ele>473.662633</ele>
        <time>2021-11-17T00:12:38.391Z</time>
      </trkpt>
      <trkpt lat="47.515307" lon="7.969493">
        <ele>474.452929</ele>
        <time>2021-11-17T00:12:43.760Z</time>
      </trkpt>
      <trkpt lat="47.515780" lon="7.969896">
        <ele>479.047430</ele>
        <time>2021-11-17T00:13:13.004Z</time>
      </trkpt>
      <trkpt lat="47.516258" lon="7.970425">
        <ele>483.489131</ele>
        <time>2021-11-17T00:13:44.064Z</time>
      </trkpt>
      <trkpt lat="47.516475" lon="7.970786">
        <ele>485.918463</ele>
        <time>2021-11-17T00:14:01.756Z</time>
      </trkpt>
      <trkpt lat="47.516639" lon="7.971156">
        <ele>488.143150</ele>
        <time>2021-11-17T00:14:16.589Z</time>
      </trkpt>
      <trkpt lat="47.516849" lon="7.971986">
        <ele>491.586972</ele>
        <time>2021-11-17T00:14:37.946Z</time>
      </trkpt>
      <trkpt lat="47.517017" lon="7.972944">
        <ele>489.364004</ele>
        <time>2021-11-17T00:14:45.695Z</time>
      </trkpt>
      <trkpt lat="47.517070" lon="7.973149">
        <ele>488.871004</ele>
        <time>2021-11-17T00:14:47.119Z</time>
      </trkpt>
      <trkpt lat="47.517191" lon="7.973538">
        <ele>487.909124</ele>
        <time>2021-11-17T00:14:49.910Z</time>
      </trkpt>
      <trkpt lat="47.517208" lon="7.973572">
        <ele>487.814112</ele>
        <time>2021-11-17T00:14:50.153Z</time>
      </trkpt>
      <trkpt lat="47.517263" lon="7.973683">
        <ele>487.504915</ele>
        <time>2021-11-17T00:14:50.987Z</time>
      </trkpt>
      <trkpt lat="47.517422" lon="7.973976">
        <ele>486.660746</ele>
        <time>2021-11-17T00:14:53.315Z</time>
      </trkpt>
      <trkpt lat="47.517539" lon="7.974133">
        <ele>486.135657</ele>
        <time>2021-11-17T00:14:54.709Z</time>
      </trkpt>
      <trkpt lat="47.517601" lon="7.974216">
        <ele>485.753515</ele>
        <time>2021-11-17T00:14:55.436Z</time>
      </trkpt>
      <trkpt lat="47.517803" lon="7.974479">
        <ele>483.312989</ele>
        <time>2021-11-17T00:14:57.784Z</time>
      </trkpt>
      <trkpt lat="47.517897" lon="7.974601">
        <ele>482.178860</ele>
        <time>2021-11-17T00:14:58.848Z</time>
      </trkpt>
      <trkpt lat="47.518511" lon="7.975376">
        <ele>474.858587</ele>
        <time>2021-11-17T00:15:05.760Z</time>
      </trkpt>
      <trkpt lat="47.518771" lon="7.975833">
        <ele>471.197107</ele>
        <time>2021-11-17T00:15:09.273Z</time>
      </trkpt>
      <trkpt lat="47.518954" lon="7.976318">
        <ele>468.470540</ele>
        <time>2021-11-17T00:15:12.614Z</time>
      </trkpt>
      <trkpt lat="47.519021" lon="7.976610">
        <ele>467.289974</ele>
        <time>2021-11-17T00:15:14.531Z</time>
      </trkpt>
      <trkpt lat="47.519068" lon="7.976937">
        <ele>466.010143</ele>
        <time>2021-11-17T00:15:16.620Z</time>
      </trkpt>
      <trkpt lat="47.519130" lon="7.977741">
        <ele>462.912340</ele>
        <time>2021-11-17T00:15:21.630Z</time>
      </trkpt>
      <trkpt lat="47.519217" lon="7.979377">
        <ele>459.075997</ele>
        <time>2021-11-17T00:15:32.422Z</time>
      </trkpt>
      <trkpt lat="47.519262" lon="7.980038">
        <ele>458.775817</ele>
        <time>2021-11-17T00:15:37.637Z</time>
      </trkpt>
      <trkpt lat="47.518938" lon="7.980093">
        <ele>458.557624</ele>
        <time>2021-11-17T00:16:14.090Z</time>
      </trkpt>
      <trkpt lat="47.518298" lon="7.980206">
        <ele>458.676070</ele>
        <time>2021-11-17T00:17:30.900Z</time>
      </trkpt>
      <trkpt lat="47.517633" lon="7.980418">
        <ele>461.622983</ele>
        <time>2021-11-17T00:18:58.429Z</time>
      </trkpt>
      <trkpt lat="47.517255" lon="7.980642">
        <ele>463.386823</ele>
        <time>2021-11-17T00:19:53.341Z</time>
      </trkpt>
      <trkpt lat="47.516970" lon="7.981153">
        <ele>465.325823</ele>
        <time>2021-11-17T00:20:52.940Z</time>
      </trkpt>
      <trkpt lat="47.516666" lon="7.982302">
        <ele>468.136719</ele>
        <time>2021-11-17T00:22:37.687Z</time>
      </trkpt>
      <trkpt lat="47.516360" lon="7.983035">
        <ele>469.973261</ele>
        <time>2021-11-17T00:23:48.840Z</time>
      </trkpt>
      <trkpt lat="47.516251" lon="7.983296">
        <ele>470.627273</ele>
        <time>2021-11-17T00:24:13.267Z</time>
      </trkpt>
      <trkpt lat="47.516036" lon="7.983707">
        <ele>471.725383</ele>
        <time>2021-11-17T00:24:55.072Z</time>
      </trkpt>
      <trkpt lat="47.515459" lon="7.984619">
        <ele>473.999386</ele>
        <time>2021-11-17T00:26:40.666Z</time>
      </trkpt>
      <trkpt lat="47.515212" lon="7.985092">
        <ele>475.087390</ele>
        <time>2021-11-17T00:27:28.956Z</time>
      </trkpt>
      <trkpt lat="47.515029" lon="7.985591">
        <ele>476.120670</ele>
        <time>2021-11-17T00:28:14.903Z</time>
      </trkpt>
      <trkpt lat="47.514984" lon="7.985795">
        <ele>476.511196</ele>
        <time>2021-11-17T00:28:32.603Z</time>
      </trkpt>
      <trkpt lat="47.514955" lon="7.985985">
        <ele>477.055465</ele>
        <time>2021-11-17T00:28:48.212Z</time>
      </trkpt>
      <trkpt lat="47.514922" lon="7.986199">
        <ele>477.670474</ele>
        <time>2021-11-17T00:29:06.989Z</time>
      </trkpt>
      <trkpt lat="47.514895" lon="7.986454">
        <ele>478.393653</ele>
        <time>2021-11-17T00:29:27.963Z</time>
      </trkpt>
      <trkpt lat="47.514857" lon="7.986612">
        <ele>478.863562</ele>
        <time>2021-11-17T00:29:42.245Z</time>
      </trkpt>
      <trkpt lat="47.514801" lon="7.986869">
        <ele>479.620166</ele>
        <time>2021-11-17T00:30:05.000Z</time>
      </trkpt>
      <trkpt lat="47.514696" lon="7.987074">
        <ele>480.341013</ele>
        <time>2021-11-17T00:30:26.598Z</time>
      </trkpt>
      <trkpt lat="47.514488" lon="7.987298">
        <ele>481.407970</ele>
        <time>2021-11-17T00:30:58.625Z</time>
      </trkpt>
      <trkpt lat="47.514195" lon="7.987607">
        <ele>482.900244</ele>
        <time>2021-11-17T00:31:48.550Z</time>
      </trkpt>
      <trkpt lat="47.514055" lon="7.987689">
        <ele>483.524802</ele>
        <time>2021-11-17T00:32:10.699Z</time>
      </trkpt>
      <trkpt lat="47.513697" lon="7.987670">
        <ele>485.930103</ele>
        <time>2021-11-17T00:32:58.024Z</time>
      </trkpt>
      <trkpt lat="47.513512" lon="7.987549">
        <ele>487.513863</ele>
        <time>2021-11-17T00:33:22.482Z</time>
      </trkpt>
      <trkpt lat="47.513196" lon="7.987138">
        <ele>490.807607</ele>
        <time>2021-11-17T00:34:20.424Z</time>
      </trkpt>
      <trkpt lat="47.513120" lon="7.987065">
        <ele>491.517021</ele>
        <time>2021-11-17T00:34:36.354Z</time>
      </trkpt>
      <trkpt lat="47.513070" lon="7.987017">
        <ele>491.983665</ele>
        <time>2021-11-17T00:34:46.890Z</time>
      </trkpt>
      <trkpt lat="47.512195" lon="7.986702">
        <ele>498.724479</ele>
        <time>2021-11-17T00:36:58.290Z</time>
      </trkpt>
      <trkpt lat="47.511884" lon="7.986687">
        <ele>500.384548</ele>
        <time>2021-11-17T00:37:44.525Z</time>
      </trkpt>
      <trkpt lat="47.511754" lon="7.986681">
        <ele>501.078436</ele>
        <time>2021-11-17T00:38:02.226Z</time>
      </trkpt>
      <trkpt lat="47.511677" lon="7.986666">
        <ele>501.492773</ele>
        <time>2021-11-17T00:38:16.131Z</time>
      </trkpt>
      <trkpt lat="47.511625" lon="7.986656">
        <ele>501.772524</ele>
        <time>2021-11-17T00:38:24.031Z</time>
      </trkpt>
      <trkpt lat="47.511388" lon="7.986757">
        <ele>503.088261</ele>
        <time>2021-11-17T00:38:54.424Z</time>
      </trkpt>
      <trkpt lat="47.511287" lon="7.986937">
        <ele>503.931509</ele>
        <time>2021-11-17T00:39:15.939Z</time>
      </trkpt>
      <trkpt lat="47.511285" lon="7.987015">
        <ele>504.212785</ele>
        <time>2021-11-17T00:39:22.133Z</time>
      </trkpt>
      <trkpt lat="47.511279" lon="7.987254">
        <ele>505.074618</ele>
        <time>2021-11-17T00:39:42.260Z</time>
      </trkpt>
      <trkpt lat="47.511283" lon="7.987490">
        <ele>505.925314</ele>
        <time>2021-11-17T00:40:02.362Z</time>
      </trkpt>
      <trkpt lat="47.511291" lon="7.987928">
        <ele>507.504227</ele>
        <time>2021-11-17T00:40:38.634Z</time>
      </trkpt>
      <trkpt lat="47.511279" lon="7.989103">
        <ele>505.986437</ele>
        <time>2021-11-17T00:42:06.483Z</time>
      </trkpt>
      <trkpt lat="47.511281" lon="7.989398">
        <ele>505.551743</ele>
        <time>2021-11-17T00:42:27.080Z</time>
      </trkpt>
      <trkpt lat="47.511310" lon="7.989658">
        <ele>505.163455</ele>
        <time>2021-11-17T00:42:44.704Z</time>
      </trkpt>
      <trkpt lat="47.511323" lon="7.989943">
        <ele>504.742562</ele>
        <time>2021-11-17T00:43:04.105Z</time>
      </trkpt>
      <trkpt lat="47.511276" lon="7.990072">
        <ele>504.526595</ele>
        <time>2021-11-17T00:43:13.682Z</time>
      </trkpt>
      <trkpt lat="47.511333" lon="7.990498">
        <ele>503.886703</ele>
        <time>2021-11-17T00:43:42.183Z</time>
      </trkpt>
      <trkpt lat="47.511524" lon="7.990642">
        <ele>502.702136</ele>
        <time>2021-11-17T00:44:02.450Z</time>
      </trkpt>
      <trkpt lat="47.511515" lon="7.991186">
        <ele>500.064288</ele>
        <time>2021-11-17T00:44:36.750Z</time>
      </trkpt>
      <trkpt lat="47.511385" lon="7.991709">
        <ele>497.362803</ele>
        <time>2021-11-17T00:45:11.247Z</time>
      </trkpt>
      <trkpt lat="47.511155" lon="7.992265">
        <ele>494.202260</ele>
        <time>2021-11-17T00:45:51.387Z</time>
      </trkpt>
      <trkpt lat="47.510997" lon="7.992648">
        <ele>492.026747</ele>
        <time>2021-11-17T00:46:18.796Z</time>
      </trkpt>
      <trkpt lat="47.510818" lon="7.992811">
        <ele>490.571493</ele>
        <time>2021-11-17T00:46:37.730Z</time>
      </trkpt>
      <trkpt lat="47.509038" lon="7.992773">
        <ele>480.219479</ele>
        <time>2021-11-17T00:49:24.997Z</time>
      </trkpt>
      <trkpt lat="47.508977" lon="7.992786">
        <ele>480.384394</ele>
        <time>2021-11-17T00:49:30.468Z</time>
      </trkpt>
      <trkpt lat="47.508933" lon="7.992795">
        <ele>480.503253</ele>
        <time>2021-11-17T00:49:35.113Z</time>
      </trkpt>
      <trkpt lat="47.508829" lon="7.992396">
        <ele>481.276287</ele>
        <time>2021-11-17T00:50:07.764Z</time>
      </trkpt>
      <trkpt lat="47.508590" lon="7.991481">
        <ele>483.049525</ele>
        <time>2021-11-17T00:51:27.741Z</time>
      </trkpt>
      <trkpt lat="47.508561" lon="7.991069">
        <ele>483.798262</ele>
        <time>2021-11-17T00:52:03.339Z</time>
      </trkpt>
      <trkpt lat="47.508932" lon="7.990221">
        <ele>486.974095</ele>
        <time>2021-11-17T00:53:42.673Z</time>
      </trkpt>
      <trkpt lat="47.508930" lon="7.989875">
        <ele>488.885604</ele>
        <time>2021-11-17T00:54:17.961Z</time>
      </trkpt>
      <trkpt lat="47.508822" lon="7.989054">
        <ele>493.506341</ele>
        <time>2021-11-17T00:55:38.880Z</time>
      </trkpt>
      <trkpt lat="47.508812" lon="7.988947">
        <ele>494.103083</ele>
        <time>2021-11-17T00:55:50.549Z</time>
      </trkpt>
      <trkpt lat="47.508804" lon="7.988871">
        <ele>494.528006</ele>
        <time>2021-11-17T00:55:58.567Z</time>
      </trkpt>
      <trkpt lat="47.508539" lon="7.986509">
        <ele>506.892059</ele>
        <time>2021-11-17T00:59:48.170Z</time>
      </trkpt>
      <trkpt lat="47.508861" lon="7.985423">
        <ele>512.743741</ele>
        <time>2021-11-17T01:01:39.035Z</time>
      </trkpt>
      <trkpt lat="47.508982" lon="7.985006">
        <ele>514.805609</ele>
        <time>2021-11-17T01:02:21.845Z</time>
      </trkpt>
      <trkpt lat="47.509006" lon="7.984925">
        <ele>515.206288</ele>
        <time>2021-11-17T01:02:29.969Z</time>
      </trkpt>
      <trkpt lat="47.509029" lon="7.984818">
        <ele>515.714950</ele>
        <time>2021-11-17T01:02:40.655Z</time>
      </trkpt>
      <trkpt lat="47.509056" lon="7.984659">
        <ele>516.457633</ele>
        <time>2021-11-17T01:02:56.311Z</time>
      </trkpt>
      <trkpt lat="47.509054" lon="7.984474">
        <ele>517.295791</ele>
        <time>2021-11-17T01:03:13.407Z</time>
      </trkpt>
      <trkpt lat="47.509026" lon="7.984256">
        <ele>518.301027</ele>
        <time>2021-11-17T01:03:34.381Z</time>
      </trkpt>
      <trkpt lat="47.508909" lon="7.983878">
        <ele>520.184587</ele>
        <time>2021-11-17T01:04:13.584Z</time>
      </trkpt>
      <trkpt lat="47.508402" lon="7.982292">
        <ele>525.764662</ele>
        <time>2021-11-17T01:06:56.789Z</time>
      </trkpt>
      <trkpt lat="47.508315" lon="7.981894">
        <ele>526.280566</ele>
        <time>2021-11-17T01:07:33.029Z</time>
      </trkpt>
      <trkpt lat="47.508252" lon="7.981311">
        <ele>527.008708</ele>
        <time>2021-11-17T01:08:19.338Z</time>
      </trkpt>
      <trkpt lat="47.508287" lon="7.980547">
        <ele>527.953095</ele>
        <time>2021-11-17T01:09:14.516Z</time>
      </trkpt>
      <trkpt lat="47.508295" lon="7.980412">
        <ele>528.120227</ele>
        <time>2021-11-17T01:09:25.700Z</time>
      </trkpt>
      <trkpt lat="47.508298" lon="7.980362">
        <ele>528.096295</ele>
        <time>2021-11-17T01:09:29.300Z</time>
      </trkpt>
      <trkpt lat="47.508160" lon="7.980614">
        <ele>526.743376</ele>
        <time>2021-11-17T01:09:32.234Z</time>
      </trkpt>
      <trkpt lat="47.507123" lon="7.982752">
        <ele>515.373929</ele>
        <time>2021-11-17T01:09:55.011Z</time>
      </trkpt>
      <trkpt lat="47.507055" lon="7.982858">
        <ele>514.578967</ele>
        <time>2021-11-17T01:09:56.243Z</time>
      </trkpt>
      <trkpt lat="47.507011" lon="7.982902">
        <ele>514.151502</ele>
        <time>2021-11-17T01:09:56.883Z</time>
      </trkpt>
      <trkpt lat="47.506875" lon="7.982899">
        <ele>513.056513</ele>
        <time>2021-11-17T01:09:58.597Z</time>
      </trkpt>
      <trkpt lat="47.506692" lon="7.982561">
        <ele>510.700881</ele>
        <time>2021-11-17T01:10:02.243Z</time>
      </trkpt>
      <trkpt lat="47.506233" lon="7.982148">
        <ele>506.376686</ele>
        <time>2021-11-17T01:10:08.990Z</time>
      </trkpt>
      <trkpt lat="47.505601" lon="7.981812">
        <ele>500.657733</ele>
        <time>2021-11-17T01:10:17.404Z</time>
      </trkpt>
      <trkpt lat="47.505399" lon="7.981833">
        <ele>498.710180</ele>
        <time>2021-11-17T01:10:19.933Z</time>
      </trkpt>
      <trkpt lat="47.505275" lon="7.981948">
        <ele>497.302878</ele>
        <time>2021-11-17T01:10:21.774Z</time>
      </trkpt>
      <trkpt lat="47.505164" lon="7.982187">
        <ele>495.418525</ele>
        <time>2021-11-17T01:10:24.184Z</time>
      </trkpt>
      <trkpt lat="47.505153" lon="7.982527">
        <ele>493.207027</ele>
        <time>2021-11-17T01:10:27.021Z</time>
      </trkpt>
      <trkpt lat="47.505235" lon="7.983158">
        <ele>489.032280</ele>
        <time>2021-11-17T01:10:32.296Z</time>
      </trkpt>
      <trkpt lat="47.505180" lon="7.983525">
        <ele>486.589927</ele>
        <time>2021-11-17T01:10:35.360Z</time>
      </trkpt>
      <trkpt lat="47.505169" lon="7.983598">
        <ele>486.103993</ele>
        <time>2021-11-17T01:10:35.961Z</time>
      </trkpt>
      <trkpt lat="47.505014" lon="7.983996">
        <ele>482.807401</ele>
        <time>2021-11-17T01:10:39.708Z</time>
      </trkpt>
      <trkpt lat="47.504558" lon="7.985032">
        <ele>473.613813</ele>
        <time>2021-11-17T01:10:49.776Z</time>
      </trkpt>
      <trkpt lat="47.504408" lon="7.985264">
        <ele>471.226112</ele>
        <time>2021-11-17T01:10:52.382Z</time>
      </trkpt>
      <trkpt lat="47.503784" lon="7.986110">
        <ele>462.153915</ele>
        <time>2021-11-17T01:11:02.581Z</time>
      </trkpt>
      <trkpt lat="47.502975" lon="7.987226">
        <ele>450.804421</ele>
        <time>2021-11-17T01:11:16.045Z</time>
      </trkpt>
      <trkpt lat="47.502461" lon="7.987886">
        <ele>444.156826</ele>
        <time>2021-11-17T01:11:24.376Z</time>
      </trkpt>
      <trkpt lat="47.501201" lon="7.989503">
        <ele>429.005860</ele>
        <time>2021-11-17T01:11:44.978Z</time>
      </trkpt>
      <trkpt lat="47.498444" lon="7.993225">
        <ele>399.187544</ele>
        <time>2021-11-17T01:12:31.829Z</time>
      </trkpt>
      <trkpt lat="47.498171" lon="7.993563">
        <ele>396.880839</ele>
        <time>2021-11-17T01:12:36.370Z</time>
      </trkpt>
      <trkpt lat="47.497169" lon="7.994210">
        <ele>389.795769</ele>
        <time>2021-11-17T01:12:50.652Z</time>
      </trkpt>
      <trkpt lat="47.495891" lon="7.995038">
        <ele>384.314843</ele>
        <time>2021-11-17T01:13:10.356Z</time>
      </trkpt>
      <trkpt lat="47.495297" lon="7.995227">
        <ele>382.204714</ele>
        <time>2021-11-17T01:13:19.324Z</time>
      </trkpt>
      <trkpt lat="47.494770" lon="7.995288">
        <ele>380.902798</ele>
        <time>2021-11-17T01:13:27.062Z</time>
      </trkpt>
      <trkpt lat="47.494663" lon="7.995312">
        <ele>380.636257</ele>
        <time>2021-11-17T01:13:28.714Z</time>
      </trkpt>
      <trkpt lat="47.494655" lon="7.995343">
        <ele>380.581036</ele>
        <time>2021-11-17T01:13:28.964Z</time>
      </trkpt>
      <trkpt lat="47.494627" lon="7.995447">
        <ele>380.394737</ele>
        <time>2021-11-17T01:13:29.748Z</time>
      </trkpt>
      <trkpt lat="47.494368" lon="7.995845">
        <ele>379.475194</ele>
        <time>2021-11-17T01:13:33.799Z</time>
      </trkpt>
      <trkpt lat="47.494293" lon="7.995952">
        <ele>379.218629</ele>
        <time>2021-11-17T01:13:34.947Z</time>
      </trkpt>
      <trkpt lat="47.494203" lon="7.996025">
        <ele>378.965862</ele>
        <time>2021-11-17T01:13:36.040Z</time>
      </trkpt>
      <trkpt lat="47.493967" lon="7.996177">
        <ele>378.331963</ele>
        <time>2021-11-17T01:13:38.956Z</time>
      </trkpt>
      <trkpt lat="47.493868" lon="7.996295">
        <ele>378.140120</ele>
        <time>2021-11-17T01:13:40.358Z</time>
      </trkpt>
      <trkpt lat="47.493757" lon="7.996428">
        <ele>378.033951</ele>
        <time>2021-11-17T01:13:42.019Z</time>
      </trkpt>
      <trkpt lat="47.493684" lon="7.996562">
        <ele>377.947493</ele>
        <time>2021-11-17T01:13:43.311Z</time>
      </trkpt>
      <trkpt lat="47.493652" lon="7.996488">
        <ele>377.903363</ele>
        <time>2021-11-17T01:13:43.978Z</time>
      </trkpt>
      <trkpt lat="47.493567" lon="7.996156">
        <ele>377.725033</ele>
        <time>2021-11-17T01:13:46.770Z</time>
      </trkpt>
      <trkpt lat="47.493524" lon="7.995985">
        <ele>377.633387</ele>
        <time>2021-11-17T01:13:48.152Z</time>
      </trkpt>
      <trkpt lat="47.493430" lon="7.995894">
        <ele>377.549887</ele>
        <time>2021-11-17T01:13:49.602Z</time>
      </trkpt>
      <trkpt lat="47.492867" lon="7.995700">
        <ele>377.120164</ele>
        <time>2021-11-17T01:13:57.198Z</time>
      </trkpt>
      <trkpt lat="47.492390" lon="7.995213">
        <ele>377.052936</ele>
        <time>2021-11-17T01:14:07.136Z</time>
      </trkpt>
      <trkpt lat="47.492344" lon="7.995171">
        <ele>377.100723</ele>
        <time>2021-11-17T01:14:08.147Z</time>
      </trkpt>
      <trkpt lat="47.492271" lon="7.995104">
        <ele>377.176669</ele>
        <time>2021-11-17T01:14:09.762Z</time>
      </trkpt>
      <trkpt lat="47.492156" lon="7.994971">
        <ele>377.305709</ele>
        <time>2021-11-17T01:14:12.291Z</time>
      </trkpt>
      <trkpt lat="47.491996" lon="7.994807">
        <ele>377.477787</ele>
        <time>2021-11-17T01:14:16.971Z</time>
      </trkpt>
      <trkpt lat="47.491759" lon="7.994592">
        <ele>377.723562</ele>
        <time>2021-11-17T01:14:23.466Z</time>
      </trkpt>
      <trkpt lat="47.491577" lon="7.994479">
        <ele>377.898062</ele>
        <time>2021-11-17T01:14:28.223Z</time>
      </trkpt>
      <trkpt lat="47.491370" lon="7.994298">
        <ele>378.110637</ele>
        <time>2021-11-17T01:14:34.152Z</time>
      </trkpt>
      <trkpt lat="47.490495" lon="7.993473">
        <ele>379.290330</ele>
        <time>2021-11-17T01:15:00.382Z</time>
      </trkpt>
      <trkpt lat="47.489739" lon="7.992457">
        <ele>380.600141</ele>
        <time>2021-11-17T01:15:26.331Z</time>
      </trkpt>
      <trkpt lat="47.489640" lon="7.992334">
        <ele>380.767401</ele>
        <time>2021-11-17T01:15:29.600Z</time>
      </trkpt>
      <trkpt lat="47.489544" lon="7.992214">
        <ele>380.946365</ele>
        <time>2021-11-17T01:15:32.914Z</time>
      </trkpt>
      <trkpt lat="47.489090" lon="7.991643">
        <ele>381.794892</ele>
        <time>2021-11-17T01:15:47.938Z</time>
      </trkpt>
      <trkpt lat="47.488771" lon="7.991233">
        <ele>382.396618</ele>
        <time>2021-11-17T01:15:58.701Z</time>
      </trkpt>
      <trkpt lat="47.488698" lon="7.991149">
        <ele>382.528312</ele>
        <time>2021-11-17T01:16:01.183Z</time>
      </trkpt>
      <trkpt lat="47.487359" lon="7.989771">
        <ele>385.076267</ele>
        <time>2021-11-17T01:16:44.796Z</time>
      </trkpt>
      <trkpt lat="47.487298" lon="7.989709">
        <ele>385.197103</ele>
        <time>2021-11-17T01:16:47.106Z</time>
      </trkpt>
      <trkpt lat="47.487127" lon="7.989547">
        <ele>385.528639</ele>
        <time>2021-11-17T01:16:52.266Z</time>
      </trkpt>
      <trkpt lat="47.486511" lon="7.989012">
        <ele>386.671645</ele>
        <time>2021-11-17T01:17:11.475Z</time>
      </trkpt>
      <trkpt lat="47.486162" lon="7.988596">
        <ele>387.365013</ele>
        <time>2021-11-17T01:17:23.403Z</time>
      </trkpt>
      <trkpt lat="47.485848" lon="7.988106">
        <ele>388.071061</ele>
        <time>2021-11-17T01:17:35.556Z</time>
      </trkpt>
      <trkpt lat="47.485496" lon="7.987549">
        <ele>388.868419</ele>
        <time>2021-11-17T01:17:48.484Z</time>
      </trkpt>
      <trkpt lat="47.484679" lon="7.986270">
        <ele>390.974345</ele>
        <time>2021-11-17T01:18:19.989Z</time>
      </trkpt>
      <trkpt lat="47.484546" lon="7.985963">
        <ele>391.416147</ele>
        <time>2021-11-17T01:18:27.095Z</time>
      </trkpt>
      <trkpt lat="47.484451" lon="7.985647">
        <ele>391.835163</ele>
        <time>2021-11-17T01:18:33.869Z</time>
      </trkpt>
      <trkpt lat="47.484352" lon="7.985730">
        <ele>392.039152</ele>
        <time>2021-11-17T01:18:37.222Z</time>
      </trkpt>
      <trkpt lat="47.484219" lon="7.985842">
        <ele>392.324141</ele>
        <time>2021-11-17T01:18:41.780Z</time>
      </trkpt>
      <trkpt lat="47.484091" lon="7.985948">
        <ele>392.638073</ele>
        <time>2021-11-17T01:18:46.015Z</time>
      </trkpt>
      <trkpt lat="47.484049" lon="7.985980">
        <ele>392.739178</ele>
        <time>2021-11-17T01:18:47.432Z</time>
      </trkpt>
      <trkpt lat="47.483826" lon="7.986159">
        <ele>393.282147</ele>
        <time>2021-11-17T01:18:54.847Z</time>
      </trkpt>
      <trkpt lat="47.483550" lon="7.986378">
        <ele>393.952417</ele>
        <time>2021-11-17T01:19:04.028Z</time>
      </trkpt>
      <trkpt lat="47.483462" lon="7.986151">
        <ele>394.330927</ele>
        <time>2021-11-17T01:19:08.058Z</time>
      </trkpt>
      <trkpt lat="47.483382" lon="7.985915">
        <ele>394.712805</ele>
        <time>2021-11-17T01:19:12.259Z</time>
      </trkpt>
      <trkpt lat="47.483274" lon="7.985553">
        <ele>395.285144</ele>
        <time>2021-11-17T01:19:18.298Z</time>
      </trkpt>
      <trkpt lat="47.483173" lon="7.985106">
        <ele>395.966853</ele>
        <time>2021-11-17T01:19:25.641Z</time>
      </trkpt>
      <trkpt lat="47.483153" lon="7.984996">
        <ele>396.125772</ele>
        <time>2021-11-17T01:19:27.419Z</time>
      </trkpt>
      <trkpt lat="47.483130" lon="7.984873">
        <ele>396.264571</ele>
        <time>2021-11-17T01:19:29.330Z</time>
      </trkpt>
      <trkpt lat="47.483001" lon="7.984129">
        <ele>397.099938</ele>
        <time>2021-11-17T01:19:41.591Z</time>
      </trkpt>
      <trkpt lat="47.482897" lon="7.983529">
        <ele>397.773609</ele>
        <time>2021-11-17T01:19:50.387Z</time>
      </trkpt>
      <trkpt lat="47.482846" lon="7.983234">
        <ele>398.104778</ele>
        <time>2021-11-17T01:19:54.416Z</time>
      </trkpt>
      <trkpt lat="47.482840" lon="7.983205">
        <ele>398.137763</ele>
        <time>2021-11-17T01:19:54.992Z</time>
      </trkpt>
      <trkpt lat="47.482729" lon="7.982770">
        <ele>398.643464</ele>
        <time>2021-11-17T01:20:00.942Z</time>
      </trkpt>
      <trkpt lat="47.482704" lon="7.982687">
        <ele>398.742293</ele>
        <time>2021-11-17T01:20:02.265Z</time>
      </trkpt>
      <trkpt lat="47.482652" lon="7.982524">
        <ele>398.938329</ele>
        <time>2021-11-17T01:20:04.482Z</time>
      </trkpt>
      <trkpt lat="47.482594" lon="7.982339">
        <ele>399.140882</ele>
        <time>2021-11-17T01:20:07.185Z</time>
      </trkpt>
      <trkpt lat="47.482563" lon="7.982231">
        <ele>399.252902</ele>
        <time>2021-11-17T01:20:08.860Z</time>
      </trkpt>
      <trkpt lat="47.482472" lon="7.981944">
        <ele>399.555552</ele>
        <time>2021-11-17T01:20:12.892Z</time>
      </trkpt>
      <trkpt lat="47.482458" lon="7.981897">
        <ele>399.604587</ele>
        <time>2021-11-17T01:20:13.613Z</time>
      </trkpt>
      <trkpt lat="47.482159" lon="7.980898">
        <ele>400.647660</ele>
        <time>2021-11-17T01:20:28.957Z</time>
      </trkpt>
      <trkpt lat="47.482099" lon="7.980698">
        <ele>400.856564</ele>
        <time>2021-11-17T01:20:31.996Z</time>
      </trkpt>
      <trkpt lat="47.482025" lon="7.980480">
        <ele>401.089464</ele>
        <time>2021-11-17T01:20:35.437Z</time>
      </trkpt>
      <trkpt lat="47.481977" lon="7.980334">
        <ele>401.244467</ele>
        <time>2021-11-17T01:20:37.850Z</time>
      </trkpt>
      <trkpt lat="47.481757" lon="7.979824">
        <ele>401.903944</ele>
        <time>2021-11-17T01:20:46.399Z</time>
      </trkpt>
      <trkpt lat="47.481673" lon="7.979611">
        <ele>402.208548</ele>
        <time>2021-11-17T01:20:49.917Z</time>
      </trkpt>
      <trkpt lat="47.481627" lon="7.979494">
        <ele>402.375737</ele>
        <time>2021-11-17T01:20:51.923Z</time>
      </trkpt>
      <trkpt lat="47.481508" lon="7.979190">
        <ele>402.809664</ele>
        <time>2021-11-17T01:20:56.641Z</time>
      </trkpt>
      <trkpt lat="47.481417" lon="7.978989">
        <ele>403.108490</ele>
        <time>2021-11-17T01:21:00.365Z</time>
      </trkpt>
      <trkpt lat="47.481331" lon="7.978796">
        <ele>403.394029</ele>
        <time>2021-11-17T01:21:03.566Z</time>
      </trkpt>
      <trkpt lat="47.481075" lon="7.978353">
        <ele>404.113966</ele>
        <time>2021-11-17T01:21:12.539Z</time>
      </trkpt>
      <trkpt lat="47.481057" lon="7.978315">
        <ele>404.171283</ele>
        <time>2021-11-17T01:21:13.644Z</time>
      </trkpt>
      <trkpt lat="47.480540" lon="7.977249">
        <ele>406.170009</ele>
        <time>2021-11-17T01:21:34.796Z</time>
      </trkpt>
      <trkpt lat="47.480294" lon="7.976615">
        <ele>407.428174</ele>
        <time>2021-11-17T01:21:46.839Z</time>
      </trkpt>
      <trkpt lat="47.480258" lon="7.976521">
        <ele>407.614119</ele>
        <time>2021-11-17T01:21:48.929Z</time>
      </trkpt>
      <trkpt lat="47.480172" lon="7.976321">
        <ele>408.022087</ele>
        <time>2021-11-17T01:21:52.339Z</time>
      </trkpt>
      <trkpt lat="47.480019" lon="7.976061">
        <ele>408.615404</ele>
        <time>2021-11-17T01:21:58.078Z</time>
      </trkpt>
      <trkpt lat="47.479744" lon="7.975611">
        <ele>409.816765</ele>
        <time>2021-11-17T01:22:08.603Z</time>
      </trkpt>
      <trkpt lat="47.479662" lon="7.975458">
        <ele>410.365379</ele>
        <time>2021-11-17T01:22:12.621Z</time>
      </trkpt>
      <trkpt lat="47.479650" lon="7.975428">
        <ele>410.463322</ele>
        <time>2021-11-17T01:22:13.227Z</time>
      </trkpt>
      <trkpt lat="47.479548" lon="7.975187">
        <ele>411.262233</ele>
        <time>2021-11-17T01:22:19.008Z</time>
      </trkpt>
      <trkpt lat="47.479521" lon="7.975122">
        <ele>411.476589</ele>
        <time>2021-11-17T01:22:20.665Z</time>
      </trkpt>
      <trkpt lat="47.479256" lon="7.974388">
        <ele>413.814603</ele>
        <time>2021-11-17T01:22:38.885Z</time>
      </trkpt>
      <trkpt lat="47.479198" lon="7.974266">
        <ele>414.233677</ele>
        <time>2021-11-17T01:22:42.596Z</time>
      </trkpt>
      <trkpt lat="47.479172" lon="7.974215">
        <ele>414.413158</ele>
        <time>2021-11-17T01:22:44.370Z</time>
      </trkpt>
      <trkpt lat="47.479095" lon="7.974066">
        <ele>414.940138</ele>
        <time>2021-11-17T01:22:48.648Z</time>
      </trkpt>
      <trkpt lat="47.479061" lon="7.974014">
        <ele>415.143415</ele>
        <time>2021-11-17T01:22:49.847Z</time>
      </trkpt>
      <trkpt lat="47.478952" lon="7.973850">
        <ele>415.789656</ele>
        <time>2021-11-17T01:22:54.924Z</time>
      </trkpt>
      <trkpt lat="47.478606" lon="7.973396">
        <ele>417.618112</ele>
        <time>2021-11-17T01:23:10.687Z</time>
      </trkpt>
      <trkpt lat="47.478494" lon="7.973191">
        <ele>418.274252</ele>
        <time>2021-11-17T01:23:15.562Z</time>
      </trkpt>
      <trkpt lat="47.478424" lon="7.973015">
        <ele>418.782566</ele>
        <time>2021-11-17T01:23:21.165Z</time>
      </trkpt>
      <trkpt lat="47.478295" lon="7.972689">
        <ele>419.722874</ele>
        <time>2021-11-17T01:23:28.510Z</time>
      </trkpt>
      <trkpt lat="47.478213" lon="7.972508">
        <ele>420.265261</ele>
        <time>2021-11-17T01:23:33.777Z</time>
      </trkpt>
      <trkpt lat="47.478198" lon="7.972475">
        <ele>420.364252</ele>
        <time>2021-11-17T01:23:34.571Z</time>
      </trkpt>
      <trkpt lat="47.478083" lon="7.972275">
        <ele>421.017867</ele>
        <time>2021-11-17T01:23:38.880Z</time>
      </trkpt>
      <trkpt lat="47.477778" lon="7.971876">
        <ele>422.517251</ele>
        <time>2021-11-17T01:23:50.985Z</time>
      </trkpt>
      <trkpt lat="47.477698" lon="7.971759">
        <ele>422.931526</ele>
        <time>2021-11-17T01:23:54.479Z</time>
      </trkpt>
      <trkpt lat="47.477623" lon="7.971640">
        <ele>423.336540</ele>
        <time>2021-11-17T01:23:56.728Z</time>
      </trkpt>
      <trkpt lat="47.477553" lon="7.971461">
        <ele>423.606895</ele>
        <time>2021-11-17T01:24:00.388Z</time>
      </trkpt>
      <trkpt lat="47.477522" lon="7.971381">
        <ele>423.671019</ele>
        <time>2021-11-17T01:24:02.377Z</time>
      </trkpt>
      <trkpt lat="47.477370" lon="7.970827">
        <ele>424.086782</ele>
        <time>2021-11-17T01:24:10.757Z</time>
      </trkpt>
      <trkpt lat="47.477322" lon="7.970682">
        <ele>424.199054</ele>
        <time>2021-11-17T01:24:12.880Z</time>
      </trkpt>
      <trkpt lat="47.477284" lon="7.970600">
        <ele>424.268190</ele>
        <time>2021-11-17T01:24:13.819Z</time>
      </trkpt>
      <trkpt lat="47.477262" lon="7.970548">
        <ele>424.310849</ele>
        <time>2021-11-17T01:24:14.614Z</time>
      </trkpt>
      <trkpt lat="47.477203" lon="7.970445">
        <ele>424.404734</ele>
        <time>2021-11-17T01:24:16.426Z</time>
      </trkpt>
      <trkpt lat="47.477135" lon="7.970342">
        <ele>424.504855</ele>
        <time>2021-11-17T01:24:18.118Z</time>
      </trkpt>
      <trkpt lat="47.477029" lon="7.970212">
        <ele>424.646506</ele>
        <time>2021-11-17T01:24:19.880Z</time>
      </trkpt>
      <trkpt lat="47.476944" lon="7.970103">
        <ele>424.762232</ele>
        <time>2021-11-17T01:24:21.782Z</time>
      </trkpt>
      <trkpt lat="47.476670" lon="7.969631">
        <ele>425.194890</ele>
        <time>2021-11-17T01:24:27.512Z</time>
      </trkpt>
      <trkpt lat="47.476396" lon="7.969182">
        <ele>425.910362</ele>
        <time>2021-11-17T01:24:34.753Z</time>
      </trkpt>
      <trkpt lat="47.476327" lon="7.969094">
        <ele>426.113343</ele>
        <time>2021-11-17T01:24:36.306Z</time>
      </trkpt>
      <trkpt lat="47.476103" lon="7.968806">
        <ele>426.774580</ele>
        <time>2021-11-17T01:24:42.204Z</time>
      </trkpt>
      <trkpt lat="47.475871" lon="7.968576">
        <ele>427.396838</ele>
        <time>2021-11-17T01:24:48.842Z</time>
      </trkpt>
      <trkpt lat="47.475729" lon="7.968403">
        <ele>427.806706</ele>
        <time>2021-11-17T01:24:53.075Z</time>
      </trkpt>
      <trkpt lat="47.475684" lon="7.968334">
        <ele>427.951109</ele>
        <time>2021-11-17T01:24:54.529Z</time>
      </trkpt>
      <trkpt lat="47.475616" lon="7.968229">
        <ele>428.170114</ele>
        <time>2021-11-17T01:24:56.727Z</time>
      </trkpt>
      <trkpt lat="47.475312" lon="7.968548">
        <ele>429.000555</ele>
        <time>2021-11-17T01:25:06.849Z</time>
      </trkpt>
      <trkpt lat="47.474879" lon="7.968783">
        <ele>431.401454</ele>
        <time>2021-11-17T01:25:21.606Z</time>
      </trkpt>
      <trkpt lat="47.474555" lon="7.968862">
        <ele>433.660356</ele>
        <time>2021-11-17T01:25:34.508Z</time>
      </trkpt>
      <trkpt lat="47.474238" lon="7.968922">
        <ele>435.858810</ele>
        <time>2021-11-17T01:25:48.810Z</time>
      </trkpt>
      <trkpt lat="47.473628" lon="7.969058">
        <ele>440.102455</ele>
        <time>2021-11-17T01:26:18.920Z</time>
      </trkpt>
      <trkpt lat="47.472626" lon="7.969301">
        <ele>446.370614</ele>
        <time>2021-11-17T01:27:07.597Z</time>
      </trkpt>
      <trkpt lat="47.471877" lon="7.969497">
        <ele>450.901292</ele>
        <time>2021-11-17T01:27:35.599Z</time>
      </trkpt>
      <trkpt lat="47.471196" lon="7.969654">
        <ele>452.136991</ele>
        <time>2021-11-17T01:27:53.131Z</time>
      </trkpt>
      <trkpt lat="47.469542" lon="7.970235">
        <ele>450.624149</ele>
        <time>2021-11-17T01:28:11.456Z</time>
      </trkpt>
      <trkpt lat="47.469339" lon="7.970255">
        <ele>450.322723</ele>
        <time>2021-11-17T01:28:13.473Z</time>
      </trkpt>
      <trkpt lat="47.469022" lon="7.970240">
        <ele>449.852824</ele>
        <time>2021-11-17T01:28:16.807Z</time>
      </trkpt>
      <trkpt lat="47.468142" lon="7.970113">
        <ele>448.542848</ele>
        <time>2021-11-17T01:28:27.894Z</time>
      </trkpt>
      <trkpt lat="47.467469" lon="7.970226">
        <ele>449.254102</ele>
        <time>2021-11-17T01:28:38.421Z</time>
      </trkpt>
      <trkpt lat="47.467356" lon="7.970255">
        <ele>449.405082</ele>
        <time>2021-11-17T01:28:41.785Z</time>
      </trkpt>
      <trkpt lat="47.467243" lon="7.970284">
        <ele>449.556062</ele>
        <time>2021-11-17T01:28:44.020Z</time>
      </trkpt>
      <trkpt lat="47.466575" lon="7.970455">
        <ele>450.448516</ele>
        <time>2021-11-17T01:28:59.564Z</time>
      </trkpt>
      <trkpt lat="47.466209" lon="7.970465">
        <ele>450.978954</ele>
        <time>2021-11-17T01:29:08.242Z</time>
      </trkpt>
      <trkpt lat="47.465838" lon="7.970388">
        <ele>451.679790</ele>
        <time>2021-11-17T01:29:17.361Z</time>
      </trkpt>
      <trkpt lat="47.465273" lon="7.970155">
        <ele>452.777054</ele>
        <time>2021-11-17T01:29:29.514Z</time>
      </trkpt>
      <trkpt lat="47.464851" lon="7.969824">
        <ele>453.670618</ele>
        <time>2021-11-17T01:29:40.378Z</time>
      </trkpt>
      <trkpt lat="47.463869" lon="7.968734">
        <ele>455.936778</ele>
        <time>2021-11-17T01:30:07.208Z</time>
      </trkpt>
      <trkpt lat="47.463713" lon="7.968547">
        <ele>456.305981</ele>
        <time>2021-11-17T01:30:11.907Z</time>
      </trkpt>
      <trkpt lat="47.463389" lon="7.968088">
        <ele>457.130880</ele>
        <time>2021-11-17T01:30:21.695Z</time>
      </trkpt>
      <trkpt lat="47.463153" lon="7.967669">
        <ele>457.851937</ele>
        <time>2021-11-17T01:30:29.909Z</time>
      </trkpt>
      <trkpt lat="47.462955" lon="7.967287">
        <ele>458.530509</ele>
        <time>2021-11-17T01:30:37.436Z</time>
      </trkpt>
      <trkpt lat="47.462416" lon="7.966027">
        <ele>460.632492</ele>
        <time>2021-11-17T01:31:00.898Z</time>
      </trkpt>
      <trkpt lat="47.462208" lon="7.965649">
        <ele>461.306416</ele>
        <time>2021-11-17T01:31:08.978Z</time>
      </trkpt>
      <trkpt lat="47.461753" lon="7.965074">
        <ele>462.354048</ele>
        <time>2021-11-17T01:31:22.887Z</time>
      </trkpt>
      <trkpt lat="47.461085" lon="7.964391">
        <ele>463.775623</ele>
        <time>2021-11-17T01:31:40.317Z</time>
      </trkpt>
      <trkpt lat="47.460768" lon="7.963901">
        <ele>464.541823</ele>
        <time>2021-11-17T01:31:49.785Z</time>
      </trkpt>
      <trkpt lat="47.460551" lon="7.963411">
        <ele>465.103474</ele>
        <time>2021-11-17T01:31:57.303Z</time>
      </trkpt>
      <trkpt lat="47.460489" lon="7.963238">
        <ele>465.291218</ele>
        <time>2021-11-17T01:31:59.500Z</time>
      </trkpt>
      <trkpt lat="47.460405" lon="7.962956">
        <ele>465.586692</ele>
        <time>2021-11-17T01:32:03.620Z</time>
      </trkpt>
      <trkpt lat="47.460083" lon="7.961991">
        <ele>466.618534</ele>
        <time>2021-11-17T01:32:18.246Z</time>
      </trkpt>
      <trkpt lat="47.459581" lon="7.961147">
        <ele>468.418886</ele>
        <time>2021-11-17T01:32:36.250Z</time>
      </trkpt>
      <trkpt lat="47.459416" lon="7.960954">
        <ele>469.001088</ele>
        <time>2021-11-17T01:32:41.504Z</time>
      </trkpt>
      <trkpt lat="47.459280" lon="7.960788">
        <ele>469.489103</ele>
        <time>2021-11-17T01:32:46.111Z</time>
      </trkpt>
      <trkpt lat="47.459074" lon="7.960615">
        <ele>470.144726</ele>
        <time>2021-11-17T01:32:52.169Z</time>
      </trkpt>
      <trkpt lat="47.458898" lon="7.960485">
        <ele>470.689189</ele>
        <time>2021-11-17T01:32:57.785Z</time>
      </trkpt>
      <trkpt lat="47.457199" lon="7.959536">
        <ele>476.505245</ele>
        <time>2021-11-17T01:33:49.557Z</time>
      </trkpt>
      <trkpt lat="47.456734" lon="7.959350">
        <ele>478.156101</ele>
        <time>2021-11-17T01:34:02.311Z</time>
      </trkpt>
      <trkpt lat="47.455967" lon="7.959329">
        <ele>481.274581</ele>
        <time>2021-11-17T01:34:24.535Z</time>
      </trkpt>
      <trkpt lat="47.455234" lon="7.959555">
        <ele>484.318377</ele>
        <time>2021-11-17T01:34:48.897Z</time>
      </trkpt>
      <trkpt lat="47.455065" lon="7.959595">
        <ele>485.014124</ele>
        <time>2021-11-17T01:34:54.485Z</time>
      </trkpt>
      <trkpt lat="47.454959" lon="7.959615">
        <ele>485.526020</ele>
        <time>2021-11-17T01:34:58.397Z</time>
      </trkpt>
      <trkpt lat="47.454626" lon="7.959663">
        <ele>487.389315</ele>
        <time>2021-11-17T01:35:10.207Z</time>
      </trkpt>
      <trkpt lat="47.453337" lon="7.959692">
        <ele>494.568704</ele>
        <time>2021-11-17T01:36:00.003Z</time>
      </trkpt>
      <trkpt lat="47.450176" lon="7.960171">
        <ele>510.413633</ele>
        <time>2021-11-17T01:37:55.019Z</time>
      </trkpt>
      <trkpt lat="47.449207" lon="7.960269">
        <ele>512.911938</ele>
        <time>2021-11-17T01:38:19.214Z</time>
      </trkpt>
      <trkpt lat="47.449168" lon="7.960272">
        <ele>512.925534</ele>
        <time>2021-11-17T01:38:19.603Z</time>
      </trkpt>
      <trkpt lat="47.448152" lon="7.960399">
        <ele>513.280502</ele>
        <time>2021-11-17T01:38:35.015Z</time>
      </trkpt>
      <trkpt lat="47.446978" lon="7.960776">
        <ele>513.094088</ele>
        <time>2021-11-17T01:38:48.763Z</time>
      </trkpt>
      <trkpt lat="47.446457" lon="7.960999">
        <ele>512.914232</ele>
        <time>2021-11-17T01:38:56.532Z</time>
      </trkpt>
      <trkpt lat="47.446265" lon="7.961081">
        <ele>512.847962</ele>
        <time>2021-11-17T01:39:00.194Z</time>
      </trkpt>
      <trkpt lat="47.445731" lon="7.961482">
        <ele>514.002216</ele>
        <time>2021-11-17T01:39:12.711Z</time>
      </trkpt>
      <trkpt lat="47.445632" lon="7.961583">
        <ele>514.338950</ele>
        <time>2021-11-17T01:39:15.850Z</time>
      </trkpt>
      <trkpt lat="47.445405" lon="7.961813">
        <ele>515.109356</ele>
        <time>2021-11-17T01:39:22.916Z</time>
      </trkpt>
      <trkpt lat="47.445186" lon="7.962043">
        <ele>515.861395</ele>
        <time>2021-11-17T01:39:30.028Z</time>
      </trkpt>
      <trkpt lat="47.444993" lon="7.962238">
        <ele>516.515824</ele>
        <time>2021-11-17T01:39:36.683Z</time>
      </trkpt>
      <trkpt lat="47.444976" lon="7.962255">
        <ele>516.573280</ele>
        <time>2021-11-17T01:39:37.253Z</time>
      </trkpt>
      <trkpt lat="47.444826" lon="7.962406">
        <ele>517.081312</ele>
        <time>2021-11-17T01:39:42.367Z</time>
      </trkpt>
      <trkpt lat="47.444267" lon="7.962981">
        <ele>519.818960</ele>
        <time>2021-11-17T01:40:04.501Z</time>
      </trkpt>
      <trkpt lat="47.443323" lon="7.963902">
        <ele>525.255047</ele>
        <time>2021-11-17T01:40:43.589Z</time>
      </trkpt>
      <trkpt lat="47.443282" lon="7.963930">
        <ele>525.472119</ele>
        <time>2021-11-17T01:40:45.898Z</time>
      </trkpt>
      <trkpt lat="47.443115" lon="7.964042">
        <ele>526.353519</ele>
        <time>2021-11-17T01:40:51.723Z</time>
      </trkpt>
      <trkpt lat="47.442938" lon="7.964116">
        <ele>527.482270</ele>
        <time>2021-11-17T01:40:58.273Z</time>
      </trkpt>
      <trkpt lat="47.442282" lon="7.964392">
        <ele>531.809952</ele>
        <time>2021-11-17T01:41:22.997Z</time>
      </trkpt>
      <trkpt lat="47.441371" lon="7.965446">
        <ele>539.830635</ele>
        <time>2021-11-17T01:42:11.830Z</time>
      </trkpt>
      <trkpt lat="47.441328" lon="7.965473">
        <ele>540.286771</ele>
        <time>2021-11-17T01:42:15.945Z</time>
      </trkpt>
      <trkpt lat="47.441204" lon="7.965554">
        <ele>541.610381</ele>
        <time>2021-11-17T01:42:21.823Z</time>
      </trkpt>
      <trkpt lat="47.440933" lon="7.965666">
        <ele>544.357800</ele>
        <time>2021-11-17T01:42:37.105Z</time>
      </trkpt>
      <trkpt lat="47.440543" lon="7.965818">
        <ele>548.295763</ele>
        <time>2021-11-17T01:42:59.515Z</time>
      </trkpt>
      <trkpt lat="47.440012" lon="7.966095">
        <ele>553.793590</ele>
        <time>2021-11-17T01:43:27.911Z</time>
      </trkpt>
      <trkpt lat="47.439942" lon="7.966121">
        <ele>554.498294</ele>
        <time>2021-11-17T01:43:34.931Z</time>
      </trkpt>
      <trkpt lat="47.439807" lon="7.966143">
        <ele>555.899557</ele>
        <time>2021-11-17T01:43:44.655Z</time>
      </trkpt>
      <trkpt lat="47.439737" lon="7.966170">
        <ele>556.746865</ele>
        <time>2021-11-17T01:43:48.099Z</time>
      </trkpt>
      <trkpt lat="47.439678" lon="7.966197">
        <ele>557.470241</ele>
        <time>2021-11-17T01:43:51.268Z</time>
      </trkpt>
      <trkpt lat="47.439608" lon="7.966261">
        <ele>558.434207</ele>
        <time>2021-11-17T01:43:56.820Z</time>
      </trkpt>
      <trkpt lat="47.439547" lon="7.966322">
        <ele>559.296740</ele>
        <time>2021-11-17T01:44:03.292Z</time>
      </trkpt>
      <trkpt lat="47.439287" lon="7.966643">
        <ele>563.264089</ele>
        <time>2021-11-17T01:44:23.940Z</time>
      </trkpt>
      <trkpt lat="47.438790" lon="7.967000">
        <ele>569.735802</ele>
        <time>2021-11-17T01:44:58.563Z</time>
      </trkpt>
      <trkpt lat="47.438609" lon="7.967099">
        <ele>571.996166</ele>
        <time>2021-11-17T01:45:13.875Z</time>
      </trkpt>
      <trkpt lat="47.438462" lon="7.967152">
        <ele>573.768343</ele>
        <time>2021-11-17T01:45:21.870Z</time>
      </trkpt>
      <trkpt lat="47.438044" lon="7.967266">
        <ele>577.873503</ele>
        <time>2021-11-17T01:45:46.651Z</time>
      </trkpt>
      <trkpt lat="47.437738" lon="7.967468">
        <ele>580.263339</ele>
        <time>2021-11-17T01:46:03.079Z</time>
      </trkpt>
      <trkpt lat="47.437561" lon="7.967616">
        <ele>581.713479</ele>
        <time>2021-11-17T01:46:12.968Z</time>
      </trkpt>
      <trkpt lat="47.437098" lon="7.968128">
        <ele>585.836740</ele>
        <time>2021-11-17T01:46:35.237Z</time>
      </trkpt>
      <trkpt lat="47.437006" lon="7.968207">
        <ele>586.595461</ele>
        <time>2021-11-17T01:46:39.965Z</time>
      </trkpt>
      <trkpt lat="47.436936" lon="7.968257">
        <ele>587.149864</ele>
        <time>2021-11-17T01:46:40.785Z</time>
      </trkpt>
      <trkpt lat="47.436435" lon="7.968422">
        <ele>590.959782</ele>
        <time>2021-11-17T01:46:58.997Z</time>
      </trkpt>
      <trkpt lat="47.436240" lon="7.968528">
        <ele>592.592207</ele>
        <time>2021-11-17T01:47:04.935Z</time>
      </trkpt>
      <trkpt lat="47.436210" lon="7.968545">
        <ele>592.844642</ele>
        <time>2021-11-17T01:47:06.168Z</time>
      </trkpt>
      <trkpt lat="47.436171" lon="7.968569">
        <ele>593.176557</ele>
        <time>2021-11-17T01:47:07.994Z</time>
      </trkpt>
      <trkpt lat="47.435945" lon="7.968713">
        <ele>595.110165</ele>
        <time>2021-11-17T01:47:17.268Z</time>
      </trkpt>
      <trkpt lat="47.435622" lon="7.969103">
        <ele>598.386881</ele>
        <time>2021-11-17T01:47:34.970Z</time>
      </trkpt>
      <trkpt lat="47.435592" lon="7.969165">
        <ele>598.792022</ele>
        <time>2021-11-17T01:47:37.276Z</time>
      </trkpt>
      <trkpt lat="47.435499" lon="7.969359">
        <ele>600.055750</ele>
        <time>2021-11-17T01:47:43.573Z</time>
      </trkpt>
      <trkpt lat="47.435217" lon="7.969930">
        <ele>604.202102</ele>
        <time>2021-11-17T01:48:13.786Z</time>
      </trkpt>
      <trkpt lat="47.435033" lon="7.970303">
        <ele>609.460007</ele>
        <time>2021-11-17T01:48:37.555Z</time>
      </trkpt>
      <trkpt lat="47.434854" lon="7.970659">
        <ele>614.512089</ele>
        <time>2021-11-17T01:48:58.222Z</time>
      </trkpt>
      <trkpt lat="47.434835" lon="7.970711">
        <ele>615.185217</ele>
        <time>2021-11-17T01:49:02.540Z</time>
      </trkpt>
      <trkpt lat="47.434817" lon="7.970756">
        <ele>615.780644</ele>
        <time>2021-11-17T01:49:06.336Z</time>
      </trkpt>
      <trkpt lat="47.434760" lon="7.971172">
        <ele>620.614855</ele>
        <time>2021-11-17T01:49:26.820Z</time>
      </trkpt>
      <trkpt lat="47.434732" lon="7.971724">
        <ele>626.919452</ele>
        <time>2021-11-17T01:50:04.782Z</time>
      </trkpt>
      <trkpt lat="47.434713" lon="7.971956">
        <ele>629.581088</ele>
        <time>2021-11-17T01:50:21.098Z</time>
      </trkpt>
      <trkpt lat="47.434644" lon="7.972421">
        <ele>634.781848</ele>
        <time>2021-11-17T01:50:51.965Z</time>
      </trkpt>
      <trkpt lat="47.434376" lon="7.973524">
        <ele>645.758834</ele>
        <time>2021-11-17T01:51:54.656Z</time>
      </trkpt>
      <trkpt lat="47.434340" lon="7.973566">
        <ele>646.393823</ele>
        <time>2021-11-17T01:51:59.678Z</time>
      </trkpt>
      <trkpt lat="47.434299" lon="7.973598">
        <ele>647.035778</ele>
        <time>2021-11-17T01:52:01.799Z</time>
      </trkpt>
      <trkpt lat="47.434264" lon="7.973594">
        <ele>647.521842</ele>
        <time>2021-11-17T01:52:03.496Z</time>
      </trkpt>
      <trkpt lat="47.434245" lon="7.973591">
        <ele>647.786417</ele>
        <time>2021-11-17T01:52:04.458Z</time>
      </trkpt>
      <trkpt lat="47.434197" lon="7.973559">
        <ele>648.515490</ele>
        <time>2021-11-17T01:52:07.591Z</time>
      </trkpt>
      <trkpt lat="47.434160" lon="7.973499">
        <ele>649.275929</ele>
        <time>2021-11-17T01:52:11.597Z</time>
      </trkpt>
      <trkpt lat="47.434124" lon="7.973362">
        <ele>650.652504</ele>
        <time>2021-11-17T01:52:17.299Z</time>
      </trkpt>
      <trkpt lat="47.434139" lon="7.972983">
        <ele>654.208330</ele>
        <time>2021-11-17T01:52:32.420Z</time>
      </trkpt>
      <trkpt lat="47.434066" lon="7.972679">
        <ele>657.229716</ele>
        <time>2021-11-17T01:52:44.834Z</time>
      </trkpt>
      <trkpt lat="47.433999" lon="7.972513">
        <ele>658.758136</ele>
        <time>2021-11-17T01:52:49.009Z</time>
      </trkpt>
      <trkpt lat="47.433985" lon="7.972481">
        <ele>658.848751</ele>
        <time>2021-11-17T01:52:50.333Z</time>
      </trkpt>
      <trkpt lat="47.433652" lon="7.971751">
        <ele>660.942295</ele>
        <time>2021-11-17T01:53:15.795Z</time>
      </trkpt>
      <trkpt lat="47.433359" lon="7.971344">
        <ele>662.355536</ele>
        <time>2021-11-17T01:53:22.739Z</time>
      </trkpt>
      <trkpt lat="47.432959" lon="7.971039">
        <ele>663.937576</ele>
        <time>2021-11-17T01:53:31.134Z</time>
      </trkpt>
      <trkpt lat="47.432214" lon="7.970755">
        <ele>666.982473</ele>
        <time>2021-11-17T01:53:46.276Z</time>
      </trkpt>
      <trkpt lat="47.431927" lon="7.970836">
        <ele>668.220512</ele>
        <time>2021-11-17T01:53:54.078Z</time>
      </trkpt>
      <trkpt lat="47.431712" lon="7.971054">
        <ele>669.325211</ele>
        <time>2021-11-17T01:54:03.205Z</time>
      </trkpt>
      <trkpt lat="47.431585" lon="7.971539">
        <ele>670.815899</ele>
        <time>2021-11-17T01:54:15.937Z</time>
      </trkpt>
      <trkpt lat="47.431594" lon="7.972217">
        <ele>672.943952</ele>
        <time>2021-11-17T01:54:32.782Z</time>
      </trkpt>
      <trkpt lat="47.431599" lon="7.972246">
        <ele>673.132431</ele>
        <time>2021-11-17T01:54:34.923Z</time>
      </trkpt>
      <trkpt lat="47.431630" lon="7.972434">
        <ele>674.351110</ele>
        <time>2021-11-17T01:54:41.164Z</time>
      </trkpt>
      <trkpt lat="47.432052" lon="7.973957">
        <ele>684.716272</ele>
        <time>2021-11-17T01:55:36.268Z</time>
      </trkpt>
      <trkpt lat="47.432488" lon="7.974763">
        <ele>692.008720</ele>
        <time>2021-11-17T01:56:19.465Z</time>
      </trkpt>
      <trkpt lat="47.432533" lon="7.974869">
        <ele>693.132023</ele>
        <time>2021-11-17T01:56:27.535Z</time>
      </trkpt>
      <trkpt lat="47.432566" lon="7.974989">
        <ele>694.294747</ele>
        <time>2021-11-17T01:56:31.838Z</time>
      </trkpt>
      <trkpt lat="47.432580" lon="7.975079">
        <ele>695.123670</ele>
        <time>2021-11-17T01:56:34.479Z</time>
      </trkpt>
      <trkpt lat="47.432621" lon="7.975362">
        <ele>697.721479</ele>
        <time>2021-11-17T01:56:48.867Z</time>
      </trkpt>
      <trkpt lat="47.432600" lon="7.975672">
        <ele>700.517953</ele>
        <time>2021-11-17T01:56:59.866Z</time>
      </trkpt>
      <trkpt lat="47.432583" lon="7.975764">
        <ele>701.373999</ele>
        <time>2021-11-17T01:57:03.920Z</time>
      </trkpt>
      <trkpt lat="47.432536" lon="7.975879">
        <ele>702.580007</ele>
        <time>2021-11-17T01:57:13.531Z</time>
      </trkpt>
      <trkpt lat="47.432376" lon="7.976074">
        <ele>705.331554</ele>
        <time>2021-11-17T01:57:25.018Z</time>
      </trkpt>
      <trkpt lat="47.432203" lon="7.976081">
        <ele>707.627971</ele>
        <time>2021-11-17T01:57:40.417Z</time>
      </trkpt>
      <trkpt lat="47.432098" lon="7.976005">
        <ele>709.179273</ele>
        <time>2021-11-17T01:57:47.378Z</time>
      </trkpt>
      <trkpt lat="47.431996" lon="7.975831">
        <ele>711.245953</ele>
        <time>2021-11-17T01:57:58.361Z</time>
      </trkpt>
      <trkpt lat="47.431773" lon="7.975449">
        <ele>715.815161</ele>
        <time>2021-11-17T01:58:23.957Z</time>
      </trkpt>
      <trkpt lat="47.431648" lon="7.975443">
        <ele>717.500686</ele>
        <time>2021-11-17T01:58:35.230Z</time>
      </trkpt>
      <trkpt lat="47.431567" lon="7.975556">
        <ele>719.001688</ele>
        <time>2021-11-17T01:58:42.001Z</time>
      </trkpt>
      <trkpt lat="47.431696" lon="7.976161">
        <ele>724.784885</ele>
        <time>2021-11-17T01:59:14.861Z</time>
      </trkpt>
      <trkpt lat="47.431738" lon="7.976680">
        <ele>729.550256</ele>
        <time>2021-11-17T01:59:38.372Z</time>
      </trkpt>
      <trkpt lat="47.431600" lon="7.977440">
        <ele>736.724321</ele>
        <time>2021-11-17T02:00:12.011Z</time>
      </trkpt>
      <trkpt lat="47.431606" lon="7.978215">
        <ele>741.466492</ele>
        <time>2021-11-17T02:00:43.638Z</time>
      </trkpt>
      <trkpt lat="47.431692" lon="7.978805">
        <ele>744.949620</ele>
        <time>2021-11-17T02:01:05.429Z</time>
      </trkpt>
      <trkpt lat="47.432006" lon="7.980108">
        <ele>752.876175</ele>
        <time>2021-11-17T02:01:43.642Z</time>
      </trkpt>
      <trkpt lat="47.432096" lon="7.980282">
        <ele>753.592813</ele>
        <time>2021-11-17T02:01:50.923Z</time>
      </trkpt>
      <trkpt lat="47.432171" lon="7.980388">
        <ele>754.094668</ele>
        <time>2021-11-17T02:01:53.859Z</time>
      </trkpt>
      <trkpt lat="47.432724" lon="7.981066">
        <ele>757.569476</ele>
        <time>2021-11-17T02:02:18.304Z</time>
      </trkpt>
      <trkpt lat="47.433139" lon="7.981160">
        <ele>759.600084</ele>
        <time>2021-11-17T02:02:30.968Z</time>
      </trkpt>
      <trkpt lat="47.433235" lon="7.981249">
        <ele>760.148147</ele>
        <time>2021-11-17T02:02:34.076Z</time>
      </trkpt>
      <trkpt lat="47.433244" lon="7.981277">
        <ele>760.249571</ele>
        <time>2021-11-17T02:02:35.188Z</time>
      </trkpt>
      <trkpt lat="47.433251" lon="7.981321">
        <ele>760.397453</ele>
        <time>2021-11-17T02:02:37.083Z</time>
      </trkpt>
      <trkpt lat="47.433227" lon="7.981456">
        <ele>760.854132</ele>
        <time>2021-11-17T02:02:41.046Z</time>
      </trkpt>
      <trkpt lat="47.433123" lon="7.981545">
        <ele>761.435339</ele>
        <time>2021-11-17T02:02:43.593Z</time>
      </trkpt>
      <trkpt lat="47.432188" lon="7.981293">
        <ele>765.053715</ele>
        <time>2021-11-17T02:03:13.318Z</time>
      </trkpt>
      <trkpt lat="47.432020" lon="7.981325">
        <ele>765.696040</ele>
        <time>2021-11-17T02:03:16.827Z</time>
      </trkpt>
      <trkpt lat="47.431915" lon="7.981428">
        <ele>766.173890</ele>
        <time>2021-11-17T02:03:21.348Z</time>
      </trkpt>
      <trkpt lat="47.431876" lon="7.981495">
        <ele>766.400626</ele>
        <time>2021-11-17T02:03:24.302Z</time>
      </trkpt>
      <trkpt lat="47.431857" lon="7.981543">
        <ele>766.543285</ele>
        <time>2021-11-17T02:03:25.360Z</time>
      </trkpt>
      <trkpt lat="47.431828" lon="7.981811">
        <ele>767.239491</ele>
        <time>2021-11-17T02:03:29.451Z</time>
      </trkpt>
      <trkpt lat="47.431888" lon="7.982446">
        <ele>769.204598</ele>
        <time>2021-11-17T02:03:41.528Z</time>
      </trkpt>
      <trkpt lat="47.431877" lon="7.982519">
        <ele>769.505878</ele>
        <time>2021-11-17T02:03:43.877Z</time>
      </trkpt>
      <trkpt lat="47.431868" lon="7.982566">
        <ele>769.702652</ele>
        <time>2021-11-17T02:03:45.084Z</time>
      </trkpt>
      <trkpt lat="47.431846" lon="7.982640">
        <ele>770.028272</ele>
        <time>2021-11-17T02:03:46.407Z</time>
      </trkpt>
      <trkpt lat="47.431777" lon="7.982815">
        <ele>770.844250</ele>
        <time>2021-11-17T02:03:49.491Z</time>
      </trkpt>
      <trkpt lat="47.431599" lon="7.983256">
        <ele>772.912982</ele>
        <time>2021-11-17T02:04:00.501Z</time>
      </trkpt>
      <trkpt lat="47.431475" lon="7.983571">
        <ele>774.381149</ele>
        <time>2021-11-17T02:04:10.451Z</time>
      </trkpt>
      <trkpt lat="47.431322" lon="7.983937">
        <ele>776.114360</ele>
        <time>2021-11-17T02:04:23.811Z</time>
      </trkpt>
      <trkpt lat="47.431170" lon="7.984115">
        <ele>777.269136</ele>
        <time>2021-11-17T02:04:34.858Z</time>
      </trkpt>
      <trkpt lat="47.430499" lon="7.984297">
        <ele>780.598452</ele>
        <time>2021-11-17T02:05:06.455Z</time>
      </trkpt>
      <trkpt lat="47.430461" lon="7.984320">
        <ele>780.764962</ele>
        <time>2021-11-17T02:05:10.152Z</time>
      </trkpt>
      <trkpt lat="47.430267" lon="7.984456">
        <ele>781.635633</ele>
        <time>2021-11-17T02:05:14.303Z</time>
      </trkpt>
      <trkpt lat="47.430233" lon="7.984472">
        <ele>781.780324</ele>
        <time>2021-11-17T02:05:16.401Z</time>
      </trkpt>
      <trkpt lat="47.430199" lon="7.984483">
        <ele>781.921461</ele>
        <time>2021-11-17T02:05:20.148Z</time>
      </trkpt>
      <trkpt lat="47.429895" lon="7.984539">
        <ele>783.163747</ele>
        <time>2021-11-17T02:05:25.751Z</time>
      </trkpt>
      <trkpt lat="47.429731" lon="7.984658">
        <ele>783.904584</ele>
        <time>2021-11-17T02:05:36.080Z</time>
      </trkpt>
      <trkpt lat="47.429305" lon="7.985346">
        <ele>786.083916</ele>
        <time>2021-11-17T02:05:48.814Z</time>
      </trkpt>
      <trkpt lat="47.429235" lon="7.985450">
        <ele>785.363937</ele>
        <time>2021-11-17T02:05:50.447Z</time>
      </trkpt>
      <trkpt lat="47.429168" lon="7.985548">
        <ele>784.680161</ele>
        <time>2021-11-17T02:05:51.254Z</time>
      </trkpt>
      <trkpt lat="47.429061" lon="7.985728">
        <ele>783.504207</ele>
        <time>2021-11-17T02:05:56.368Z</time>
      </trkpt>
      <trkpt lat="47.428926" lon="7.985968">
        <ele>781.972408</ele>
        <time>2021-11-17T02:05:58.180Z</time>
      </trkpt>
      <trkpt lat="47.428874" lon="7.986072">
        <ele>781.337739</ele>
        <time>2021-11-17T02:05:59.992Z</time>
      </trkpt>
      <trkpt lat="47.428790" lon="7.986347">
        <ele>779.856940</ele>
        <time>2021-11-17T02:06:01.709Z</time>
      </trkpt>
      <trkpt lat="47.428769" lon="7.986424">
        <ele>779.449498</ele>
        <time>2021-11-17T02:06:02.187Z</time>
      </trkpt>
      <trkpt lat="47.428725" lon="7.986611">
        <ele>778.477841</ele>
        <time>2021-11-17T02:06:03.468Z</time>
      </trkpt>
      <trkpt lat="47.428672" lon="7.986831">
        <ele>777.331739</ele>
        <time>2021-11-17T02:06:04.792Z</time>
      </trkpt>
      <trkpt lat="47.428661" lon="7.986875">
        <ele>777.101529</ele>
        <time>2021-11-17T02:06:05.054Z</time>
      </trkpt>
      <trkpt lat="47.428625" lon="7.987034">
        <ele>776.278667</ele>
        <time>2021-11-17T02:06:06.137Z</time>
      </trkpt>
      <trkpt lat="47.428588" lon="7.987191">
        <ele>775.462749</ele>
        <time>2021-11-17T02:06:07.074Z</time>
      </trkpt>
      <trkpt lat="47.428505" lon="7.987540">
        <ele>773.647216</ele>
        <time>2021-11-17T02:06:09.225Z</time>
      </trkpt>
      <trkpt lat="47.428340" lon="7.988229">
        <ele>769.517754</ele>
        <time>2021-11-17T02:06:13.399Z</time>
      </trkpt>
      <trkpt lat="47.428196" lon="7.988995">
        <ele>764.958472</ele>
        <time>2021-11-17T02:06:18.058Z</time>
      </trkpt>
      <trkpt lat="47.428133" lon="7.989996">
        <ele>759.193168</ele>
        <time>2021-11-17T02:06:24.060Z</time>
      </trkpt>
      <trkpt lat="47.428136" lon="7.990193">
        <ele>758.063129</ele>
        <time>2021-11-17T02:06:25.289Z</time>
      </trkpt>
      <trkpt lat="47.428160" lon="7.991096">
        <ele>758.999686</ele>
        <time>2021-11-17T02:06:32.082Z</time>
      </trkpt>
      <trkpt lat="47.428177" lon="7.991445">
        <ele>759.376605</ele>
        <time>2021-11-17T02:06:36.333Z</time>
      </trkpt>
      <trkpt lat="47.428179" lon="7.991656">
        <ele>759.603919</ele>
        <time>2021-11-17T02:06:38.786Z</time>
      </trkpt>
      <trkpt lat="47.428254" lon="7.991766">
        <ele>759.772152</ele>
        <time>2021-11-17T02:06:44.345Z</time>
      </trkpt>
      <trkpt lat="47.428414" lon="7.992310">
        <ele>760.411137</ele>
        <time>2021-11-17T02:07:00.172Z</time>
      </trkpt>
      <trkpt lat="47.428545" lon="7.992620">
        <ele>760.804865</ele>
        <time>2021-11-17T02:07:10.409Z</time>
      </trkpt>
      <trkpt lat="47.428609" lon="7.992725">
        <ele>761.120078</ele>
        <time>2021-11-17T02:07:16.677Z</time>
      </trkpt>
      <trkpt lat="47.428872" lon="7.993171">
        <ele>763.457723</ele>
        <time>2021-11-17T02:07:35.906Z</time>
      </trkpt>
      <trkpt lat="47.428914" lon="7.993346">
        <ele>764.191377</ele>
        <time>2021-11-17T02:07:40.501Z</time>
      </trkpt>
      <trkpt lat="47.428982" lon="7.993609">
        <ele>765.303806</ele>
        <time>2021-11-17T02:08:03.662Z</time>
      </trkpt>
      <trkpt lat="47.429023" lon="7.993750">
        <ele>765.910184</ele>
        <time>2021-11-17T02:08:14.153Z</time>
      </trkpt>
      <trkpt lat="47.429200" lon="7.994283">
        <ele>768.256122</ele>
        <time>2021-11-17T02:08:32.914Z</time>
      </trkpt>
      <trkpt lat="47.429436" lon="7.994888">
        <ele>771.015397</ele>
        <time>2021-11-17T02:08:52.988Z</time>
      </trkpt>
      <trkpt lat="47.430262" lon="7.996571">
        <ele>770.443810</ele>
        <time>2021-11-17T02:09:28.665Z</time>
      </trkpt>
      <trkpt lat="47.430351" lon="7.996950">
        <ele>770.250083</ele>
        <time>2021-11-17T02:09:32.174Z</time>
      </trkpt>
      <trkpt lat="47.430695" lon="7.997762">
        <ele>763.851151</ele>
        <time>2021-11-17T02:09:40.560Z</time>
      </trkpt>
      <trkpt lat="47.430754" lon="7.998487">
        <ele>757.144471</ele>
        <time>2021-11-17T02:09:46.368Z</time>
      </trkpt>
      <trkpt lat="47.430837" lon="7.998796">
        <ele>754.090967</ele>
        <time>2021-11-17T02:09:49.108Z</time>
      </trkpt>
      <trkpt lat="47.430871" lon="7.998792">
        <ele>753.627900</ele>
        <time>2021-11-17T02:09:49.533Z</time>
      </trkpt>
      <trkpt lat="47.431729" lon="7.999779">
        <ele>738.090282</ele>
        <time>2021-11-17T02:10:01.997Z</time>
      </trkpt>
      <trkpt lat="47.432207" lon="7.999836">
        <ele>730.838528</ele>
        <time>2021-11-17T02:10:07.532Z</time>
      </trkpt>
      <trkpt lat="47.432590" lon="8.000023">
        <ele>724.739113</ele>
        <time>2021-11-17T02:10:12.285Z</time>
      </trkpt>
      <trkpt lat="47.432723" lon="7.999986">
        <ele>722.692595</ele>
        <time>2021-11-17T02:10:13.948Z</time>
      </trkpt>
      <trkpt lat="47.432779" lon="7.999924">
        <ele>721.634603</ele>
        <time>2021-11-17T02:10:14.749Z</time>
      </trkpt>
      <trkpt lat="47.432795" lon="7.999877">
        <ele>721.096378</ele>
        <time>2021-11-17T02:10:16.252Z</time>
      </trkpt>
      <trkpt lat="47.432800" lon="7.999710">
        <ele>719.386415</ele>
        <time>2021-11-17T02:10:17.685Z</time>
      </trkpt>
      <trkpt lat="47.432711" lon="7.999579">
        <ele>718.156811</ele>
        <time>2021-11-17T02:10:19.279Z</time>
      </trkpt>
      <trkpt lat="47.432038" lon="7.999152">
        <ele>714.416285</ele>
        <time>2021-11-17T02:10:28.635Z</time>
      </trkpt>
      <trkpt lat="47.431832" lon="7.998870">
        <ele>712.982315</ele>
        <time>2021-11-17T02:10:32.432Z</time>
      </trkpt>
      <trkpt lat="47.431532" lon="7.997555">
        <ele>708.634162</ele>
        <time>2021-11-17T02:10:48.012Z</time>
      </trkpt>
      <trkpt lat="47.431597" lon="7.997001">
        <ele>707.463202</ele>
        <time>2021-11-17T02:10:54.106Z</time>
      </trkpt>
      <trkpt lat="47.431548" lon="7.996186">
        <ele>705.759230</ele>
        <time>2021-11-17T02:11:02.274Z</time>
      </trkpt>
      <trkpt lat="47.431867" lon="7.995322">
        <ele>703.623387</ele>
        <time>2021-11-17T02:11:11.625Z</time>
      </trkpt>
      <trkpt lat="47.431896" lon="7.995243">
        <ele>703.189662</ele>
        <time>2021-11-17T02:11:12.409Z</time>
      </trkpt>
      <trkpt lat="47.431883" lon="7.995109">
        <ele>702.536431</ele>
        <time>2021-11-17T02:11:13.673Z</time>
      </trkpt>
      <trkpt lat="47.431675" lon="7.994712">
        <ele>700.113318</ele>
        <time>2021-11-17T02:11:18.221Z</time>
      </trkpt>
      <trkpt lat="47.431693" lon="7.994331">
        <ele>698.270323</ele>
        <time>2021-11-17T02:11:21.619Z</time>
      </trkpt>
      <trkpt lat="47.431545" lon="7.993723">
        <ele>695.152244</ele>
        <time>2021-11-17T02:11:27.214Z</time>
      </trkpt>
      <trkpt lat="47.431646" lon="7.993435">
        <ele>693.586845</ele>
        <time>2021-11-17T02:11:29.993Z</time>
      </trkpt>
      <trkpt lat="47.431636" lon="7.993008">
        <ele>691.525119</ele>
        <time>2021-11-17T02:11:33.565Z</time>
      </trkpt>
      <trkpt lat="47.431745" lon="7.992462">
        <ele>686.668758</ele>
        <time>2021-11-17T02:11:38.236Z</time>
      </trkpt>
      <trkpt lat="47.431715" lon="7.991907">
        <ele>681.365914</ele>
        <time>2021-11-17T02:11:42.700Z</time>
      </trkpt>
      <trkpt lat="47.431781" lon="7.991624">
        <ele>678.514848</ele>
        <time>2021-11-17T02:11:45.040Z</time>
      </trkpt>
      <trkpt lat="47.431807" lon="7.991195">
        <ele>674.412556</ele>
        <time>2021-11-17T02:11:48.452Z</time>
      </trkpt>
      <trkpt lat="47.431849" lon="7.991042">
        <ele>672.839926</ele>
        <time>2021-11-17T02:11:49.747Z</time>
      </trkpt>
      <trkpt lat="47.432014" lon="7.990930">
        <ele>670.283611</ele>
        <time>2021-11-17T02:11:51.874Z</time>
      </trkpt>
      <trkpt lat="47.432730" lon="7.990940">
        <ele>659.336059</ele>
        <time>2021-11-17T02:12:00.177Z</time>
      </trkpt>
      <trkpt lat="47.432862" lon="7.990958">
        <ele>657.171294</ele>
        <time>2021-11-17T02:12:01.686Z</time>
      </trkpt>
      <trkpt lat="47.433093" lon="7.991063">
        <ele>653.224672</ele>
        <time>2021-11-17T02:12:04.487Z</time>
      </trkpt>
      <trkpt lat="47.433486" lon="7.991450">
        <ele>645.513318</ele>
        <time>2021-11-17T02:12:09.931Z</time>
      </trkpt>
      <trkpt lat="47.433577" lon="7.991627">
        <ele>643.057425</ele>
        <time>2021-11-17T02:12:11.704Z</time>
      </trkpt>
      <trkpt lat="47.433697" lon="7.992106">
        <ele>637.414880</ele>
        <time>2021-11-17T02:12:15.714Z</time>
      </trkpt>
      <trkpt lat="47.433800" lon="7.992349">
        <ele>635.008002</ele>
        <time>2021-11-17T02:12:17.943Z</time>
      </trkpt>
      <trkpt lat="47.433893" lon="7.992538">
        <ele>633.408184</ele>
        <time>2021-11-17T02:12:19.885Z</time>
      </trkpt>
      <trkpt lat="47.434475" lon="7.993337">
        <ele>625.370872</ele>
        <time>2021-11-17T02:12:29.541Z</time>
      </trkpt>
      <trkpt lat="47.434498" lon="7.993384">
        <ele>624.973792</ele>
        <time>2021-11-17T02:12:29.987Z</time>
      </trkpt>
      <trkpt lat="47.434517" lon="7.993423">
        <ele>624.644803</ele>
        <time>2021-11-17T02:12:30.372Z</time>
      </trkpt>
      <trkpt lat="47.434778" lon="7.994164">
        <ele>618.926178</ele>
        <time>2021-11-17T02:12:37.528Z</time>
      </trkpt>
      <trkpt lat="47.435007" lon="7.994534">
        <ele>616.959903</ele>
        <time>2021-11-17T02:12:42.192Z</time>
      </trkpt>
      <trkpt lat="47.435087" lon="7.994626">
        <ele>616.523383</ele>
        <time>2021-11-17T02:12:43.643Z</time>
      </trkpt>
      <trkpt lat="47.435148" lon="7.994665">
        <ele>616.237149</ele>
        <time>2021-11-17T02:12:44.444Z</time>
      </trkpt>
      <trkpt lat="47.435761" lon="7.994738">
        <ele>613.588487</ele>
        <time>2021-11-17T02:12:53.279Z</time>
      </trkpt>
      <trkpt lat="47.436819" lon="7.994505">
        <ele>608.678172</ele>
        <time>2021-11-17T02:13:08.769Z</time>
      </trkpt>
      <trkpt lat="47.437035" lon="7.994598">
        <ele>607.486307</ele>
        <time>2021-11-17T02:13:11.873Z</time>
      </trkpt>
      <trkpt lat="47.437262" lon="7.995105">
        <ele>605.307544</ele>
        <time>2021-11-17T02:13:17.418Z</time>
      </trkpt>
      <trkpt lat="47.437678" lon="7.996368">
        <ele>600.135349</ele>
        <time>2021-11-17T02:13:29.767Z</time>
      </trkpt>
      <trkpt lat="47.438510" lon="7.997500">
        <ele>592.480487</ele>
        <time>2021-11-17T02:13:44.259Z</time>
      </trkpt>
      <trkpt lat="47.439124" lon="7.998093">
        <ele>587.357251</ele>
        <time>2021-11-17T02:13:53.837Z</time>
      </trkpt>
      <trkpt lat="47.439884" lon="7.999206">
        <ele>579.053930</ele>
        <time>2021-11-17T02:14:07.338Z</time>
      </trkpt>
      <trkpt lat="47.440106" lon="7.999618">
        <ele>576.288432</ele>
        <time>2021-11-17T02:14:11.837Z</time>
      </trkpt>
      <trkpt lat="47.440162" lon="7.999686">
        <ele>575.725942</ele>
        <time>2021-11-17T02:14:12.708Z</time>
      </trkpt>
      <trkpt lat="47.440170" lon="7.999793">
        <ele>575.160771</ele>
        <time>2021-11-17T02:14:13.574Z</time>
      </trkpt>
      <trkpt lat="47.440163" lon="7.999985">
        <ele>574.098443</ele>
        <time>2021-11-17T02:14:15.353Z</time>
      </trkpt>
      <trkpt lat="47.440161" lon="8.000045">
        <ele>573.748448</ele>
        <time>2021-11-17T02:14:15.889Z</time>
      </trkpt>
      <trkpt lat="47.440055" lon="8.000261">
        <ele>572.193638</ele>
        <time>2021-11-17T02:14:18.062Z</time>
      </trkpt>
      <trkpt lat="47.439709" lon="8.000501">
        <ele>568.901480</ele>
        <time>2021-11-17T02:14:22.827Z</time>
      </trkpt>
      <trkpt lat="47.439615" lon="8.000630">
        <ele>567.796708</ele>
        <time>2021-11-17T02:14:24.536Z</time>
      </trkpt>
      <trkpt lat="47.439579" lon="8.000910">
        <ele>566.136149</ele>
        <time>2021-11-17T02:14:26.861Z</time>
      </trkpt>
      <trkpt lat="47.439651" lon="8.001095">
        <ele>564.892594</ele>
        <time>2021-11-17T02:14:28.720Z</time>
      </trkpt>
      <trkpt lat="47.439763" lon="8.001184">
        <ele>563.797305</ele>
        <time>2021-11-17T02:14:30.303Z</time>
      </trkpt>
      <trkpt lat="47.439885" lon="8.001187">
        <ele>562.746249</ele>
        <time>2021-11-17T02:14:31.722Z</time>
      </trkpt>
      <trkpt lat="47.440779" lon="8.000622">
        <ele>556.070634</ele>
        <time>2021-11-17T02:14:44.070Z</time>
      </trkpt>
      <trkpt lat="47.440928" lon="8.000707">
        <ele>555.185220</ele>
        <time>2021-11-17T02:14:46.116Z</time>
      </trkpt>
      <trkpt lat="47.440983" lon="8.000989">
        <ele>554.084720</ele>
        <time>2021-11-17T02:14:48.767Z</time>
      </trkpt>
      <trkpt lat="47.440973" lon="8.001046">
        <ele>553.863914</ele>
        <time>2021-11-17T02:14:49.231Z</time>
      </trkpt>
      <trkpt lat="47.440934" lon="8.001116">
        <ele>553.523848</ele>
        <time>2021-11-17T02:14:50.111Z</time>
      </trkpt>
      <trkpt lat="47.440889" lon="8.001173">
        <ele>553.195333</ele>
        <time>2021-11-17T02:14:51.012Z</time>
      </trkpt>
      <trkpt lat="47.440817" lon="8.001236">
        <ele>552.731499</ele>
        <time>2021-11-17T02:14:52.256Z</time>
      </trkpt>
      <trkpt lat="47.440724" lon="8.001286">
        <ele>552.182876</ele>
        <time>2021-11-17T02:14:53.574Z</time>
      </trkpt>
      <trkpt lat="47.440611" lon="8.001421">
        <ele>551.377444</ele>
        <time>2021-11-17T02:14:55.505Z</time>
      </trkpt>
      <trkpt lat="47.440357" lon="8.001986">
        <ele>549.049301</ele>
        <time>2021-11-17T02:15:02.469Z</time>
      </trkpt>
      <trkpt lat="47.440103" lon="8.002791">
        <ele>547.868827</ele>
        <time>2021-11-17T02:15:11.518Z</time>
      </trkpt>
      <trkpt lat="47.440170" lon="8.003186">
        <ele>547.327643</ele>
        <time>2021-11-17T02:15:16.524Z</time>
      </trkpt>
      <trkpt lat="47.440324" lon="8.003509">
        <ele>546.802468</ele>
        <time>2021-11-17T02:15:20.712Z</time>
      </trkpt>
      <trkpt lat="47.440347" lon="8.003607">
        <ele>546.664615</ele>
        <time>2021-11-17T02:15:23.823Z</time>
      </trkpt>
      <trkpt lat="47.440672" lon="8.003743">
        <ele>546.000961</ele>
        <time>2021-11-17T02:15:27.726Z</time>
      </trkpt>
      <trkpt lat="47.440795" lon="8.003822">
        <ele>545.737469</ele>
        <time>2021-11-17T02:15:29.235Z</time>
      </trkpt>
      <trkpt lat="47.441014" lon="8.004119">
        <ele>544.630933</ele>
        <time>2021-11-17T02:15:32.378Z</time>
      </trkpt>
      <trkpt lat="47.442153" lon="8.004775">
        <ele>539.614857</ele>
        <time>2021-11-17T02:15:44.256Z</time>
      </trkpt>
      <trkpt lat="47.442229" lon="8.004822">
        <ele>539.276804</ele>
        <time>2021-11-17T02:15:44.994Z</time>
      </trkpt>
      <trkpt lat="47.442402" lon="8.004930">
        <ele>538.506199</ele>
        <time>2021-11-17T02:15:46.732Z</time>
      </trkpt>
      <trkpt lat="47.443232" lon="8.005444">
        <ele>532.814083</ele>
        <time>2021-11-17T02:15:54.992Z</time>
      </trkpt>
      <trkpt lat="47.443294" lon="8.005455">
        <ele>532.408863</ele>
        <time>2021-11-17T02:15:55.536Z</time>
      </trkpt>
      <trkpt lat="47.443419" lon="8.005513">
        <ele>531.558703</ele>
        <time>2021-11-17T02:15:56.718Z</time>
      </trkpt>
      <trkpt lat="47.443766" lon="8.005803">
        <ele>528.972130</ele>
        <time>2021-11-17T02:16:00.296Z</time>
      </trkpt>
      <trkpt lat="47.444148" lon="8.005966">
        <ele>526.356440</ele>
        <time>2021-11-17T02:16:03.902Z</time>
      </trkpt>
      <trkpt lat="47.444306" lon="8.005966">
        <ele>525.137696</ele>
        <time>2021-11-17T02:16:05.300Z</time>
      </trkpt>
      <trkpt lat="47.444551" lon="8.005966">
        <ele>523.247871</ele>
        <time>2021-11-17T02:16:07.503Z</time>
      </trkpt>
      <trkpt lat="47.445643" lon="8.006150">
        <ele>514.770139</ele>
        <time>2021-11-17T02:16:17.300Z</time>
      </trkpt>
      <trkpt lat="47.446457" lon="8.006422">
        <ele>507.031269</ele>
        <time>2021-11-17T02:16:24.549Z</time>
      </trkpt>
      <trkpt lat="47.446848" lon="8.006659">
        <ele>502.801672</ele>
        <time>2021-11-17T02:16:28.187Z</time>
      </trkpt>
      <trkpt lat="47.447095" lon="8.006732">
        <ele>500.280528</ele>
        <time>2021-11-17T02:16:30.350Z</time>
      </trkpt>
      <trkpt lat="47.447140" lon="8.006763">
        <ele>499.783639</ele>
        <time>2021-11-17T02:16:30.761Z</time>
      </trkpt>
      <trkpt lat="47.447193" lon="8.006801">
        <ele>499.194087</ele>
        <time>2021-11-17T02:16:31.275Z</time>
      </trkpt>
      <trkpt lat="47.447295" lon="8.006889">
        <ele>498.012096</ele>
        <time>2021-11-17T02:16:32.266Z</time>
      </trkpt>
      <trkpt lat="47.447384" lon="8.006945">
        <ele>497.043993</ele>
        <time>2021-11-17T02:16:33.132Z</time>
      </trkpt>
      <trkpt lat="47.447518" lon="8.006960">
        <ele>495.698936</ele>
        <time>2021-11-17T02:16:34.745Z</time>
      </trkpt>
      <trkpt lat="47.447595" lon="8.006957">
        <ele>494.927968</ele>
        <time>2021-11-17T02:16:35.676Z</time>
      </trkpt>
      <trkpt lat="47.447673" lon="8.006915">
        <ele>494.135245</ele>
        <time>2021-11-17T02:16:36.651Z</time>
      </trkpt>
      <trkpt lat="47.447905" lon="8.006767">
        <ele>491.765122</ele>
        <time>2021-11-17T02:16:39.786Z</time>
      </trkpt>
      <trkpt lat="47.447934" lon="8.006735">
        <ele>491.425700</ele>
        <time>2021-11-17T02:16:40.193Z</time>
      </trkpt>
      <trkpt lat="47.447950" lon="8.006701">
        <ele>491.162938</ele>
        <time>2021-11-17T02:16:40.523Z</time>
      </trkpt>
      <trkpt lat="47.448016" lon="8.006516">
        <ele>489.836088</ele>
        <time>2021-11-17T02:16:42.342Z</time>
      </trkpt>
      <trkpt lat="47.448123" lon="8.006272">
        <ele>487.991318</ele>
        <time>2021-11-17T02:16:44.676Z</time>
      </trkpt>
      <trkpt lat="47.448259" lon="8.006303">
        <ele>486.700521</ele>
        <time>2021-11-17T02:16:46.383Z</time>
      </trkpt>
      <trkpt lat="47.448363" lon="8.006302">
        <ele>485.724942</ele>
        <time>2021-11-17T02:16:47.624Z</time>
      </trkpt>
      <trkpt lat="47.448721" lon="8.006306">
        <ele>482.366675</ele>
        <time>2021-11-17T02:16:52.034Z</time>
      </trkpt>
      <trkpt lat="47.448780" lon="8.006310">
        <ele>481.812652</ele>
        <time>2021-11-17T02:16:52.785Z</time>
      </trkpt>
      <trkpt lat="47.448906" lon="8.006317">
        <ele>480.629893</ele>
        <time>2021-11-17T02:16:54.281Z</time>
      </trkpt>
      <trkpt lat="47.449537" lon="8.006184">
        <ele>476.541422</ele>
        <time>2021-11-17T02:17:02.648Z</time>
      </trkpt>
      <trkpt lat="47.449781" lon="8.006118">
        <ele>475.597271</ele>
        <time>2021-11-17T02:17:05.999Z</time>
      </trkpt>
      <trkpt lat="47.449830" lon="8.006105">
        <ele>475.407784</ele>
        <time>2021-11-17T02:17:06.691Z</time>
      </trkpt>
      <trkpt lat="47.450083" lon="8.005922">
        <ele>474.335758</ele>
        <time>2021-11-17T02:17:10.664Z</time>
      </trkpt>
      <trkpt lat="47.450192" lon="8.005840">
        <ele>473.870269</ele>
        <time>2021-11-17T02:17:12.471Z</time>
      </trkpt>
      <trkpt lat="47.450283" lon="8.005770">
        <ele>473.479834</ele>
        <time>2021-11-17T02:17:14.043Z</time>
      </trkpt>
      <trkpt lat="47.450309" lon="8.005751">
        <ele>473.369446</ele>
        <time>2021-11-17T02:17:14.424Z</time>
      </trkpt>
      <trkpt lat="47.450828" lon="8.005583">
        <ele>471.347194</ele>
        <time>2021-11-17T02:17:22.929Z</time>
      </trkpt>
      <trkpt lat="47.451038" lon="8.005524">
        <ele>470.824329</ele>
        <time>2021-11-17T02:17:26.382Z</time>
      </trkpt>
      <trkpt lat="47.451389" lon="8.005475">
        <ele>470.344645</ele>
        <time>2021-11-17T02:17:32.680Z</time>
      </trkpt>
      <trkpt lat="47.451483" lon="8.005518">
        <ele>470.210773</ele>
        <time>2021-11-17T02:17:34.799Z</time>
      </trkpt>
      <trkpt lat="47.451552" lon="8.005574">
        <ele>470.103684</ele>
        <time>2021-11-17T02:17:36.161Z</time>
      </trkpt>
      <trkpt lat="47.451617" lon="8.005651">
        <ele>469.990372</ele>
        <time>2021-11-17T02:17:37.728Z</time>
      </trkpt>
      <trkpt lat="47.451680" lon="8.005745">
        <ele>469.868607</ele>
        <time>2021-11-17T02:17:39.048Z</time>
      </trkpt>
      <trkpt lat="47.451777" lon="8.005920">
        <ele>469.660424</ele>
        <time>2021-11-17T02:17:41.648Z</time>
      </trkpt>
      <trkpt lat="47.451940" lon="8.005767">
        <ele>469.397749</ele>
        <time>2021-11-17T02:17:43.937Z</time>
      </trkpt>
      <trkpt lat="47.452304" lon="8.005472">
        <ele>468.833008</ele>
        <time>2021-11-17T02:17:48.734Z</time>
      </trkpt>
      <trkpt lat="47.452429" lon="8.005350">
        <ele>468.629237</ele>
        <time>2021-11-17T02:17:50.447Z</time>
      </trkpt>
      <trkpt lat="47.452544" lon="8.005204">
        <ele>468.281087</ele>
        <time>2021-11-17T02:17:52.283Z</time>
      </trkpt>
      <trkpt lat="47.452632" lon="8.005093">
        <ele>467.930960</ele>
        <time>2021-11-17T02:17:53.582Z</time>
      </trkpt>
      <trkpt lat="47.452707" lon="8.004978">
        <ele>467.603914</ele>
        <time>2021-11-17T02:17:54.819Z</time>
      </trkpt>
      <trkpt lat="47.452809" lon="8.004791">
        <ele>467.112120</ele>
        <time>2021-11-17T02:17:56.697Z</time>
      </trkpt>
      <trkpt lat="47.452892" lon="8.004632">
        <ele>466.700955</ele>
        <time>2021-11-17T02:17:58.194Z</time>
      </trkpt>
      <trkpt lat="47.453556" lon="8.003416">
        <ele>463.501619</ele>
        <time>2021-11-17T02:18:08.636Z</time>
      </trkpt>
      <trkpt lat="47.453815" lon="8.002812">
        <ele>461.941756</ele>
        <time>2021-11-17T02:18:13.309Z</time>
      </trkpt>
      <trkpt lat="47.453903" lon="8.002487">
        <ele>461.160121</ele>
        <time>2021-11-17T02:18:15.650Z</time>
      </trkpt>
      <trkpt lat="47.453932" lon="8.002372">
        <ele>460.886089</ele>
        <time>2021-11-17T02:18:16.457Z</time>
      </trkpt>
      <trkpt lat="47.453983" lon="8.002195">
        <ele>460.456522</ele>
        <time>2021-11-17T02:18:17.789Z</time>
      </trkpt>
      <trkpt lat="47.454027" lon="8.002090">
        <ele>460.180724</ele>
        <time>2021-11-17T02:18:18.627Z</time>
      </trkpt>
      <trkpt lat="47.454148" lon="8.001857">
        <ele>459.524794</ele>
        <time>2021-11-17T02:18:20.622Z</time>
      </trkpt>
      <trkpt lat="47.454570" lon="8.001381">
        <ele>457.772374</ele>
        <time>2021-11-17T02:18:26.215Z</time>
      </trkpt>
      <trkpt lat="47.455049" lon="8.001106">
        <ele>456.292094</ele>
        <time>2021-11-17T02:18:31.489Z</time>
      </trkpt>
      <trkpt lat="47.455740" lon="8.000709">
        <ele>454.334891</ele>
        <time>2021-11-17T02:18:39.295Z</time>
      </trkpt>
      <trkpt lat="47.456267" lon="8.000301">
        <ele>452.764397</ele>
        <time>2021-11-17T02:18:45.716Z</time>
      </trkpt>
      <trkpt lat="47.456363" lon="8.000219">
        <ele>452.471703</ele>
        <time>2021-11-17T02:18:46.715Z</time>
      </trkpt>
      <trkpt lat="47.457107" lon="7.999528">
        <ele>449.614943</ele>
        <time>2021-11-17T02:18:56.113Z</time>
      </trkpt>
      <trkpt lat="47.457133" lon="7.999505">
        <ele>449.515892</ele>
        <time>2021-11-17T02:18:56.398Z</time>
      </trkpt>
      <trkpt lat="47.457243" lon="7.999411">
        <ele>449.100540</ele>
        <time>2021-11-17T02:18:57.557Z</time>
      </trkpt>
      <trkpt lat="47.458410" lon="7.998658">
        <ele>445.225977</ele>
        <time>2021-11-17T02:19:10.259Z</time>
      </trkpt>
      <trkpt lat="47.458509" lon="7.998633">
        <ele>444.957199</ele>
        <time>2021-11-17T02:19:11.205Z</time>
      </trkpt>
      <trkpt lat="47.458630" lon="7.998609">
        <ele>444.630480</ele>
        <time>2021-11-17T02:19:12.481Z</time>
      </trkpt>
      <trkpt lat="47.459032" lon="7.998632">
        <ele>443.553843</ele>
        <time>2021-11-17T02:19:16.846Z</time>
      </trkpt>
      <trkpt lat="47.459150" lon="7.998657">
        <ele>443.234829</ele>
        <time>2021-11-17T02:19:18.143Z</time>
      </trkpt>
      <trkpt lat="47.459205" lon="7.998672">
        <ele>443.085156</ele>
        <time>2021-11-17T02:19:18.708Z</time>
      </trkpt>
      <trkpt lat="47.459283" lon="7.998698">
        <ele>442.871177</ele>
        <time>2021-11-17T02:19:19.557Z</time>
      </trkpt>
      <trkpt lat="47.459773" lon="7.998935">
        <ele>441.580894</ele>
        <time>2021-11-17T02:19:25.314Z</time>
      </trkpt>
      <trkpt lat="47.459866" lon="7.998934">
        <ele>441.432733</ele>
        <time>2021-11-17T02:19:26.322Z</time>
      </trkpt>
      <trkpt lat="47.459934" lon="7.998910">
        <ele>441.321361</ele>
        <time>2021-11-17T02:19:27.042Z</time>
      </trkpt>
      <trkpt lat="47.460218" lon="7.998745">
        <ele>440.835270</ele>
        <time>2021-11-17T02:19:30.541Z</time>
      </trkpt>
      <trkpt lat="47.460488" lon="7.998555">
        <ele>440.358933</ele>
        <time>2021-11-17T02:19:33.988Z</time>
      </trkpt>
      <trkpt lat="47.460660" lon="7.998379">
        <ele>440.025740</ele>
        <time>2021-11-17T02:19:36.328Z</time>
      </trkpt>
      <trkpt lat="47.460836" lon="7.998161">
        <ele>439.660024</ele>
        <time>2021-11-17T02:19:38.986Z</time>
      </trkpt>
      <trkpt lat="47.460857" lon="7.998139">
        <ele>439.619028</ele>
        <time>2021-11-17T02:19:39.241Z</time>
      </trkpt>
      <trkpt lat="47.460924" lon="7.998094">
        <ele>439.501801</ele>
        <time>2021-11-17T02:19:40.174Z</time>
      </trkpt>
      <trkpt lat="47.460942" lon="7.998082">
        <ele>439.470347</ele>
        <time>2021-11-17T02:19:40.428Z</time>
      </trkpt>
      <trkpt lat="47.460985" lon="7.998062">
        <ele>439.398537</ele>
        <time>2021-11-17T02:19:40.979Z</time>
      </trkpt>
      <trkpt lat="47.461062" lon="7.998039">
        <ele>439.273393</ele>
        <time>2021-11-17T02:19:41.823Z</time>
      </trkpt>
      <trkpt lat="47.461149" lon="7.998038">
        <ele>439.134790</ele>
        <time>2021-11-17T02:19:42.892Z</time>
      </trkpt>
      <trkpt lat="47.461284" lon="7.998059">
        <ele>438.918537</ele>
        <time>2021-11-17T02:19:44.397Z</time>
      </trkpt>
      <trkpt lat="47.461438" lon="7.998032">
        <ele>438.774978</ele>
        <time>2021-11-17T02:19:46.245Z</time>
      </trkpt>
      <trkpt lat="47.461502" lon="7.997997">
        <ele>438.730382</ele>
        <time>2021-11-17T02:19:47.091Z</time>
      </trkpt>
      <trkpt lat="47.461552" lon="7.997973">
        <ele>438.696026</ele>
        <time>2021-11-17T02:19:47.630Z</time>
      </trkpt>
      <trkpt lat="47.461927" lon="7.997527">
        <ele>438.381536</ele>
        <time>2021-11-17T02:19:53.938Z</time>
      </trkpt>
      <trkpt lat="47.462299" lon="7.997298">
        <ele>438.118194</ele>
        <time>2021-11-17T02:19:59.234Z</time>
      </trkpt>
      <trkpt lat="47.462350" lon="7.997293">
        <ele>438.084789</ele>
        <time>2021-11-17T02:19:59.830Z</time>
      </trkpt>
      <trkpt lat="47.462598" lon="7.997285">
        <ele>437.922666</ele>
        <time>2021-11-17T02:20:03.069Z</time>
      </trkpt>
      <trkpt lat="47.462705" lon="7.997285">
        <ele>437.852735</ele>
        <time>2021-11-17T02:20:04.470Z</time>
      </trkpt>
      <trkpt lat="47.463019" lon="7.997210">
        <ele>437.676681</ele>
        <time>2021-11-17T02:20:08.913Z</time>
      </trkpt>
      <trkpt lat="47.463107" lon="7.997172">
        <ele>437.688485</ele>
        <time>2021-11-17T02:20:10.219Z</time>
      </trkpt>
      <trkpt lat="47.463326" lon="7.997031">
        <ele>437.719238</ele>
        <time>2021-11-17T02:20:14.212Z</time>
      </trkpt>
      <trkpt lat="47.463691" lon="7.996686">
        <ele>437.775012</ele>
        <time>2021-11-17T02:20:21.092Z</time>
      </trkpt>
      <trkpt lat="47.464131" lon="7.996368">
        <ele>437.838067</ele>
        <time>2021-11-17T02:20:29.563Z</time>
      </trkpt>
      <trkpt lat="47.464249" lon="7.996297">
        <ele>437.854470</ele>
        <time>2021-11-17T02:20:31.750Z</time>
      </trkpt>
      <trkpt lat="47.465105" lon="7.995610">
        <ele>437.434750</ele>
        <time>2021-11-17T02:20:45.101Z</time>
      </trkpt>
      <trkpt lat="47.465119" lon="7.995595">
        <ele>437.421183</ele>
        <time>2021-11-17T02:20:45.588Z</time>
      </trkpt>
      <trkpt lat="47.465230" lon="7.995479">
        <ele>437.314524</ele>
        <time>2021-11-17T02:20:47.193Z</time>
      </trkpt>
      <trkpt lat="47.465613" lon="7.995104">
        <ele>436.954064</ele>
        <time>2021-11-17T02:20:52.906Z</time>
      </trkpt>
      <trkpt lat="47.465772" lon="7.994973">
        <ele>436.811231</ele>
        <time>2021-11-17T02:20:55.136Z</time>
      </trkpt>
      <trkpt lat="47.465905" lon="7.994879">
        <ele>436.695551</ele>
        <time>2021-11-17T02:20:56.805Z</time>
      </trkpt>
      <trkpt lat="47.466146" lon="7.994726">
        <ele>436.488731</ele>
        <time>2021-11-17T02:20:59.817Z</time>
      </trkpt>
      <trkpt lat="47.467154" lon="7.994150">
        <ele>435.150742</ele>
        <time>2021-11-17T02:21:12.464Z</time>
      </trkpt>
      <trkpt lat="47.467579" lon="7.993896">
        <ele>434.583183</ele>
        <time>2021-11-17T02:21:17.869Z</time>
      </trkpt>
      <trkpt lat="47.467721" lon="7.993817">
        <ele>434.395335</ele>
        <time>2021-11-17T02:21:19.846Z</time>
      </trkpt>
      <trkpt lat="47.468089" lon="7.993593">
        <ele>434.047227</ele>
        <time>2021-11-17T02:21:24.872Z</time>
      </trkpt>
      <trkpt lat="47.468375" lon="7.993424">
        <ele>433.818326</ele>
        <time>2021-11-17T02:21:28.686Z</time>
      </trkpt>
      <trkpt lat="47.469362" lon="7.992773">
        <ele>433.015126</ele>
        <time>2021-11-17T02:21:42.536Z</time>
      </trkpt>
      <trkpt lat="47.469747" lon="7.992506">
        <ele>432.800613</ele>
        <time>2021-11-17T02:21:47.991Z</time>
      </trkpt>
      <trkpt lat="47.470033" lon="7.992305">
        <ele>432.669852</ele>
        <time>2021-11-17T02:21:52.202Z</time>
      </trkpt>
      <trkpt lat="47.470749" lon="7.991887">
        <ele>432.351973</ele>
        <time>2021-11-17T02:22:03.383Z</time>
      </trkpt>
      <trkpt lat="47.471617" lon="7.991535">
        <ele>430.825428</ele>
        <time>2021-11-17T02:22:15.281Z</time>
      </trkpt>
      <trkpt lat="47.471790" lon="7.991484">
        <ele>430.341133</ele>
        <time>2021-11-17T02:22:17.339Z</time>
      </trkpt>
      <trkpt lat="47.472461" lon="7.991354">
        <ele>428.483228</ele>
        <time>2021-11-17T02:22:24.286Z</time>
      </trkpt>
      <trkpt lat="47.472796" lon="7.991311">
        <ele>427.560057</ele>
        <time>2021-11-17T02:22:27.521Z</time>
      </trkpt>
      <trkpt lat="47.473097" lon="7.991272">
        <ele>425.938817</ele>
        <time>2021-11-17T02:22:30.322Z</time>
      </trkpt>
      <trkpt lat="47.473566" lon="7.991189">
        <ele>422.653186</ele>
        <time>2021-11-17T02:22:34.626Z</time>
      </trkpt>
      <trkpt lat="47.474869" lon="7.990750">
        <ele>413.595205</ele>
        <time>2021-11-17T02:22:46.443Z</time>
      </trkpt>
      <trkpt lat="47.475384" lon="7.990744">
        <ele>410.630908</ele>
        <time>2021-11-17T02:22:51.084Z</time>
      </trkpt>
      <trkpt lat="47.475752" lon="7.990844">
        <ele>408.477367</ele>
        <time>2021-11-17T02:22:54.534Z</time>
      </trkpt>
      <trkpt lat="47.476495" lon="7.991119">
        <ele>404.249078</ele>
        <time>2021-11-17T02:23:01.857Z</time>
      </trkpt>
      <trkpt lat="47.476858" lon="7.991285">
        <ele>403.316866</ele>
        <time>2021-11-17T02:23:05.705Z</time>
      </trkpt>
      <trkpt lat="47.477212" lon="7.991382">
        <ele>402.433538</ele>
        <time>2021-11-17T02:23:09.513Z</time>
      </trkpt>
      <trkpt lat="47.477593" lon="7.991455">
        <ele>401.490929</ele>
        <time>2021-11-17T02:23:13.751Z</time>
      </trkpt>
      <trkpt lat="47.478975" lon="7.991551">
        <ele>398.830743</ele>
        <time>2021-11-17T02:23:29.528Z</time>
      </trkpt>
      <trkpt lat="47.479142" lon="7.991563">
        <ele>398.581324</ele>
        <time>2021-11-17T02:23:31.481Z</time>
      </trkpt>
      <trkpt lat="47.479179" lon="7.991567">
        <ele>398.525982</ele>
        <time>2021-11-17T02:23:31.932Z</time>
      </trkpt>
      <trkpt lat="47.479254" lon="7.991575">
        <ele>398.413809</ele>
        <time>2021-11-17T02:23:32.781Z</time>
      </trkpt>
      <trkpt lat="47.480402" lon="7.991988">
        <ele>396.635881</ele>
        <time>2021-11-17T02:23:46.530Z</time>
      </trkpt>
      <trkpt lat="47.480657" lon="7.991988">
        <ele>396.246207</ele>
        <time>2021-11-17T02:23:49.368Z</time>
      </trkpt>
      <trkpt lat="47.481096" lon="7.991850">
        <ele>395.560383</ele>
        <time>2021-11-17T02:23:54.571Z</time>
      </trkpt>
      <trkpt lat="47.481496" lon="7.991617">
        <ele>394.903469</ele>
        <time>2021-11-17T02:23:59.539Z</time>
      </trkpt>
      <trkpt lat="47.481732" lon="7.991480">
        <ele>394.516043</ele>
        <time>2021-11-17T02:24:02.393Z</time>
      </trkpt>
      <trkpt lat="47.482259" lon="7.991194">
        <ele>393.657289</ele>
        <time>2021-11-17T02:24:08.759Z</time>
      </trkpt>
      <trkpt lat="47.482688" lon="7.991067">
        <ele>392.987971</ele>
        <time>2021-11-17T02:24:13.756Z</time>
      </trkpt>
      <trkpt lat="47.482872" lon="7.991012">
        <ele>392.700790</ele>
        <time>2021-11-17T02:24:15.930Z</time>
      </trkpt>
      <trkpt lat="47.483009" lon="7.990995">
        <ele>392.490462</ele>
        <time>2021-11-17T02:24:17.458Z</time>
      </trkpt>
      <trkpt lat="47.483302" lon="7.991001">
        <ele>392.042169</ele>
        <time>2021-11-17T02:24:20.874Z</time>
      </trkpt>
      <trkpt lat="47.483794" lon="7.991174">
        <ele>391.354079</ele>
        <time>2021-11-17T02:24:26.810Z</time>
      </trkpt>
      <trkpt lat="47.484004" lon="7.991285">
        <ele>391.069296</ele>
        <time>2021-11-17T02:24:29.496Z</time>
      </trkpt>
      <trkpt lat="47.484196" lon="7.991380">
        <ele>390.810751</ele>
        <time>2021-11-17T02:24:31.815Z</time>
      </trkpt>
      <trkpt lat="47.484597" lon="7.991511">
        <ele>390.286309</ele>
        <time>2021-11-17T02:24:36.626Z</time>
      </trkpt>
      <trkpt lat="47.485528" lon="7.991512">
        <ele>389.191787</ele>
        <time>2021-11-17T02:24:47.798Z</time>
      </trkpt>
      <trkpt lat="47.485635" lon="7.991515">
        <ele>389.088043</ele>
        <time>2021-11-17T02:24:49.013Z</time>
      </trkpt>
      <trkpt lat="47.485898" lon="7.991482">
        <ele>388.832176</ele>
        <time>2021-11-17T02:24:52.341Z</time>
      </trkpt>
      <trkpt lat="47.485991" lon="7.991440">
        <ele>388.737917</ele>
        <time>2021-11-17T02:24:53.493Z</time>
      </trkpt>
      <trkpt lat="47.486063" lon="7.991399">
        <ele>388.663131</ele>
        <time>2021-11-17T02:24:54.449Z</time>
      </trkpt>
      <trkpt lat="47.486129" lon="7.991440">
        <ele>388.593742</ele>
        <time>2021-11-17T02:24:55.724Z</time>
      </trkpt>
      <trkpt lat="47.486180" lon="7.991499">
        <ele>388.530988</ele>
        <time>2021-11-17T02:24:56.940Z</time>
      </trkpt>
      <trkpt lat="47.486260" lon="7.991591">
        <ele>388.432771</ele>
        <time>2021-11-17T02:24:58.711Z</time>
      </trkpt>
      <trkpt lat="47.486334" lon="7.991668">
        <ele>388.345077</ele>
        <time>2021-11-17T02:25:00.244Z</time>
      </trkpt>
      <trkpt lat="47.486383" lon="7.991737">
        <ele>388.279507</ele>
        <time>2021-11-17T02:25:01.455Z</time>
      </trkpt>
      <trkpt lat="47.487213" lon="7.993014">
        <ele>387.005317</ele>
        <time>2021-11-17T02:25:22.581Z</time>
      </trkpt>
      <trkpt lat="47.487633" lon="7.993524">
        <ele>386.383285</ele>
        <time>2021-11-17T02:25:31.922Z</time>
      </trkpt>
      <trkpt lat="47.488246" lon="7.994102">
        <ele>385.480343</ele>
        <time>2021-11-17T02:25:43.973Z</time>
      </trkpt>
      <trkpt lat="47.488959" lon="7.994757">
        <ele>384.017270</ele>
        <time>2021-11-17T02:25:57.510Z</time>
      </trkpt>
      <trkpt lat="47.489284" lon="7.995053">
        <ele>383.351960</ele>
        <time>2021-11-17T02:26:03.635Z</time>
      </trkpt>
      <trkpt lat="47.490780" lon="7.996642">
        <ele>379.868176</ele>
        <time>2021-11-17T02:26:32.954Z</time>
      </trkpt>
      <trkpt lat="47.491680" lon="7.997343">
        <ele>377.750760</ele>
        <time>2021-11-17T02:26:48.764Z</time>
      </trkpt>
      <trkpt lat="47.491748" lon="7.997367">
        <ele>377.598388</ele>
        <time>2021-11-17T02:26:49.727Z</time>
      </trkpt>
      <trkpt lat="47.491854" lon="7.997405">
        <ele>377.360665</ele>
        <time>2021-11-17T02:26:51.453Z</time>
      </trkpt>
      <trkpt lat="47.491886" lon="7.997365">
        <ele>377.269367</ele>
        <time>2021-11-17T02:26:52.083Z</time>
      </trkpt>
      <trkpt lat="47.492317" lon="7.997637">
        <ele>376.248097</ele>
        <time>2021-11-17T02:26:57.158Z</time>
      </trkpt>
      <trkpt lat="47.492477" lon="7.997747">
        <ele>375.863564</ele>
        <time>2021-11-17T02:26:59.035Z</time>
      </trkpt>
      <trkpt lat="47.492617" lon="7.997908">
        <ele>375.477120</ele>
        <time>2021-11-17T02:27:00.994Z</time>
      </trkpt>
      <trkpt lat="47.492722" lon="7.998050">
        <ele>375.167099</ele>
        <time>2021-11-17T02:27:02.518Z</time>
      </trkpt>
      <trkpt lat="47.492747" lon="7.998084">
        <ele>375.116959</ele>
        <time>2021-11-17T02:27:02.912Z</time>
      </trkpt>
      <trkpt lat="47.492877" lon="7.998257">
        <ele>374.935573</ele>
        <time>2021-11-17T02:27:04.834Z</time>
      </trkpt>
      <trkpt lat="47.493144" lon="7.998645">
        <ele>374.547341</ele>
        <time>2021-11-17T02:27:08.964Z</time>
      </trkpt>
      <trkpt lat="47.493296" lon="7.998833">
        <ele>374.341818</ele>
        <time>2021-11-17T02:27:11.473Z</time>
      </trkpt>
      <trkpt lat="47.493358" lon="7.998911">
        <ele>374.257391</ele>
        <time>2021-11-17T02:27:12.404Z</time>
      </trkpt>
      <trkpt lat="47.493433" lon="7.998996">
        <ele>374.159383</ele>
        <time>2021-11-17T02:27:13.607Z</time>
      </trkpt>
      <trkpt lat="47.493502" lon="7.999071">
        <ele>374.070561</ele>
        <time>2021-11-17T02:27:14.748Z</time>
      </trkpt>
      <trkpt lat="47.493603" lon="7.999152">
        <ele>373.951375</ele>
        <time>2021-11-17T02:27:16.186Z</time>
      </trkpt>
      <trkpt lat="47.493742" lon="7.999216">
        <ele>373.800342</ele>
        <time>2021-11-17T02:27:18.010Z</time>
      </trkpt>
      <trkpt lat="47.493937" lon="7.999285">
        <ele>373.592323</ele>
        <time>2021-11-17T02:27:20.703Z</time>
      </trkpt>
      <trkpt lat="47.493961" lon="7.999292">
        <ele>373.566943</ele>
        <time>2021-11-17T02:27:20.976Z</time>
      </trkpt>
      <trkpt lat="47.494272" lon="7.999381">
        <ele>373.259793</ele>
        <time>2021-11-17T02:27:25.478Z</time>
      </trkpt>
      <trkpt lat="47.494489" lon="7.999417">
        <ele>373.175603</ele>
        <time>2021-11-17T02:27:28.749Z</time>
      </trkpt>
      <trkpt lat="47.494643" lon="7.999430">
        <ele>373.116131</ele>
        <time>2021-11-17T02:27:31.172Z</time>
      </trkpt>
      <trkpt lat="47.494812" lon="7.999457">
        <ele>373.050594</ele>
        <time>2021-11-17T02:27:33.584Z</time>
      </trkpt>
      <trkpt lat="47.495197" lon="7.999589">
        <ele>372.898225</ele>
        <time>2021-11-17T02:27:39.142Z</time>
      </trkpt>
      <trkpt lat="47.495430" lon="7.999752">
        <ele>372.798861</ele>
        <time>2021-11-17T02:27:42.652Z</time>
      </trkpt>
      <trkpt lat="47.495718" lon="8.000005">
        <ele>372.669736</ele>
        <time>2021-11-17T02:27:47.162Z</time>
      </trkpt>
      <trkpt lat="47.496011" lon="8.000286">
        <ele>372.422095</ele>
        <time>2021-11-17T02:27:51.620Z</time>
      </trkpt>
      <trkpt lat="47.496234" lon="8.000584">
        <ele>372.008032</ele>
        <time>2021-11-17T02:27:55.271Z</time>
      </trkpt>
      <trkpt lat="47.496272" lon="8.000651">
        <ele>371.926578</ele>
        <time>2021-11-17T02:27:56.157Z</time>
      </trkpt>
      <trkpt lat="47.496280" lon="8.000664">
        <ele>371.910205</ele>
        <time>2021-11-17T02:27:56.295Z</time>
      </trkpt>
      <trkpt lat="47.496429" lon="8.000925">
        <ele>371.592039</ele>
        <time>2021-11-17T02:27:58.941Z</time>
      </trkpt>
      <trkpt lat="47.496517" lon="8.001077">
        <ele>371.405652</ele>
        <time>2021-11-17T02:28:00.693Z</time>
      </trkpt>
      <trkpt lat="47.496533" lon="8.001104">
        <ele>371.372211</ele>
        <time>2021-11-17T02:28:00.927Z</time>
      </trkpt>
      <trkpt lat="47.496535" lon="8.001108">
        <ele>371.367578</ele>
        <time>2021-11-17T02:28:00.966Z</time>
      </trkpt>
      <trkpt lat="47.496585" lon="8.001187">
        <ele>371.266784</ele>
        <time>2021-11-17T02:28:01.797Z</time>
      </trkpt>
      <trkpt lat="47.496820" lon="8.001547">
        <ele>370.800677</ele>
        <time>2021-11-17T02:28:05.676Z</time>
      </trkpt>
      <trkpt lat="47.496861" lon="8.001608">
        <ele>370.720559</ele>
        <time>2021-11-17T02:28:06.316Z</time>
      </trkpt>
      <trkpt lat="47.496908" lon="8.001680">
        <ele>370.627337</ele>
        <time>2021-11-17T02:28:07.072Z</time>
      </trkpt>
      <trkpt lat="47.496932" lon="8.001715">
        <ele>370.580904</ele>
        <time>2021-11-17T02:28:07.437Z</time>
      </trkpt>
      <trkpt lat="47.497207" lon="8.002132">
        <ele>370.016817</ele>
        <time>2021-11-17T02:28:11.742Z</time>
      </trkpt>
      <trkpt lat="47.497264" lon="8.002219">
        <ele>369.864769</ele>
        <time>2021-11-17T02:28:12.701Z</time>
      </trkpt>
      <trkpt lat="47.497307" lon="8.002279">
        <ele>369.755028</ele>
        <time>2021-11-17T02:28:13.314Z</time>
      </trkpt>
      <trkpt lat="47.497390" lon="8.002409">
        <ele>369.530619</ele>
        <time>2021-11-17T02:28:14.691Z</time>
      </trkpt>
      <trkpt lat="47.497540" lon="8.002634">
        <ele>369.134033</ele>
        <time>2021-11-17T02:28:17.065Z</time>
      </trkpt>
      <trkpt lat="47.497607" lon="8.002710">
        <ele>368.977278</ele>
        <time>2021-11-17T02:28:18.014Z</time>
      </trkpt>
      <trkpt lat="47.497951" lon="8.003094">
        <ele>368.177159</ele>
        <time>2021-11-17T02:28:22.844Z</time>
      </trkpt>
      <trkpt lat="47.498072" lon="8.003250">
        <ele>367.879173</ele>
        <time>2021-11-17T02:28:24.575Z</time>
      </trkpt>
      <trkpt lat="47.498166" lon="8.003383">
        <ele>367.637689</ele>
        <time>2021-11-17T02:28:26.054Z</time>
      </trkpt>
      <trkpt lat="47.498213" lon="8.003454">
        <ele>367.512979</ele>
        <time>2021-11-17T02:28:26.821Z</time>
      </trkpt>
      <trkpt lat="47.498450" lon="8.003874">
        <ele>366.826420</ele>
        <time>2021-11-17T02:28:30.940Z</time>
      </trkpt>
      <trkpt lat="47.498698" lon="8.004313">
        <ele>366.277415</ele>
        <time>2021-11-17T02:28:35.196Z</time>
      </trkpt>
      <trkpt lat="47.498753" lon="8.004410">
        <ele>366.159729</ele>
        <time>2021-11-17T02:28:36.145Z</time>
      </trkpt>
      <trkpt lat="47.498898" lon="8.004636">
        <ele>365.870082</ele>
        <time>2021-11-17T02:28:38.538Z</time>
      </trkpt>
      <trkpt lat="47.498965" lon="8.004710">
        <ele>365.755089</ele>
        <time>2021-11-17T02:28:39.534Z</time>
      </trkpt>
      <trkpt lat="47.499012" lon="8.004762">
        <ele>365.674372</ele>
        <time>2021-11-17T02:28:40.224Z</time>
      </trkpt>
      <trkpt lat="47.499183" lon="8.004875">
        <ele>365.416774</ele>
        <time>2021-11-17T02:28:42.467Z</time>
      </trkpt>
      <trkpt lat="47.499409" lon="8.005000">
        <ele>365.084902</ele>
        <time>2021-11-17T02:28:45.405Z</time>
      </trkpt>
      <trkpt lat="47.499496" lon="8.005059">
        <ele>364.953265</ele>
        <time>2021-11-17T02:28:46.778Z</time>
      </trkpt>
      <trkpt lat="47.499523" lon="8.005078">
        <ele>364.912141</ele>
        <time>2021-11-17T02:28:47.043Z</time>
      </trkpt>
      <trkpt lat="47.499770" lon="8.005268">
        <ele>364.529236</ele>
        <time>2021-11-17T02:28:50.715Z</time>
      </trkpt>
      <trkpt lat="47.499856" lon="8.005338">
        <ele>364.394231</ele>
        <time>2021-11-17T02:28:51.704Z</time>
      </trkpt>
      <trkpt lat="47.499880" lon="8.005358">
        <ele>364.356345</ele>
        <time>2021-11-17T02:28:52.040Z</time>
      </trkpt>
      <trkpt lat="47.499991" lon="8.005468">
        <ele>364.233537</ele>
        <time>2021-11-17T02:28:53.733Z</time>
      </trkpt>
      <trkpt lat="47.500009" lon="8.005488">
        <ele>364.219221</ele>
        <time>2021-11-17T02:28:54.056Z</time>
      </trkpt>
      <trkpt lat="47.500207" lon="8.005727">
        <ele>364.056702</ele>
        <time>2021-11-17T02:28:57.124Z</time>
      </trkpt>
      <trkpt lat="47.500252" lon="8.005784">
        <ele>364.019028</ele>
        <time>2021-11-17T02:28:58.006Z</time>
      </trkpt>
      <trkpt lat="47.500310" lon="8.005852">
        <ele>363.971963</ele>
        <time>2021-11-17T02:28:59.031Z</time>
      </trkpt>
      <trkpt lat="47.500540" lon="8.006079">
        <ele>363.796119</ele>
        <time>2021-11-17T02:29:02.505Z</time>
      </trkpt>
      <trkpt lat="47.500647" lon="8.006180">
        <ele>363.715394</ele>
        <time>2021-11-17T02:29:04.662Z</time>
      </trkpt>
      <trkpt lat="47.500764" lon="8.006290">
        <ele>363.627226</ele>
        <time>2021-11-17T02:29:06.189Z</time>
      </trkpt>
      <trkpt lat="47.500997" lon="8.006551">
        <ele>363.441358</ele>
        <time>2021-11-17T02:29:10.379Z</time>
      </trkpt>
      <trkpt lat="47.501276" lon="8.006911">
        <ele>363.205922</ele>
        <time>2021-11-17T02:29:15.632Z</time>
      </trkpt>
      <trkpt lat="47.501293" lon="8.006936">
        <ele>363.190679</ele>
        <time>2021-11-17T02:29:15.957Z</time>
      </trkpt>
      <trkpt lat="47.501496" lon="8.007247">
        <ele>362.940455</ele>
        <time>2021-11-17T02:29:19.910Z</time>
      </trkpt>
      <trkpt lat="47.501537" lon="8.007308">
        <ele>362.886099</ele>
        <time>2021-11-17T02:29:20.654Z</time>
      </trkpt>
      <trkpt lat="47.501943" lon="8.008353">
        <ele>362.124599</ele>
        <time>2021-11-17T02:29:31.127Z</time>
      </trkpt>
      <trkpt lat="47.502062" lon="8.008650">
        <ele>361.906471</ele>
        <time>2021-11-17T02:29:34.067Z</time>
      </trkpt>
      <trkpt lat="47.502158" lon="8.008808">
        <ele>361.772235</ele>
        <time>2021-11-17T02:29:35.774Z</time>
      </trkpt>
      <trkpt lat="47.502267" lon="8.008979">
        <ele>361.623722</ele>
        <time>2021-11-17T02:29:37.606Z</time>
      </trkpt>
      <trkpt lat="47.502773" lon="8.009928">
        <ele>360.222369</ele>
        <time>2021-11-17T02:29:46.586Z</time>
      </trkpt>
      <trkpt lat="47.502959" lon="8.010415">
        <ele>359.493390</ele>
        <time>2021-11-17T02:29:50.720Z</time>
      </trkpt>
      <trkpt lat="47.503207" lon="8.011279">
        <ele>358.270152</ele>
        <time>2021-11-17T02:29:57.634Z</time>
      </trkpt>
      <trkpt lat="47.503268" lon="8.011479">
        <ele>357.985229</ele>
        <time>2021-11-17T02:29:59.335Z</time>
      </trkpt>
      <trkpt lat="47.503325" lon="8.011662">
        <ele>357.763836</ele>
        <time>2021-11-17T02:30:00.799Z</time>
      </trkpt>
      <trkpt lat="47.503561" lon="8.012433">
        <ele>356.833887</ele>
        <time>2021-11-17T02:30:07.092Z</time>
      </trkpt>
      <trkpt lat="47.503675" lon="8.012805">
        <ele>356.385108</ele>
        <time>2021-11-17T02:30:10.080Z</time>
      </trkpt>
      <trkpt lat="47.503759" lon="8.013139">
        <ele>355.993559</ele>
        <time>2021-11-17T02:30:12.792Z</time>
      </trkpt>
      <trkpt lat="47.503818" lon="8.013443">
        <ele>355.646065</ele>
        <time>2021-11-17T02:30:15.355Z</time>
      </trkpt>
      <trkpt lat="47.503854" lon="8.013721">
        <ele>355.335084</ele>
        <time>2021-11-17T02:30:17.722Z</time>
      </trkpt>
      <trkpt lat="47.503922" lon="8.014235">
        <ele>354.933746</ele>
        <time>2021-11-17T02:30:22.371Z</time>
      </trkpt>
      <trkpt lat="47.504106" lon="8.015484">
        <ele>354.328612</ele>
        <time>2021-11-17T02:30:33.028Z</time>
      </trkpt>
      <trkpt lat="47.504246" lon="8.016448">
        <ele>353.861859</ele>
        <time>2021-11-17T02:30:41.646Z</time>
      </trkpt>
      <trkpt lat="47.504281" lon="8.016674">
        <ele>353.809864</ele>
        <time>2021-11-17T02:30:43.692Z</time>
      </trkpt>
      <trkpt lat="47.504393" lon="8.017182">
        <ele>353.832189</ele>
        <time>2021-11-17T02:30:49.017Z</time>
      </trkpt>
      <trkpt lat="47.504413" lon="8.017267">
        <ele>353.835949</ele>
        <time>2021-11-17T02:30:50.054Z</time>
      </trkpt>
      <trkpt lat="47.504588" lon="8.017986">
        <ele>353.867878</ele>
        <time>2021-11-17T02:30:58.539Z</time>
      </trkpt>
      <trkpt lat="47.504626" lon="8.018141">
        <ele>353.874766</ele>
        <time>2021-11-17T02:31:00.217Z</time>
      </trkpt>
      <trkpt lat="47.504819" lon="8.018974">
        <ele>353.911557</ele>
        <time>2021-11-17T02:31:09.025Z</time>
      </trkpt>
      <trkpt lat="47.504877" lon="8.019222">
        <ele>353.845288</ele>
        <time>2021-11-17T02:31:11.889Z</time>
      </trkpt>
      <trkpt lat="47.504998" lon="8.019743">
        <ele>353.577182</ele>
        <time>2021-11-17T02:31:17.846Z</time>
      </trkpt>
      <trkpt lat="47.505207" lon="8.020615">
        <ele>353.126914</ele>
        <time>2021-11-17T02:31:26.247Z</time>
      </trkpt>
      <trkpt lat="47.505291" lon="8.020961">
        <ele>352.947994</ele>
        <time>2021-11-17T02:31:29.335Z</time>
      </trkpt>
      <trkpt lat="47.505467" lon="8.021389">
        <ele>352.704157</ele>
        <time>2021-11-17T02:31:33.192Z</time>
      </trkpt>
      <trkpt lat="47.505529" lon="8.021539">
        <ele>352.613396</ele>
        <time>2021-11-17T02:31:34.553Z</time>
      </trkpt>
      <trkpt lat="47.505600" lon="8.021664">
        <ele>352.338817</ele>
        <time>2021-11-17T02:31:35.694Z</time>
      </trkpt>
      <trkpt lat="47.505653" lon="8.021731">
        <ele>352.165354</ele>
        <time>2021-11-17T02:31:36.486Z</time>
      </trkpt>
      <trkpt lat="47.506220" lon="8.022129">
        <ele>350.603556</ele>
        <time>2021-11-17T02:31:43.218Z</time>
      </trkpt>
      <trkpt lat="47.506503" lon="8.022393">
        <ele>349.771022</ele>
        <time>2021-11-17T02:31:46.821Z</time>
      </trkpt>
      <trkpt lat="47.506535" lon="8.022414">
        <ele>349.683903</ele>
        <time>2021-11-17T02:31:47.141Z</time>
      </trkpt>
      <trkpt lat="47.506621" lon="8.022234">
        <ele>349.313234</ele>
        <time>2021-11-17T02:31:48.730Z</time>
      </trkpt>
      <trkpt lat="47.506655" lon="8.022123">
        <ele>349.108326</ele>
        <time>2021-11-17T02:31:49.597Z</time>
      </trkpt>
      <trkpt lat="47.506678" lon="8.022015">
        <ele>348.917942</ele>
        <time>2021-11-17T02:31:50.395Z</time>
      </trkpt>
      <trkpt lat="47.506735" lon="8.021861">
        <ele>348.622711</ele>
        <time>2021-11-17T02:31:51.562Z</time>
      </trkpt>
      <trkpt lat="47.506867" lon="8.021604">
        <ele>348.080244</ele>
        <time>2021-11-17T02:31:53.792Z</time>
      </trkpt>
      <trkpt lat="47.506910" lon="8.021529">
        <ele>347.915698</ele>
        <time>2021-11-17T02:31:54.423Z</time>
      </trkpt>
      <trkpt lat="47.506949" lon="8.021459">
        <ele>347.763923</ele>
        <time>2021-11-17T02:31:55.066Z</time>
      </trkpt>
      <trkpt lat="47.507007" lon="8.021362">
        <ele>347.547239</ele>
        <time>2021-11-17T02:31:55.958Z</time>
      </trkpt>
      <trkpt lat="47.507213" lon="8.021061">
        <ele>346.830517</ele>
        <time>2021-11-17T02:31:58.911Z</time>
      </trkpt>
      <trkpt lat="47.507466" lon="8.020697">
        <ele>345.956914</ele>
        <time>2021-11-17T02:32:02.546Z</time>
      </trkpt>
      <trkpt lat="47.507609" lon="8.020484">
        <ele>345.454600</ele>
        <time>2021-11-17T02:32:04.687Z</time>
      </trkpt>
      <trkpt lat="47.507666" lon="8.020400">
        <ele>345.255444</ele>
        <time>2021-11-17T02:32:05.549Z</time>
      </trkpt>
      <trkpt lat="47.507765" lon="8.020237">
        <ele>344.888796</ele>
        <time>2021-11-17T02:32:07.167Z</time>
      </trkpt>
      <trkpt lat="47.507863" lon="8.020075">
        <ele>344.525048</ele>
        <time>2021-11-17T02:32:08.744Z</time>
      </trkpt>
      <trkpt lat="47.507895" lon="8.020117">
        <ele>344.419151</ele>
        <time>2021-11-17T02:32:09.206Z</time>
      </trkpt>
      <trkpt lat="47.507995" lon="8.020296">
        <ele>344.030616</ele>
        <time>2021-11-17T02:32:10.987Z</time>
      </trkpt>
      <trkpt lat="47.508000" lon="8.020315">
        <ele>343.996509</ele>
        <time>2021-11-17T02:32:11.118Z</time>
      </trkpt>
      <trkpt lat="47.508039" lon="8.020467">
        <ele>343.724543</ele>
        <time>2021-11-17T02:32:12.322Z</time>
      </trkpt>
      <trkpt lat="47.508194" lon="8.021281">
        <ele>344.284209</ele>
        <time>2021-11-17T02:32:19.051Z</time>
      </trkpt>
      <trkpt lat="47.508213" lon="8.021364">
        <ele>344.347282</ele>
        <time>2021-11-17T02:32:19.870Z</time>
      </trkpt>
      <trkpt lat="47.508331" lon="8.021703">
        <ele>344.621752</ele>
        <time>2021-11-17T02:32:25.682Z</time>
      </trkpt>
      <trkpt lat="47.508453" lon="8.021990">
        <ele>344.865805</ele>
        <time>2021-11-17T02:32:30.120Z</time>
      </trkpt>
      <trkpt lat="47.508643" lon="8.022392">
        <ele>345.218918</ele>
        <time>2021-11-17T02:32:38.157Z</time>
      </trkpt>
      <trkpt lat="47.508786" lon="8.022604">
        <ele>345.434543</ele>
        <time>2021-11-17T02:32:44.306Z</time>
      </trkpt>
      <trkpt lat="47.508863" lon="8.022719">
        <ele>345.551080</ele>
        <time>2021-11-17T02:32:46.911Z</time>
      </trkpt>
      <trkpt lat="47.508958" lon="8.022838">
        <ele>345.752510</ele>
        <time>2021-11-17T02:32:51.197Z</time>
      </trkpt>
      <trkpt lat="47.509187" lon="8.023037">
        <ele>346.288393</ele>
        <time>2021-11-17T02:32:58.383Z</time>
      </trkpt>
      <trkpt lat="47.509313" lon="8.023129">
        <ele>346.571921</ele>
        <time>2021-11-17T02:33:02.949Z</time>
      </trkpt>
      <trkpt lat="47.509881" lon="8.023632">
        <ele>347.907633</ele>
        <time>2021-11-17T02:33:18.800Z</time>
      </trkpt>
      <trkpt lat="47.510365" lon="8.024216">
        <ele>349.167722</ele>
        <time>2021-11-17T02:33:32.014Z</time>
      </trkpt>
      <trkpt lat="47.510388" lon="8.024167">
        <ele>349.226245</ele>
        <time>2021-11-17T02:33:32.546Z</time>
      </trkpt>
      <trkpt lat="47.510638" lon="8.023374">
        <ele>348.243968</ele>
        <time>2021-11-17T02:33:44.100Z</time>
      </trkpt>
      <trkpt lat="47.510740" lon="8.023224">
        <ele>348.005059</ele>
        <time>2021-11-17T02:33:46.106Z</time>
      </trkpt>
      <trkpt lat="47.510935" lon="8.022959">
        <ele>347.565197</ele>
        <time>2021-11-17T02:33:50.608Z</time>
      </trkpt>
      <trkpt lat="47.512343" lon="8.021241">
        <ele>343.657399</ele>
        <time>2021-11-17T02:34:17.588Z</time>
      </trkpt>
      <trkpt lat="47.512778" lon="8.020828">
        <ele>342.359982</ele>
        <time>2021-11-17T02:34:25.790Z</time>
      </trkpt>
      <trkpt lat="47.513167" lon="8.020663">
        <ele>341.489077</ele>
        <time>2021-11-17T02:34:32.113Z</time>
      </trkpt>
      <trkpt lat="47.513370" lon="8.020582">
        <ele>341.158662</ele>
        <time>2021-11-17T02:34:35.370Z</time>
      </trkpt>
      <trkpt lat="47.513856" lon="8.020390">
        <ele>340.368146</ele>
        <time>2021-11-17T02:34:43.492Z</time>
      </trkpt>
      <trkpt lat="47.514214" lon="8.020312">
        <ele>339.799457</ele>
        <time>2021-11-17T02:34:49.479Z</time>
      </trkpt>
      <trkpt lat="47.514447" lon="8.020326">
        <ele>339.432975</ele>
        <time>2021-11-17T02:34:53.314Z</time>
      </trkpt>
      <trkpt lat="47.514678" lon="8.020338">
        <ele>339.069715</ele>
        <time>2021-11-17T02:34:57.283Z</time>
      </trkpt>
      <trkpt lat="47.514794" lon="8.020346">
        <ele>338.896947</ele>
        <time>2021-11-17T02:34:59.236Z</time>
      </trkpt>
      <trkpt lat="47.515011" lon="8.020364">
        <ele>338.741514</ele>
        <time>2021-11-17T02:35:03.040Z</time>
      </trkpt>
      <trkpt lat="47.515050" lon="8.020367">
        <ele>338.713585</ele>
        <time>2021-11-17T02:35:03.715Z</time>
      </trkpt>
      <trkpt lat="47.515452" lon="8.020407">
        <ele>338.425443</ele>
        <time>2021-11-17T02:35:10.755Z</time>
      </trkpt>
      <trkpt lat="47.515648" lon="8.020395">
        <ele>338.285152</ele>
        <time>2021-11-17T02:35:14.273Z</time>
      </trkpt>
      <trkpt lat="47.515685" lon="8.020393">
        <ele>338.258674</ele>
        <time>2021-11-17T02:35:14.924Z</time>
      </trkpt>
      <trkpt lat="47.516146" lon="8.020218">
        <ele>337.918322</ele>
        <time>2021-11-17T02:35:23.604Z</time>
      </trkpt>
      <trkpt lat="47.516172" lon="8.020201">
        <ele>337.897996</ele>
        <time>2021-11-17T02:35:24.101Z</time>
      </trkpt>
      <trkpt lat="47.516265" lon="8.020138">
        <ele>337.824856</ele>
        <time>2021-11-17T02:35:26.051Z</time>
      </trkpt>
      <trkpt lat="47.516418" lon="8.020012">
        <ele>337.699651</ele>
        <time>2021-11-17T02:35:29.493Z</time>
      </trkpt>
      <trkpt lat="47.516592" lon="8.019879">
        <ele>337.621700</ele>
        <time>2021-11-17T02:35:33.170Z</time>
      </trkpt>
      <trkpt lat="47.516606" lon="8.019868">
        <ele>337.622264</ele>
        <time>2021-11-17T02:35:33.594Z</time>
      </trkpt>
      <trkpt lat="47.516775" lon="8.019794">
        <ele>337.628528</ele>
        <time>2021-11-17T02:35:36.977Z</time>
      </trkpt>
      <trkpt lat="47.516798" lon="8.019784">
        <ele>337.629380</ele>
        <time>2021-11-17T02:35:37.440Z</time>
      </trkpt>
      <trkpt lat="47.517087" lon="8.019737">
        <ele>337.639715</ele>
        <time>2021-11-17T02:35:43.388Z</time>
      </trkpt>
      <trkpt lat="47.517205" lon="8.019691">
        <ele>337.644052</ele>
        <time>2021-11-17T02:35:45.503Z</time>
      </trkpt>
      <trkpt lat="47.517322" lon="8.019626">
        <ele>337.648494</ele>
        <time>2021-11-17T02:35:48.368Z</time>
      </trkpt>
      <trkpt lat="47.517543" lon="8.019449">
        <ele>337.657425</ele>
        <time>2021-11-17T02:35:53.289Z</time>
      </trkpt>
      <trkpt lat="47.517699" lon="8.019320">
        <ele>337.663777</ele>
        <time>2021-11-17T02:35:56.548Z</time>
      </trkpt>
      <trkpt lat="47.517787" lon="8.019247">
        <ele>337.667362</ele>
        <time>2021-11-17T02:35:57.904Z</time>
      </trkpt>
      <trkpt lat="47.517873" lon="8.019154">
        <ele>337.671148</ele>
        <time>2021-11-17T02:35:59.442Z</time>
      </trkpt>
      <trkpt lat="47.517945" lon="8.019080">
        <ele>337.674263</ele>
        <time>2021-11-17T02:36:01.298Z</time>
      </trkpt>
      <trkpt lat="47.518228" lon="8.018741">
        <ele>337.601963</ele>
        <time>2021-11-17T02:36:07.420Z</time>
      </trkpt>
      <trkpt lat="47.518485" lon="8.018258">
        <ele>337.337572</ele>
        <time>2021-11-17T02:36:13.633Z</time>
      </trkpt>
      <trkpt lat="47.518569" lon="8.018073">
        <ele>337.241721</ele>
        <time>2021-11-17T02:36:15.361Z</time>
      </trkpt>
      <trkpt lat="47.518733" lon="8.017694">
        <ele>337.048180</ele>
        <time>2021-11-17T02:36:19.301Z</time>
      </trkpt>
      <trkpt lat="47.518855" lon="8.017453">
        <ele>336.918678</ele>
        <time>2021-11-17T02:36:21.903Z</time>
      </trkpt>
      <trkpt lat="47.519079" lon="8.017167">
        <ele>336.730368</ele>
        <time>2021-11-17T02:36:25.383Z</time>
      </trkpt>
      <trkpt lat="47.519096" lon="8.017126">
        <ele>336.709682</ele>
        <time>2021-11-17T02:36:25.767Z</time>
      </trkpt>
      <trkpt lat="47.519107" lon="8.017079">
        <ele>336.688295</ele>
        <time>2021-11-17T02:36:26.201Z</time>
      </trkpt>
      <trkpt lat="47.519117" lon="8.017042">
        <ele>336.671159</ele>
        <time>2021-11-17T02:36:26.525Z</time>
      </trkpt>
      <trkpt lat="47.519123" lon="8.016537">
        <ele>336.402004</ele>
        <time>2021-11-17T02:36:30.581Z</time>
      </trkpt>
      <trkpt lat="47.519126" lon="8.016373">
        <ele>336.287581</ele>
        <time>2021-11-17T02:36:31.963Z</time>
      </trkpt>
      <trkpt lat="47.519171" lon="8.016191">
        <ele>336.152406</ele>
        <time>2021-11-17T02:36:33.406Z</time>
      </trkpt>
      <trkpt lat="47.519228" lon="8.016109">
        <ele>336.070334</ele>
        <time>2021-11-17T02:36:34.392Z</time>
      </trkpt>
      <trkpt lat="47.519330" lon="8.015986">
        <ele>335.934484</ele>
        <time>2021-11-17T02:36:36.005Z</time>
      </trkpt>
      <trkpt lat="47.519346" lon="8.015845">
        <ele>335.834766</ele>
        <time>2021-11-17T02:36:37.045Z</time>
      </trkpt>
      <trkpt lat="47.519424" lon="8.015360">
        <ele>335.487047</ele>
        <time>2021-11-17T02:36:41.050Z</time>
      </trkpt>
      <trkpt lat="47.519518" lon="8.015145">
        <ele>335.308417</ele>
        <time>2021-11-17T02:36:43.117Z</time>
      </trkpt>
      <trkpt lat="47.519564" lon="8.015041">
        <ele>335.221711</ele>
        <time>2021-11-17T02:36:44.228Z</time>
      </trkpt>
      <trkpt lat="47.519666" lon="8.015011">
        <ele>335.114315</ele>
        <time>2021-11-17T02:36:45.458Z</time>
      </trkpt>
      <trkpt lat="47.520115" lon="8.014648">
        <ele>334.659734</ele>
        <time>2021-11-17T02:36:51.911Z</time>
      </trkpt>
      <trkpt lat="47.520539" lon="8.014558">
        <ele>334.564156</ele>
        <time>2021-11-17T02:36:58.231Z</time>
      </trkpt>
      <trkpt lat="47.520848" lon="8.014542">
        <ele>334.495164</ele>
        <time>2021-11-17T02:37:02.677Z</time>
      </trkpt>
      <trkpt lat="47.520953" lon="8.014530">
        <ele>334.471665</ele>
        <time>2021-11-17T02:37:04.011Z</time>
      </trkpt>
      <trkpt lat="47.521150" lon="8.014447">
        <ele>334.425963</ele>
        <time>2021-11-17T02:37:07.222Z</time>
      </trkpt>
      <trkpt lat="47.521292" lon="8.014319">
        <ele>334.388868</ele>
        <time>2021-11-17T02:37:09.423Z</time>
      </trkpt>
      <trkpt lat="47.521454" lon="8.014134">
        <ele>334.343219</ele>
        <time>2021-11-17T02:37:12.619Z</time>
      </trkpt>
      <trkpt lat="47.521508" lon="8.014076">
        <ele>334.328334</ele>
        <time>2021-11-17T02:37:13.560Z</time>
      </trkpt>
      <trkpt lat="47.521532" lon="8.014046">
        <ele>334.321325</ele>
        <time>2021-11-17T02:37:14.012Z</time>
      </trkpt>
      <trkpt lat="47.521611" lon="8.013949">
        <ele>334.298426</ele>
        <time>2021-11-17T02:37:15.274Z</time>
      </trkpt>
      <trkpt lat="47.521782" lon="8.013652">
        <ele>334.285957</ele>
        <time>2021-11-17T02:37:19.509Z</time>
      </trkpt>
      <trkpt lat="47.521857" lon="8.013314">
        <ele>334.295898</ele>
        <time>2021-11-17T02:37:23.161Z</time>
      </trkpt>
      <trkpt lat="47.521867" lon="8.013168">
        <ele>334.299998</ele>
        <time>2021-11-17T02:37:24.587Z</time>
      </trkpt>
      <trkpt lat="47.521884" lon="8.013019">
        <ele>334.304220</ele>
        <time>2021-11-17T02:37:26.328Z</time>
      </trkpt>
      <trkpt lat="47.521999" lon="8.011997">
        <ele>334.333167</ele>
        <time>2021-11-17T02:37:39.963Z</time>
      </trkpt>
      <trkpt lat="47.522135" lon="8.011541">
        <ele>334.347095</ele>
        <time>2021-11-17T02:37:47.008Z</time>
      </trkpt>
      <trkpt lat="47.522752" lon="8.010942">
        <ele>334.741405</ele>
        <time>2021-11-17T02:38:04.064Z</time>
      </trkpt>
      <trkpt lat="47.523475" lon="8.009886">
        <ele>335.407387</ele>
        <time>2021-11-17T02:38:28.129Z</time>
      </trkpt>
      <trkpt lat="47.523750" lon="8.009595">
        <ele>335.557062</ele>
        <time>2021-11-17T02:38:35.770Z</time>
      </trkpt>
      <trkpt lat="47.525125" lon="8.008474">
        <ele>335.817360</ele>
        <time>2021-11-17T02:39:08.851Z</time>
      </trkpt>
      <trkpt lat="47.525704" lon="8.008036">
        <ele>335.153833</ele>
        <time>2021-11-17T02:39:20.560Z</time>
      </trkpt>
      <trkpt lat="47.526398" lon="8.007517">
        <ele>334.227042</ele>
        <time>2021-11-17T02:39:33.536Z</time>
      </trkpt>
      <trkpt lat="47.527466" lon="8.006442">
        <ele>332.129409</ele>
        <time>2021-11-17T02:39:54.092Z</time>
      </trkpt>
      <trkpt lat="47.528852" lon="8.005150">
        <ele>329.058878</ele>
        <time>2021-11-17T02:40:20.184Z</time>
      </trkpt>
      <trkpt lat="47.529337" lon="8.004498">
        <ele>327.815204</ele>
        <time>2021-11-17T02:40:30.937Z</time>
      </trkpt>
      <trkpt lat="47.529391" lon="8.004422">
        <ele>327.673761</ele>
        <time>2021-11-17T02:40:32.125Z</time>
      </trkpt>
      <trkpt lat="47.530077" lon="8.003471">
        <ele>325.640772</ele>
        <time>2021-11-17T02:40:46.425Z</time>
      </trkpt>
      <trkpt lat="47.531127" lon="8.002157">
        <ele>322.520294</ele>
        <time>2021-11-17T02:41:07.486Z</time>
      </trkpt>
      <trkpt lat="47.531407" lon="8.001793">
        <ele>321.987357</ele>
        <time>2021-11-17T02:41:13.223Z</time>
      </trkpt>
      <trkpt lat="47.531789" lon="8.001140">
        <ele>321.152875</ele>
        <time>2021-11-17T02:41:22.468Z</time>
      </trkpt>
      <trkpt lat="47.532176" lon="8.000088">
        <ele>320.136746</ele>
        <time>2021-11-17T02:41:37.207Z</time>
      </trkpt>
      <trkpt lat="47.532283" lon="7.999633">
        <ele>320.181343</ele>
        <time>2021-11-17T02:41:44.137Z</time>
      </trkpt>
      <trkpt lat="47.532321" lon="7.999312">
        <ele>320.211509</ele>
        <time>2021-11-17T02:41:48.895Z</time>
      </trkpt>
      <trkpt lat="47.532314" lon="7.998991">
        <ele>320.241237</ele>
        <time>2021-11-17T02:41:53.340Z</time>
      </trkpt>
      <trkpt lat="47.532616" lon="7.998942">
        <ele>320.282887</ele>
        <time>2021-11-17T02:41:59.919Z</time>
      </trkpt>
      <trkpt lat="47.532745" lon="7.998891">
        <ele>320.301192</ele>
        <time>2021-11-17T02:42:02.954Z</time>
      </trkpt>
      <trkpt lat="47.532880" lon="7.998728">
        <ele>320.325070</ele>
        <time>2021-11-17T02:42:06.695Z</time>
      </trkpt>
      <trkpt lat="47.534115" lon="7.996823">
        <ele>320.291330</ele>
        <time>2021-11-17T02:42:44.229Z</time>
      </trkpt>
      <trkpt lat="47.535091" lon="7.993681">
        <ele>318.538380</ele>
        <time>2021-11-17T02:43:25.022Z</time>
      </trkpt>
      <trkpt lat="47.535530" lon="7.992828">
        <ele>318.247699</ele>
        <time>2021-11-17T02:43:37.180Z</time>
      </trkpt>
      <trkpt lat="47.535601" lon="7.992617">
        <ele>318.183807</ele>
        <time>2021-11-17T02:43:40.797Z</time>
      </trkpt>
      <trkpt lat="47.535603" lon="7.992576">
        <ele>318.172667</ele>
        <time>2021-11-17T02:43:41.817Z</time>
      </trkpt>
      <trkpt lat="47.535497" lon="7.992318">
        <ele>318.090817</ele>
        <time>2021-11-17T02:43:45.500Z</time>
      </trkpt>
      <trkpt lat="47.535110" lon="7.991631">
        <ele>318.043861</ele>
        <time>2021-11-17T02:43:59.313Z</time>
      </trkpt>
      <trkpt lat="47.534860" lon="7.991148">
        <ele>318.635336</ele>
        <time>2021-11-17T02:44:08.780Z</time>
      </trkpt>
      <trkpt lat="47.534644" lon="7.990797">
        <ele>319.096895</ele>
        <time>2021-11-17T02:44:16.545Z</time>
      </trkpt>
      <trkpt lat="47.534606" lon="7.990590">
        <ele>319.305373</ele>
        <time>2021-11-17T02:44:19.892Z</time>
      </trkpt>
      <trkpt lat="47.534609" lon="7.990394">
        <ele>319.495905</ele>
        <time>2021-11-17T02:44:23.501Z</time>
      </trkpt>
      <trkpt lat="47.534723" lon="7.989575">
        <ele>320.308591</ele>
        <time>2021-11-17T02:44:40.170Z</time>
      </trkpt>
      <trkpt lat="47.534771" lon="7.988562">
        <ele>321.352235</ele>
        <time>2021-11-17T02:45:00.854Z</time>
      </trkpt>
      <trkpt lat="47.534795" lon="7.988078">
        <ele>321.856695</ele>
        <time>2021-11-17T02:45:09.620Z</time>
      </trkpt>
      <trkpt lat="47.534363" lon="7.987895">
        <ele>322.548484</ele>
        <time>2021-11-17T02:45:18.502Z</time>
      </trkpt>
      <trkpt lat="47.534466" lon="7.987626">
        <ele>322.869942</ele>
        <time>2021-11-17T02:45:22.396Z</time>
      </trkpt>
      <trkpt lat="47.534590" lon="7.987330">
        <ele>323.232045</ele>
        <time>2021-11-17T02:45:26.720Z</time>
      </trkpt>
      <trkpt lat="47.534974" lon="7.986602">
        <ele>323.379066</ele>
        <time>2021-11-17T02:45:37.308Z</time>
      </trkpt>
      <trkpt lat="47.535270" lon="7.985985">
        <ele>323.487316</ele>
        <time>2021-11-17T02:45:44.976Z</time>
      </trkpt>
      <trkpt lat="47.535614" lon="7.985212">
        <ele>323.619722</ele>
        <time>2021-11-17T02:45:53.457Z</time>
      </trkpt>
      <trkpt lat="47.536026" lon="7.984206">
        <ele>324.622617</ele>
        <time>2021-11-17T02:46:06.198Z</time>
      </trkpt>
      <trkpt lat="47.536199" lon="7.983737">
        <ele>325.103643</ele>
        <time>2021-11-17T02:46:13.299Z</time>
      </trkpt>
      <trkpt lat="47.536410" lon="7.983244">
        <ele>325.629021</ele>
        <time>2021-11-17T02:46:22.456Z</time>
      </trkpt>
      <trkpt lat="47.536530" lon="7.982859">
        <ele>326.010688</ele>
        <time>2021-11-17T02:46:29.793Z</time>
      </trkpt>
      <trkpt lat="47.536764" lon="7.982225">
        <ele>327.398747</ele>
        <time>2021-11-17T02:46:43.464Z</time>
      </trkpt>
      <trkpt lat="47.536775" lon="7.982096">
        <ele>327.652208</ele>
        <time>2021-11-17T02:46:45.877Z</time>
      </trkpt>
      <trkpt lat="47.536842" lon="7.981878">
        <ele>328.119123</ele>
        <time>2021-11-17T02:46:50.618Z</time>
      </trkpt>
      <trkpt lat="47.536896" lon="7.981697">
        <ele>328.504866</ele>
        <time>2021-11-17T02:46:54.455Z</time>
      </trkpt>
      <trkpt lat="47.536959" lon="7.981602">
        <ele>328.764449</ele>
        <time>2021-11-17T02:46:56.829Z</time>
      </trkpt>
      <trkpt lat="47.537107" lon="7.981082">
        <ele>329.864489</ele>
        <time>2021-11-17T02:47:07.551Z</time>
      </trkpt>
      <trkpt lat="47.537461" lon="7.980118">
        <ele>331.317597</ele>
        <time>2021-11-17T02:47:26.104Z</time>
      </trkpt>
      <trkpt lat="47.537583" lon="7.979760">
        <ele>331.413547</ele>
        <time>2021-11-17T02:47:32.108Z</time>
      </trkpt>
      <trkpt lat="47.537955" lon="7.978125">
        <ele>331.826358</ele>
        <time>2021-11-17T02:47:48.451Z</time>
      </trkpt>
      <trkpt lat="47.538107" lon="7.977240">
        <ele>330.963377</ele>
        <time>2021-11-17T02:47:55.357Z</time>
      </trkpt>
      <trkpt lat="47.538242" lon="7.976347">
        <ele>329.907813</ele>
        <time>2021-11-17T02:48:02.233Z</time>
      </trkpt>
      <trkpt lat="47.538706" lon="7.974459">
        <ele>327.256366</ele>
        <time>2021-11-17T02:48:17.163Z</time>
      </trkpt>
      <trkpt lat="47.539262" lon="7.971768">
        <ele>322.930983</ele>
        <time>2021-11-17T02:48:37.507Z</time>
      </trkpt>
      <trkpt lat="47.539783" lon="7.969587">
        <ele>319.484999</ele>
        <time>2021-11-17T02:48:53.987Z</time>
      </trkpt>
      <trkpt lat="47.540214" lon="7.967628">
        <ele>317.037068</ele>
        <time>2021-11-17T02:49:09.787Z</time>
      </trkpt>
      <trkpt lat="47.540896" lon="7.964711">
        <ele>315.088457</ele>
        <time>2021-11-17T02:49:35.892Z</time>
      </trkpt>
      <trkpt lat="47.541095" lon="7.964204">
        <ele>314.754503</ele>
        <time>2021-11-17T02:49:40.929Z</time>
      </trkpt>
      <trkpt lat="47.541169" lon="7.964123">
        <ele>314.676891</ele>
        <time>2021-11-17T02:49:41.887Z</time>
      </trkpt>
      <trkpt lat="47.541129" lon="7.964008">
        <ele>314.603225</ele>
        <time>2021-11-17T02:49:43.330Z</time>
      </trkpt>
      <trkpt lat="47.541019" lon="7.963815">
        <ele>314.459394</ele>
        <time>2021-11-17T02:49:45.680Z</time>
      </trkpt>
      <trkpt lat="47.541123" lon="7.963520">
        <ele>314.269886</ele>
        <time>2021-11-17T02:49:48.413Z</time>
      </trkpt>
      <trkpt lat="47.541217" lon="7.963187">
        <ele>314.064356</ele>
        <time>2021-11-17T02:49:51.315Z</time>
      </trkpt>
      <trkpt lat="47.541258" lon="7.962975">
        <ele>313.932564</ele>
        <time>2021-11-17T02:49:53.710Z</time>
      </trkpt>
      <trkpt lat="47.541293" lon="7.962730">
        <ele>313.615832</ele>
        <time>2021-11-17T02:49:55.694Z</time>
      </trkpt>
      <trkpt lat="47.541308" lon="7.962513">
        <ele>313.339942</ele>
        <time>2021-11-17T02:49:57.718Z</time>
      </trkpt>
      <trkpt lat="47.541314" lon="7.962377">
        <ele>313.167566</ele>
        <time>2021-11-17T02:49:59.072Z</time>
      </trkpt>
      <trkpt lat="47.541316" lon="7.962197">
        <ele>312.939877</ele>
        <time>2021-11-17T02:50:00.416Z</time>
      </trkpt>
      <trkpt lat="47.541242" lon="7.961294">
        <ele>311.789404</ele>
        <time>2021-11-17T02:50:07.440Z</time>
      </trkpt>
      <trkpt lat="47.541153" lon="7.960814">
        <ele>311.159829</ele>
        <time>2021-11-17T02:50:10.970Z</time>
      </trkpt>
      <trkpt lat="47.541060" lon="7.960321">
        <ele>310.456137</ele>
        <time>2021-11-17T02:50:14.560Z</time>
      </trkpt>
      <trkpt lat="47.541027" lon="7.959944">
        <ele>309.535956</ele>
        <time>2021-11-17T02:50:17.062Z</time>
      </trkpt>
      <trkpt lat="47.541019" lon="7.959792">
        <ele>309.166918</ele>
        <time>2021-11-17T02:50:18.107Z</time>
      </trkpt>
      <trkpt lat="47.541012" lon="7.959578">
        <ele>308.648316</ele>
        <time>2021-11-17T02:50:19.582Z</time>
      </trkpt>
      <trkpt lat="47.541016" lon="7.959388">
        <ele>308.188191</ele>
        <time>2021-11-17T02:50:20.784Z</time>
      </trkpt>
      <trkpt lat="47.541081" lon="7.958828">
        <ele>306.812802</ele>
        <time>2021-11-17T02:50:24.553Z</time>
      </trkpt>
      <trkpt lat="47.541226" lon="7.958150">
        <ele>305.091295</ele>
        <time>2021-11-17T02:50:29.314Z</time>
      </trkpt>
      <trkpt lat="47.541305" lon="7.957787">
        <ele>304.168113</ele>
        <time>2021-11-17T02:50:31.798Z</time>
      </trkpt>
      <trkpt lat="47.541355" lon="7.957559">
        <ele>303.813284</ele>
        <time>2021-11-17T02:50:33.499Z</time>
      </trkpt>
      <trkpt lat="47.541450" lon="7.956897">
        <ele>302.863029</ele>
        <time>2021-11-17T02:50:38.134Z</time>
      </trkpt>
      <trkpt lat="47.541464" lon="7.956698">
        <ele>302.582109</ele>
        <time>2021-11-17T02:50:39.539Z</time>
      </trkpt>
      <trkpt lat="47.541533" lon="7.955526">
        <ele>300.930314</ele>
        <time>2021-11-17T02:50:48.373Z</time>
      </trkpt>
      <trkpt lat="47.541554" lon="7.955311">
        <ele>300.625299</ele>
        <time>2021-11-17T02:50:50.411Z</time>
      </trkpt>
      <trkpt lat="47.541735" lon="7.953892">
        <ele>300.411349</ele>
        <time>2021-11-17T02:51:04.620Z</time>
      </trkpt>
      <trkpt lat="47.541773" lon="7.953695">
        <ele>300.415806</ele>
        <time>2021-11-17T02:51:06.867Z</time>
      </trkpt>
      <trkpt lat="47.541791" lon="7.953601">
        <ele>300.417931</ele>
        <time>2021-11-17T02:51:07.902Z</time>
      </trkpt>
      <trkpt lat="47.541991" lon="7.952667">
        <ele>300.439245</ele>
        <time>2021-11-17T02:51:18.758Z</time>
      </trkpt>
      <trkpt lat="47.542169" lon="7.951815">
        <ele>300.561477</ele>
        <time>2021-11-17T02:51:28.496Z</time>
      </trkpt>
      <trkpt lat="47.542192" lon="7.951713">
        <ele>300.577959</ele>
        <time>2021-11-17T02:51:29.758Z</time>
      </trkpt>
      <trkpt lat="47.542357" lon="7.951037">
        <ele>300.688132</ele>
        <time>2021-11-17T02:51:37.223Z</time>
      </trkpt>
      <trkpt lat="47.542444" lon="7.950687">
        <ele>300.745297</ele>
        <time>2021-11-17T02:51:41.054Z</time>
      </trkpt>
      <trkpt lat="47.542546" lon="7.950274">
        <ele>300.812699</ele>
        <time>2021-11-17T02:51:45.400Z</time>
      </trkpt>
      <trkpt lat="47.542554" lon="7.950231">
        <ele>300.819535</ele>
        <time>2021-11-17T02:51:45.887Z</time>
      </trkpt>
      <trkpt lat="47.542560" lon="7.950202">
        <ele>300.824184</ele>
        <time>2021-11-17T02:51:46.221Z</time>
      </trkpt>
      <trkpt lat="47.542609" lon="7.949914">
        <ele>300.914142</ele>
        <time>2021-11-17T02:51:49.220Z</time>
      </trkpt>
      <trkpt lat="47.542719" lon="7.949175">
        <ele>301.291845</ele>
        <time>2021-11-17T02:51:57.123Z</time>
      </trkpt>
      <trkpt lat="47.542826" lon="7.948298">
        <ele>301.736655</ele>
        <time>2021-11-17T02:52:08.066Z</time>
      </trkpt>
      <trkpt lat="47.542838" lon="7.948225">
        <ele>301.774155</ele>
        <time>2021-11-17T02:52:08.893Z</time>
      </trkpt>
      <trkpt lat="47.542875" lon="7.948001">
        <ele>301.889254</ele>
        <time>2021-11-17T02:52:11.777Z</time>
      </trkpt>
      <trkpt lat="47.542928" lon="7.947798">
        <ele>301.997887</ele>
        <time>2021-11-17T02:52:14.700Z</time>
      </trkpt>
      <trkpt lat="47.542957" lon="7.947651">
        <ele>302.074324</ele>
        <time>2021-11-17T02:52:16.407Z</time>
      </trkpt>
      <trkpt lat="47.543050" lon="7.947411">
        <ele>302.263322</ele>
        <time>2021-11-17T02:52:20.772Z</time>
      </trkpt>
      <trkpt lat="47.543087" lon="7.947317">
        <ele>302.402508</ele>
        <time>2021-11-17T02:52:22.051Z</time>
      </trkpt>
      <trkpt lat="47.543092" lon="7.947257">
        <ele>302.479838</ele>
        <time>2021-11-17T02:52:22.840Z</time>
      </trkpt>
      <trkpt lat="47.543097" lon="7.947186">
        <ele>302.571149</ele>
        <time>2021-11-17T02:52:23.690Z</time>
      </trkpt>
      <trkpt lat="47.543086" lon="7.947052">
        <ele>302.743814</ele>
        <time>2021-11-17T02:52:25.520Z</time>
      </trkpt>
      <trkpt lat="47.543056" lon="7.946935">
        <ele>302.903905</ele>
        <time>2021-11-17T02:52:27.886Z</time>
      </trkpt>
      <trkpt lat="47.543045" lon="7.946881">
        <ele>302.976054</ele>
        <time>2021-11-17T02:52:28.999Z</time>
      </trkpt>
      <trkpt lat="47.542982" lon="7.946547">
        <ele>303.419648</ele>
        <time>2021-11-17T02:52:33.598Z</time>
      </trkpt>
      <trkpt lat="47.542974" lon="7.946495">
        <ele>303.487868</ele>
        <time>2021-11-17T02:52:34.811Z</time>
      </trkpt>
      <trkpt lat="47.542960" lon="7.946400">
        <ele>303.612247</ele>
        <time>2021-11-17T02:52:36.648Z</time>
      </trkpt>
      <trkpt lat="47.542916" lon="7.945730">
        <ele>304.473309</ele>
        <time>2021-11-17T02:52:47.224Z</time>
      </trkpt>
      <trkpt lat="47.542913" lon="7.945267">
        <ele>305.065573</ele>
        <time>2021-11-17T02:52:54.710Z</time>
      </trkpt>
      <trkpt lat="47.543007" lon="7.943867">
        <ele>306.090840</ele>
        <time>2021-11-17T02:53:15.450Z</time>
      </trkpt>
      <trkpt lat="47.543161" lon="7.942213">
        <ele>306.926940</ele>
        <time>2021-11-17T02:53:33.856Z</time>
      </trkpt>
      <trkpt lat="47.543435" lon="7.940670">
        <ele>305.644071</ele>
        <time>2021-11-17T02:53:46.804Z</time>
      </trkpt>
      <trkpt lat="47.543826" lon="7.939433">
        <ele>304.421220</ele>
        <time>2021-11-17T02:53:57.205Z</time>
      </trkpt>
      <trkpt lat="47.544472" lon="7.937932">
        <ele>302.251547</ele>
        <time>2021-11-17T02:54:10.529Z</time>
      </trkpt>
      <trkpt lat="47.544705" lon="7.937395">
        <ele>301.482507</ele>
        <time>2021-11-17T02:54:15.369Z</time>
      </trkpt>
      <trkpt lat="47.544903" lon="7.936917">
        <ele>300.892070</ele>
        <time>2021-11-17T02:54:19.629Z</time>
      </trkpt>
      <trkpt lat="47.545074" lon="7.936484">
        <ele>300.363923</ele>
        <time>2021-11-17T02:54:23.460Z</time>
      </trkpt>
      <trkpt lat="47.545457" lon="7.935110">
        <ele>298.798901</ele>
        <time>2021-11-17T02:54:34.829Z</time>
      </trkpt>
      <trkpt lat="47.545674" lon="7.933625">
        <ele>298.615884</ele>
        <time>2021-11-17T02:54:47.909Z</time>
      </trkpt>
      <trkpt lat="47.545702" lon="7.933290">
        <ele>298.588449</ele>
        <time>2021-11-17T02:54:51.489Z</time>
      </trkpt>
      <trkpt lat="47.545724" lon="7.932758">
        <ele>298.545129</ele>
        <time>2021-11-17T02:54:57.755Z</time>
      </trkpt>
      <trkpt lat="47.545721" lon="7.931992">
        <ele>299.067855</ele>
        <time>2021-11-17T02:55:07.795Z</time>
      </trkpt>
      <trkpt lat="47.545696" lon="7.931497">
        <ele>299.702726</ele>
        <time>2021-11-17T02:55:15.000Z</time>
      </trkpt>
      <trkpt lat="47.545661" lon="7.930955">
        <ele>300.399105</ele>
        <time>2021-11-17T02:55:23.695Z</time>
      </trkpt>
      <trkpt lat="47.545563" lon="7.929641">
        <ele>301.926362</ele>
        <time>2021-11-17T02:55:46.035Z</time>
      </trkpt>
      <trkpt lat="47.545475" lon="7.928419">
        <ele>301.930887</ele>
        <time>2021-11-17T02:56:02.338Z</time>
      </trkpt>
      <trkpt lat="47.545421" lon="7.927686">
        <ele>301.933602</ele>
        <time>2021-11-17T02:56:08.441Z</time>
      </trkpt>
      <trkpt lat="47.545406" lon="7.927306">
        <ele>301.935004</ele>
        <time>2021-11-17T02:56:11.345Z</time>
      </trkpt>
      <trkpt lat="47.545407" lon="7.927001">
        <ele>301.664520</ele>
        <time>2021-11-17T02:56:13.632Z</time>
      </trkpt>
      <trkpt lat="47.545409" lon="7.926773">
        <ele>301.129435</ele>
        <time>2021-11-17T02:56:15.261Z</time>
      </trkpt>
      <trkpt lat="47.545417" lon="7.925848">
        <ele>298.958594</ele>
        <time>2021-11-17T02:56:21.596Z</time>
      </trkpt>
      <trkpt lat="47.545446" lon="7.925350">
        <ele>297.785615</ele>
        <time>2021-11-17T02:56:24.888Z</time>
      </trkpt>
      <trkpt lat="47.545466" lon="7.924880">
        <ele>296.680495</ele>
        <time>2021-11-17T02:56:27.941Z</time>
      </trkpt>
      <trkpt lat="47.545481" lon="7.924396">
        <ele>295.576331</ele>
        <time>2021-11-17T02:56:31.025Z</time>
      </trkpt>
      <trkpt lat="47.545521" lon="7.923709">
        <ele>294.339699</ele>
        <time>2021-11-17T02:56:35.550Z</time>
      </trkpt>
      <trkpt lat="47.545526" lon="7.923605">
        <ele>294.152714</ele>
        <time>2021-11-17T02:56:36.310Z</time>
      </trkpt>
      <trkpt lat="47.545536" lon="7.923407">
        <ele>293.796631</ele>
        <time>2021-11-17T02:56:37.968Z</time>
      </trkpt>
      <trkpt lat="47.545553" lon="7.923142">
        <ele>293.319242</ele>
        <time>2021-11-17T02:56:39.686Z</time>
      </trkpt>
      <trkpt lat="47.545587" lon="7.922895">
        <ele>292.867159</ele>
        <time>2021-11-17T02:56:42.104Z</time>
      </trkpt>
      <trkpt lat="47.545641" lon="7.922610">
        <ele>292.336290</ele>
        <time>2021-11-17T02:56:44.099Z</time>
      </trkpt>
      <trkpt lat="47.545690" lon="7.922369">
        <ele>291.884904</ele>
        <time>2021-11-17T02:56:46.825Z</time>
      </trkpt>
      <trkpt lat="47.545699" lon="7.922325">
        <ele>291.802452</ele>
        <time>2021-11-17T02:56:47.086Z</time>
      </trkpt>
      <trkpt lat="47.545714" lon="7.922249">
        <ele>291.660448</ele>
        <time>2021-11-17T02:56:47.676Z</time>
      </trkpt>
      <trkpt lat="47.545778" lon="7.921947">
        <ele>291.092782</ele>
        <time>2021-11-17T02:56:50.801Z</time>
      </trkpt>
      <trkpt lat="47.545810" lon="7.921755">
        <ele>290.866105</ele>
        <time>2021-11-17T02:56:52.163Z</time>
      </trkpt>
      <trkpt lat="47.545881" lon="7.921096">
        <ele>290.592866</ele>
        <time>2021-11-17T02:56:57.512Z</time>
      </trkpt>
      <trkpt lat="47.545913" lon="7.920765">
        <ele>290.455957</ele>
        <time>2021-11-17T02:57:00.378Z</time>
      </trkpt>
      <trkpt lat="47.545973" lon="7.920313">
        <ele>290.267344</ele>
        <time>2021-11-17T02:57:05.526Z</time>
      </trkpt>
      <trkpt lat="47.546128" lon="7.919617">
        <ele>289.967262</ele>
        <time>2021-11-17T02:57:11.989Z</time>
      </trkpt>
      <trkpt lat="47.546262" lon="7.919081">
        <ele>289.746025</ele>
        <time>2021-11-17T02:57:17.988Z</time>
      </trkpt>
      <trkpt lat="47.546821" lon="7.916867">
        <ele>288.933507</ele>
        <time>2021-11-17T02:57:38.719Z</time>
      </trkpt>
      <trkpt lat="47.547032" lon="7.916218">
        <ele>288.817596</ele>
        <time>2021-11-17T02:57:45.204Z</time>
      </trkpt>
      <trkpt lat="47.547091" lon="7.916039">
        <ele>288.791840</ele>
        <time>2021-11-17T02:57:47.025Z</time>
      </trkpt>
      <trkpt lat="47.547113" lon="7.915971">
        <ele>288.782091</ele>
        <time>2021-11-17T02:57:47.626Z</time>
      </trkpt>
      <trkpt lat="47.547231" lon="7.915631">
        <ele>288.732659</ele>
        <time>2021-11-17T02:57:51.314Z</time>
      </trkpt>
      <trkpt lat="47.547423" lon="7.915080">
        <ele>288.652484</ele>
        <time>2021-11-17T02:57:57.266Z</time>
      </trkpt>
      <trkpt lat="47.547994" lon="7.913433">
        <ele>288.912503</ele>
        <time>2021-11-17T02:58:17.005Z</time>
      </trkpt>
      <trkpt lat="47.548027" lon="7.913334">
        <ele>288.949379</ele>
        <time>2021-11-17T02:58:18.372Z</time>
      </trkpt>
      <trkpt lat="47.548412" lon="7.912168">
        <ele>289.382895</ele>
        <time>2021-11-17T02:58:34.788Z</time>
      </trkpt>
      <trkpt lat="47.549012" lon="7.910340">
        <ele>288.740138</ele>
        <time>2021-11-17T02:58:53.828Z</time>
      </trkpt>
      <trkpt lat="47.549102" lon="7.910058">
        <ele>288.621999</ele>
        <time>2021-11-17T02:58:56.295Z</time>
      </trkpt>
      <trkpt lat="47.549136" lon="7.910092">
        <ele>288.598982</ele>
        <time>2021-11-17T02:58:56.765Z</time>
      </trkpt>
      <trkpt lat="47.549218" lon="7.910169">
        <ele>288.544508</ele>
        <time>2021-11-17T02:58:57.869Z</time>
      </trkpt>
      <trkpt lat="47.549325" lon="7.910269">
        <ele>288.473522</ele>
        <time>2021-11-17T02:58:59.456Z</time>
      </trkpt>
      <trkpt lat="47.549760" lon="7.910718">
        <ele>287.716224</ele>
        <time>2021-11-17T02:59:05.391Z</time>
      </trkpt>
      <trkpt lat="47.549965" lon="7.910843">
        <ele>287.369420</ele>
        <time>2021-11-17T02:59:08.090Z</time>
      </trkpt>
      <trkpt lat="47.550034" lon="7.910847">
        <ele>287.261393</ele>
        <time>2021-11-17T02:59:08.765Z</time>
      </trkpt>
      <trkpt lat="47.550092" lon="7.910825">
        <ele>287.167730</ele>
        <time>2021-11-17T02:59:09.447Z</time>
      </trkpt>
      <trkpt lat="47.550128" lon="7.910795">
        <ele>287.103114</ele>
        <time>2021-11-17T02:59:09.908Z</time>
      </trkpt>
      <trkpt lat="47.550799" lon="7.909952">
        <ele>285.726805</ele>
        <time>2021-11-17T02:59:19.867Z</time>
      </trkpt>
      <trkpt lat="47.551318" lon="7.909453">
        <ele>285.175828</ele>
        <time>2021-11-17T02:59:27.081Z</time>
      </trkpt>
      <trkpt lat="47.551713" lon="7.909099">
        <ele>284.803559</ele>
        <time>2021-11-17T02:59:33.282Z</time>
      </trkpt>
      <trkpt lat="47.552605" lon="7.908430">
        <ele>284.090556</ele>
        <time>2021-11-17T02:59:46.456Z</time>
      </trkpt>
      <trkpt lat="47.553580" lon="7.907784">
        <ele>283.697154</ele>
        <time>2021-11-17T03:00:01.161Z</time>
      </trkpt>
      <trkpt lat="47.554205" lon="7.907384">
        <ele>283.484964</ele>
        <time>2021-11-17T03:00:10.384Z</time>
      </trkpt>
      <trkpt lat="47.554352" lon="7.907309">
        <ele>283.464497</ele>
        <time>2021-11-17T03:00:12.467Z</time>
      </trkpt>
      <trkpt lat="47.554446" lon="7.907261">
        <ele>283.451408</ele>
        <time>2021-11-17T03:00:13.711Z</time>
      </trkpt>
      <trkpt lat="47.554624" lon="7.907180">
        <ele>283.426894</ele>
        <time>2021-11-17T03:00:16.683Z</time>
      </trkpt>
      <trkpt lat="47.554778" lon="7.907115">
        <ele>283.405814</ele>
        <time>2021-11-17T03:00:18.804Z</time>
      </trkpt>
      <trkpt lat="47.554893" lon="7.907083">
        <ele>283.390410</ele>
        <time>2021-11-17T03:00:20.917Z</time>
      </trkpt>
      <trkpt lat="47.555024" lon="7.907046">
        <ele>283.372853</ele>
        <time>2021-11-17T03:00:22.791Z</time>
      </trkpt>
      <trkpt lat="47.555246" lon="7.906976">
        <ele>283.342973</ele>
        <time>2021-11-17T03:00:26.201Z</time>
      </trkpt>
      <trkpt lat="47.555785" lon="7.906833">
        <ele>283.270886</ele>
        <time>2021-11-17T03:00:33.824Z</time>
      </trkpt>
      <trkpt lat="47.555970" lon="7.906757">
        <ele>283.296079</ele>
        <time>2021-11-17T03:00:37.023Z</time>
      </trkpt>
      <trkpt lat="47.556033" lon="7.906729">
        <ele>283.305611</ele>
        <time>2021-11-17T03:00:37.861Z</time>
      </trkpt>
      <trkpt lat="47.556403" lon="7.906565">
        <ele>283.361580</ele>
        <time>2021-11-17T03:00:45.782Z</time>
      </trkpt>
      <trkpt lat="47.556605" lon="7.906440">
        <ele>283.393305</ele>
        <time>2021-11-17T03:00:49.251Z</time>
      </trkpt>
      <trkpt lat="47.556721" lon="7.906335">
        <ele>283.413004</ele>
        <time>2021-11-17T03:00:51.299Z</time>
      </trkpt>
      <trkpt lat="47.556784" lon="7.906271">
        <ele>283.424074</ele>
        <time>2021-11-17T03:00:52.232Z</time>
      </trkpt>
      <trkpt lat="47.557052" lon="7.905938">
        <ele>283.474761</ele>
        <time>2021-11-17T03:00:57.702Z</time>
      </trkpt>
      <trkpt lat="47.557123" lon="7.905856">
        <ele>283.487807</ele>
        <time>2021-11-17T03:00:59.381Z</time>
      </trkpt>
      <trkpt lat="47.557415" lon="7.905635">
        <ele>283.568792</ele>
        <time>2021-11-17T03:01:04.273Z</time>
      </trkpt>
      <trkpt lat="47.557496" lon="7.905516">
        <ele>283.695406</ele>
        <time>2021-11-17T03:01:06.308Z</time>
      </trkpt>
      <trkpt lat="47.557570" lon="7.905574">
        <ele>283.788333</ele>
        <time>2021-11-17T03:01:07.459Z</time>
      </trkpt>
      <trkpt lat="47.557619" lon="7.905585">
        <ele>283.843346</ele>
        <time>2021-11-17T03:01:08.088Z</time>
      </trkpt>
      <trkpt lat="47.557662" lon="7.905584">
        <ele>283.891083</ele>
        <time>2021-11-17T03:01:09.209Z</time>
      </trkpt>
      <trkpt lat="47.557996" lon="7.905521">
        <ele>284.264830</ele>
        <time>2021-11-17T03:01:15.077Z</time>
      </trkpt>
      <trkpt lat="47.558134" lon="7.905495">
        <ele>284.419250</ele>
        <time>2021-11-17T03:01:18.706Z</time>
      </trkpt>
      <trkpt lat="47.558813" lon="7.905636">
        <ele>285.180335</ele>
        <time>2021-11-17T03:01:32.630Z</time>
      </trkpt>
      <trkpt lat="47.559050" lon="7.905765">
        <ele>285.460602</ele>
        <time>2021-11-17T03:01:36.965Z</time>
      </trkpt>
      <trkpt lat="47.559051" lon="7.905731">
        <ele>285.486095</ele>
        <time>2021-11-17T03:01:38.168Z</time>
      </trkpt>
      <trkpt lat="47.559060" lon="7.905532">
        <ele>285.691181</ele>
        <time>2021-11-17T03:01:41.677Z</time>
      </trkpt>
      <trkpt lat="47.559106" lon="7.904506">
        <ele>286.856285</ele>
        <time>2021-11-17T03:02:00.109Z</time>
      </trkpt>
      <trkpt lat="47.559090" lon="7.904206">
        <ele>287.197270</ele>
        <time>2021-11-17T03:02:05.158Z</time>
      </trkpt>
      <trkpt lat="47.559120" lon="7.904152">
        <ele>287.276523</ele>
        <time>2021-11-17T03:02:07.045Z</time>
      </trkpt>
      <trkpt lat="47.559151" lon="7.904049">
        <ele>287.404312</ele>
        <time>2021-11-17T03:02:09.280Z</time>
      </trkpt>
      <trkpt lat="47.559426" lon="7.902929">
        <ele>288.831815</ele>
        <time>2021-11-17T03:02:31.194Z</time>
      </trkpt>
      <trkpt lat="47.559605" lon="7.902200">
        <ele>290.036725</ele>
        <time>2021-11-17T03:02:45.135Z</time>
      </trkpt>
      <trkpt lat="47.559887" lon="7.901206">
        <ele>291.711490</ele>
        <time>2021-11-17T03:03:06.232Z</time>
      </trkpt>
      <trkpt lat="47.560140" lon="7.900546">
        <ele>293.041974</ele>
        <time>2021-11-17T03:03:23.122Z</time>
      </trkpt>
      <trkpt lat="47.560252" lon="7.900273">
        <ele>293.907345</ele>
        <time>2021-11-17T03:03:30.371Z</time>
      </trkpt>
      <trkpt lat="47.560503" lon="7.899955">
        <ele>295.232814</ele>
        <time>2021-11-17T03:03:41.475Z</time>
      </trkpt>
      <trkpt lat="47.560560" lon="7.899898">
        <ele>295.508820</ele>
        <time>2021-11-17T03:03:44.293Z</time>
      </trkpt>
      <trkpt lat="47.560614" lon="7.899831">
        <ele>295.791506</ele>
        <time>2021-11-17T03:03:46.731Z</time>
      </trkpt>
      <trkpt lat="47.560752" lon="7.899659">
        <ele>296.515279</ele>
        <time>2021-11-17T03:03:52.851Z</time>
      </trkpt>
      <trkpt lat="47.561186" lon="7.899144">
        <ele>298.746933</ele>
        <time>2021-11-17T03:04:13.833Z</time>
      </trkpt>
      <trkpt lat="47.561263" lon="7.899045">
        <ele>299.156105</ele>
        <time>2021-11-17T03:04:17.575Z</time>
      </trkpt>
      <trkpt lat="47.561688" lon="7.898494">
        <ele>301.998224</ele>
        <time>2021-11-17T03:04:41.173Z</time>
      </trkpt>
      <trkpt lat="47.562186" lon="7.897876">
        <ele>305.594912</ele>
        <time>2021-11-17T03:05:07.955Z</time>
      </trkpt>
      <trkpt lat="47.562606" lon="7.897223">
        <ele>308.965622</ele>
        <time>2021-11-17T03:05:33.794Z</time>
      </trkpt>
      <trkpt lat="47.562667" lon="7.897011">
        <ele>309.826754</ele>
        <time>2021-11-17T03:05:41.155Z</time>
      </trkpt>
      <trkpt lat="47.563035" lon="7.895741">
        <ele>315.484414</ele>
        <time>2021-11-17T03:06:17.941Z</time>
      </trkpt>
      <trkpt lat="47.563087" lon="7.895432">
        <ele>316.788873</ele>
        <time>2021-11-17T03:06:27.757Z</time>
      </trkpt>
      <trkpt lat="47.563106" lon="7.895315">
        <ele>317.281798</ele>
        <time>2021-11-17T03:06:30.538Z</time>
      </trkpt>
      <trkpt lat="47.563147" lon="7.894977">
        <ele>318.688467</ele>
        <time>2021-11-17T03:06:40.430Z</time>
      </trkpt>
      <trkpt lat="47.563317" lon="7.893307">
        <ele>323.613906</ele>
        <time>2021-11-17T03:07:19.640Z</time>
      </trkpt>
      <trkpt lat="47.563330" lon="7.892455">
        <ele>325.662428</ele>
        <time>2021-11-17T03:07:35.047Z</time>
      </trkpt>
      <trkpt lat="47.563136" lon="7.890927">
        <ele>327.868031</ele>
        <time>2021-11-17T03:07:57.758Z</time>
      </trkpt>
      <trkpt lat="47.562987" lon="7.890433">
        <ele>328.266621</ele>
        <time>2021-11-17T03:08:04.468Z</time>
      </trkpt>
      <trkpt lat="47.562933" lon="7.890330">
        <ele>328.362702</ele>
        <time>2021-11-17T03:08:05.976Z</time>
      </trkpt>
      <trkpt lat="47.562868" lon="7.890182">
        <ele>328.492780</ele>
        <time>2021-11-17T03:08:08.028Z</time>
      </trkpt>
      <trkpt lat="47.563039" lon="7.889397">
        <ele>329.100413</ele>
        <time>2021-11-17T03:08:17.550Z</time>
      </trkpt>
      <trkpt lat="47.563560" lon="7.887288">
        <ele>330.388805</ele>
        <time>2021-11-17T03:08:43.866Z</time>
      </trkpt>
      <trkpt lat="47.563657" lon="7.886867">
        <ele>330.641549</ele>
        <time>2021-11-17T03:08:49.862Z</time>
      </trkpt>
      <trkpt lat="47.563909" lon="7.886506">
        <ele>331.270684</ele>
        <time>2021-11-17T03:08:57.151Z</time>
      </trkpt>
      <trkpt lat="47.565560" lon="7.884206">
        <ele>336.021142</ele>
        <time>2021-11-17T03:09:49.533Z</time>
      </trkpt>
      <trkpt lat="47.566604" lon="7.882741">
        <ele>339.651896</ele>
        <time>2021-11-17T03:10:27.027Z</time>
      </trkpt>
      <trkpt lat="47.566690" lon="7.882620">
        <ele>339.964192</ele>
        <time>2021-11-17T03:10:30.412Z</time>
      </trkpt>
      <trkpt lat="47.567774" lon="7.881098">
        <ele>343.417687</ele>
        <time>2021-11-17T03:11:09.041Z</time>
      </trkpt>
      <trkpt lat="47.568855" lon="7.879614">
        <ele>344.323346</ele>
        <time>2021-11-17T03:11:33.443Z</time>
      </trkpt>
      <trkpt lat="47.569889" lon="7.878149">
        <ele>342.463836</ele>
        <time>2021-11-17T03:11:49.736Z</time>
      </trkpt>
      <trkpt lat="47.569974" lon="7.878003">
        <ele>342.278385</ele>
        <time>2021-11-17T03:11:51.171Z</time>
      </trkpt>
      <trkpt lat="47.570440" lon="7.877017">
        <ele>341.142461</ele>
        <time>2021-11-17T03:12:00.368Z</time>
      </trkpt>
      <trkpt lat="47.570733" lon="7.876421">
        <ele>340.455583</ele>
        <time>2021-11-17T03:12:06.174Z</time>
      </trkpt>
      <trkpt lat="47.571754" lon="7.874288">
        <ele>338.348104</ele>
        <time>2021-11-17T03:12:27.265Z</time>
      </trkpt>
      <trkpt lat="47.572765" lon="7.872183">
        <ele>337.275120</ele>
        <time>2021-11-17T03:12:48.944Z</time>
      </trkpt>
      <trkpt lat="47.572867" lon="7.871849">
        <ele>337.221317</ele>
        <time>2021-11-17T03:12:52.394Z</time>
      </trkpt>
      <trkpt lat="47.573081" lon="7.871074">
        <ele>337.098425</ele>
        <time>2021-11-17T03:13:01.491Z</time>
      </trkpt>
      <trkpt lat="47.573242" lon="7.870224">
        <ele>337.699760</ele>
        <time>2021-11-17T03:13:12.972Z</time>
      </trkpt>
      <trkpt lat="47.573270" lon="7.869980">
        <ele>337.905846</ele>
        <time>2021-11-17T03:13:16.418Z</time>
      </trkpt>
      <trkpt lat="47.573327" lon="7.869478">
        <ele>338.329719</ele>
        <time>2021-11-17T03:13:23.913Z</time>
      </trkpt>
      <trkpt lat="47.573388" lon="7.869020">
        <ele>338.718436</ele>
        <time>2021-11-17T03:13:30.850Z</time>
      </trkpt>
      <trkpt lat="47.573580" lon="7.868234">
        <ele>339.164697</ele>
        <time>2021-11-17T03:13:42.103Z</time>
      </trkpt>
      <trkpt lat="47.573902" lon="7.867343">
        <ele>338.197073</ele>
        <time>2021-11-17T03:13:53.286Z</time>
      </trkpt>
      <trkpt lat="47.574034" lon="7.867032">
        <ele>337.845336</ele>
        <time>2021-11-17T03:13:56.343Z</time>
      </trkpt>
      <trkpt lat="47.574854" lon="7.865675">
        <ele>333.666063</ele>
        <time>2021-11-17T03:14:08.681Z</time>
      </trkpt>
      <trkpt lat="47.575475" lon="7.864127">
        <ele>325.429178</ele>
        <time>2021-11-17T03:14:19.407Z</time>
      </trkpt>
      <trkpt lat="47.575527" lon="7.863840">
        <ele>324.022671</ele>
        <time>2021-11-17T03:14:21.224Z</time>
      </trkpt>
      <trkpt lat="47.575529" lon="7.863765">
        <ele>323.645658</ele>
        <time>2021-11-17T03:14:21.646Z</time>
      </trkpt>
      <trkpt lat="47.575529" lon="7.863690">
        <ele>323.268938</ele>
        <time>2021-11-17T03:14:22.074Z</time>
      </trkpt>
      <trkpt lat="47.575296" lon="7.862440">
        <ele>316.755003</ele>
        <time>2021-11-17T03:14:29.755Z</time>
      </trkpt>
      <trkpt lat="47.575288" lon="7.862118">
        <ele>315.136516</ele>
        <time>2021-11-17T03:14:31.629Z</time>
      </trkpt>
      <trkpt lat="47.575364" lon="7.861960">
        <ele>314.161814</ele>
        <time>2021-11-17T03:14:32.833Z</time>
      </trkpt>
      <trkpt lat="47.575373" lon="7.861941">
        <ele>314.045202</ele>
        <time>2021-11-17T03:14:32.970Z</time>
      </trkpt>
      <trkpt lat="47.576083" lon="7.861029">
        <ele>309.885020</ele>
        <time>2021-11-17T03:14:41.929Z</time>
      </trkpt>
      <trkpt lat="47.576292" lon="7.860775">
        <ele>309.260575</ele>
        <time>2021-11-17T03:14:44.799Z</time>
      </trkpt>
      <trkpt lat="47.576076" lon="7.860524">
        <ele>308.626435</ele>
        <time>2021-11-17T03:14:49.235Z</time>
      </trkpt>
      <trkpt lat="47.576060" lon="7.860505">
        <ele>308.579067</ele>
        <time>2021-11-17T03:14:50.212Z</time>
      </trkpt>
      <trkpt lat="47.575661" lon="7.860260">
        <ele>307.581209</ele>
        <time>2021-11-17T03:14:57.586Z</time>
      </trkpt>
      <trkpt lat="47.575482" lon="7.860014">
        <ele>307.017225</ele>
        <time>2021-11-17T03:15:02.089Z</time>
      </trkpt>
      <trkpt lat="47.575090" lon="7.859216">
        <ele>307.244922</ele>
        <time>2021-11-17T03:15:17.118Z</time>
      </trkpt>
      <trkpt lat="47.574369" lon="7.857634">
        <ele>307.638448</ele>
        <time>2021-11-17T03:15:46.300Z</time>
      </trkpt>
      <trkpt lat="47.574089" lon="7.857293">
        <ele>307.589464</ele>
        <time>2021-11-17T03:15:53.230Z</time>
      </trkpt>
      <trkpt lat="47.573544" lon="7.856804">
        <ele>307.503351</ele>
        <time>2021-11-17T03:16:05.384Z</time>
      </trkpt>
      <trkpt lat="47.572923" lon="7.856141">
        <ele>307.398939</ele>
        <time>2021-11-17T03:16:20.526Z</time>
      </trkpt>
      <trkpt lat="47.572248" lon="7.855212">
        <ele>307.266783</ele>
        <time>2021-11-17T03:16:37.539Z</time>
      </trkpt>
      <trkpt lat="47.571837" lon="7.854626">
        <ele>307.184961</ele>
        <time>2021-11-17T03:16:48.459Z</time>
      </trkpt>
      <trkpt lat="47.571655" lon="7.854341">
        <ele>307.332485</ele>
        <time>2021-11-17T03:16:54.192Z</time>
      </trkpt>
      <trkpt lat="47.571552" lon="7.854175">
        <ele>307.694568</ele>
        <time>2021-11-17T03:16:57.963Z</time>
      </trkpt>
      <trkpt lat="47.571426" lon="7.854000">
        <ele>308.105471</ele>
        <time>2021-11-17T03:17:02.054Z</time>
      </trkpt>
      <trkpt lat="47.570995" lon="7.853612">
        <ele>309.305459</ele>
        <time>2021-11-17T03:17:15.972Z</time>
      </trkpt>
      <trkpt lat="47.569365" lon="7.852218">
        <ele>314.889092</ele>
        <time>2021-11-17T03:18:21.526Z</time>
      </trkpt>
      <trkpt lat="47.568391" lon="7.851304">
        <ele>318.273191</ele>
        <time>2021-11-17T03:19:01.016Z</time>
      </trkpt>
      <trkpt lat="47.568211" lon="7.851157">
        <ele>318.598731</ele>
        <time>2021-11-17T03:19:06.679Z</time>
      </trkpt>
      <trkpt lat="47.568037" lon="7.851058">
        <ele>318.893959</ele>
        <time>2021-11-17T03:19:12.201Z</time>
      </trkpt>
      <trkpt lat="47.567877" lon="7.850995">
        <ele>319.156191</ele>
        <time>2021-11-17T03:19:16.172Z</time>
      </trkpt>
      <trkpt lat="47.566633" lon="7.850244">
        <ele>320.466902</ele>
        <time>2021-11-17T03:19:47.351Z</time>
      </trkpt>
      <trkpt lat="47.565983" lon="7.850065">
        <ele>320.292293</ele>
        <time>2021-11-17T03:19:59.079Z</time>
      </trkpt>
      <trkpt lat="47.565717" lon="7.849504">
        <ele>320.170105</ele>
        <time>2021-11-17T03:20:07.464Z</time>
      </trkpt>
      <trkpt lat="47.564942" lon="7.849082">
        <ele>319.946415</ele>
        <time>2021-11-17T03:20:22.783Z</time>
      </trkpt>
      <trkpt lat="47.564792" lon="7.849024">
        <ele>319.904001</ele>
        <time>2021-11-17T03:20:25.520Z</time>
      </trkpt>
      <trkpt lat="47.564494" lon="7.848931">
        <ele>319.820680</ele>
        <time>2021-11-17T03:20:31.750Z</time>
      </trkpt>
      <trkpt lat="47.564101" lon="7.848663">
        <ele>319.702318</ele>
        <time>2021-11-17T03:20:40.187Z</time>
      </trkpt>
      <trkpt lat="47.563893" lon="7.848372">
        <ele>319.624057</ele>
        <time>2021-11-17T03:20:46.191Z</time>
      </trkpt>
      <trkpt lat="47.563765" lon="7.848183">
        <ele>319.481783</ele>
        <time>2021-11-17T03:20:49.636Z</time>
      </trkpt>
      <trkpt lat="47.563680" lon="7.848098">
        <ele>319.391549</ele>
        <time>2021-11-17T03:20:52.183Z</time>
      </trkpt>
      <trkpt lat="47.563202" lon="7.847661">
        <ele>318.897325</ele>
        <time>2021-11-17T03:21:02.818Z</time>
      </trkpt>
      <trkpt lat="47.562617" lon="7.846359">
        <ele>317.856015</ele>
        <time>2021-11-17T03:21:20.596Z</time>
      </trkpt>
      <trkpt lat="47.562285" lon="7.845586">
        <ele>316.373875</ele>
        <time>2021-11-17T03:21:29.943Z</time>
      </trkpt>
      <trkpt lat="47.561769" lon="7.844701">
        <ele>314.481998</ele>
        <time>2021-11-17T03:21:41.811Z</time>
      </trkpt>
      <trkpt lat="47.561657" lon="7.844522">
        <ele>314.087139</ele>
        <time>2021-11-17T03:21:44.206Z</time>
      </trkpt>
      <trkpt lat="47.561160" lon="7.843842">
        <ele>312.850707</ele>
        <time>2021-11-17T03:21:54.698Z</time>
      </trkpt>
      <trkpt lat="47.561003" lon="7.843711">
        <ele>312.551154</ele>
        <time>2021-11-17T03:21:57.727Z</time>
      </trkpt>
      <trkpt lat="47.560934" lon="7.843550">
        <ele>312.337178</ele>
        <time>2021-11-17T03:21:59.701Z</time>
      </trkpt>
      <trkpt lat="47.560812" lon="7.843560">
        <ele>312.134037</ele>
        <time>2021-11-17T03:22:01.118Z</time>
      </trkpt>
      <trkpt lat="47.560515" lon="7.843379">
        <ele>311.600133</ele>
        <time>2021-11-17T03:22:04.769Z</time>
      </trkpt>
      <trkpt lat="47.560430" lon="7.843341">
        <ele>311.452526</ele>
        <time>2021-11-17T03:22:05.922Z</time>
      </trkpt>
      <trkpt lat="47.560338" lon="7.843341">
        <ele>311.299571</ele>
        <time>2021-11-17T03:22:06.937Z</time>
      </trkpt>
      <trkpt lat="47.560209" lon="7.843393">
        <ele>311.077308</ele>
        <time>2021-11-17T03:22:08.561Z</time>
      </trkpt>
      <trkpt lat="47.560139" lon="7.843433">
        <ele>310.952576</ele>
        <time>2021-11-17T03:22:09.579Z</time>
      </trkpt>
      <trkpt lat="47.559847" lon="7.843604">
        <ele>310.639861</ele>
        <time>2021-11-17T03:22:13.398Z</time>
      </trkpt>
      <trkpt lat="47.559583" lon="7.843813">
        <ele>310.487883</ele>
        <time>2021-11-17T03:22:17.124Z</time>
      </trkpt>
      <trkpt lat="47.559345" lon="7.844048">
        <ele>310.342667</ele>
        <time>2021-11-17T03:22:20.995Z</time>
      </trkpt>
      <trkpt lat="47.559158" lon="7.844233">
        <ele>310.228501</ele>
        <time>2021-11-17T03:22:24.372Z</time>
      </trkpt>
      <trkpt lat="47.559109" lon="7.844229">
        <ele>310.203583</ele>
        <time>2021-11-17T03:22:24.962Z</time>
      </trkpt>
      <trkpt lat="47.559060" lon="7.844197">
        <ele>310.176394</ele>
        <time>2021-11-17T03:22:25.594Z</time>
      </trkpt>
      <trkpt lat="47.558884" lon="7.843836">
        <ele>310.023793</ele>
        <time>2021-11-17T03:22:29.745Z</time>
      </trkpt>
      <trkpt lat="47.558555" lon="7.843392">
        <ele>309.823984</ele>
        <time>2021-11-17T03:22:35.782Z</time>
      </trkpt>
      <trkpt lat="47.558471" lon="7.843365">
        <ele>309.835289</ele>
        <time>2021-11-17T03:22:37.038Z</time>
      </trkpt>
      <trkpt lat="47.558405" lon="7.843371">
        <ele>309.843986</ele>
        <time>2021-11-17T03:22:38.206Z</time>
      </trkpt>
      <trkpt lat="47.558136" lon="7.843582">
        <ele>309.884016</ele>
        <time>2021-11-17T03:22:42.414Z</time>
      </trkpt>
      <trkpt lat="47.557967" lon="7.843683">
        <ele>309.907982</ele>
        <time>2021-11-17T03:22:45.129Z</time>
      </trkpt>
      <trkpt lat="47.557846" lon="7.843756">
        <ele>309.925165</ele>
        <time>2021-11-17T03:22:46.973Z</time>
      </trkpt>
      <trkpt lat="47.557759" lon="7.843839">
        <ele>309.938774</ele>
        <time>2021-11-17T03:22:48.750Z</time>
      </trkpt>
      <trkpt lat="47.557715" lon="7.843940">
        <ele>309.949444</ele>
        <time>2021-11-17T03:22:49.979Z</time>
      </trkpt>
      <trkpt lat="47.557560" lon="7.844433">
        <ele>309.997716</ele>
        <time>2021-11-17T03:22:55.929Z</time>
      </trkpt>
      <trkpt lat="47.557282" lon="7.844832">
        <ele>310.048618</ele>
        <time>2021-11-17T03:23:02.303Z</time>
      </trkpt>
      <trkpt lat="47.557134" lon="7.845095">
        <ele>310.192695</ele>
        <time>2021-11-17T03:23:06.023Z</time>
      </trkpt>
      <trkpt lat="47.556636" lon="7.845928">
        <ele>310.762361</ele>
        <time>2021-11-17T03:23:18.880Z</time>
      </trkpt>
      <trkpt lat="47.556163" lon="7.846692">
        <ele>311.293096</ele>
        <time>2021-11-17T03:23:31.861Z</time>
      </trkpt>
      <trkpt lat="47.556060" lon="7.846859">
        <ele>311.408907</ele>
        <time>2021-11-17T03:23:35.048Z</time>
      </trkpt>
      <trkpt lat="47.555990" lon="7.846965">
        <ele>311.531798</ele>
        <time>2021-11-17T03:23:37.008Z</time>
      </trkpt>
      <trkpt lat="47.555966" lon="7.846932">
        <ele>311.574486</ele>
        <time>2021-11-17T03:23:37.588Z</time>
      </trkpt>
      <trkpt lat="47.555892" lon="7.846856">
        <ele>311.691878</ele>
        <time>2021-11-17T03:23:39.134Z</time>
      </trkpt>
      <trkpt lat="47.555855" lon="7.846815">
        <ele>311.752117</ele>
        <time>2021-11-17T03:23:40.058Z</time>
      </trkpt>
      <trkpt lat="47.555727" lon="7.846715">
        <ele>311.940782</ele>
        <time>2021-11-17T03:23:43.075Z</time>
      </trkpt>
      <trkpt lat="47.555199" lon="7.846687">
        <ele>312.629639</ele>
        <time>2021-11-17T03:23:53.013Z</time>
      </trkpt>
      <trkpt lat="47.555068" lon="7.846672">
        <ele>312.800948</ele>
        <time>2021-11-17T03:23:55.932Z</time>
      </trkpt>
      <trkpt lat="47.554995" lon="7.846915">
        <ele>313.034996</ele>
        <time>2021-11-17T03:23:59.636Z</time>
      </trkpt>
      <trkpt lat="47.554978" lon="7.846954">
        <ele>313.075849</ele>
        <time>2021-11-17T03:24:00.255Z</time>
      </trkpt>
      <trkpt lat="47.554892" lon="7.847148">
        <ele>313.280087</ele>
        <time>2021-11-17T03:24:03.687Z</time>
      </trkpt>
      <trkpt lat="47.554759" lon="7.847388">
        <ele>313.553342</ele>
        <time>2021-11-17T03:24:08.008Z</time>
      </trkpt>
      <trkpt lat="47.554618" lon="7.847626">
        <ele>313.836758</ele>
        <time>2021-11-17T03:24:12.567Z</time>
      </trkpt>
      <trkpt lat="47.554465" lon="7.847858">
        <ele>314.142296</ele>
        <time>2021-11-17T03:24:17.203Z</time>
      </trkpt>
      <trkpt lat="47.554351" lon="7.848049">
        <ele>314.382468</ele>
        <time>2021-11-17T03:24:20.497Z</time>
      </trkpt>
      <trkpt lat="47.554269" lon="7.848188">
        <ele>314.556366</ele>
        <time>2021-11-17T03:24:22.988Z</time>
      </trkpt>
      <trkpt lat="47.554209" lon="7.848300">
        <ele>314.691058</ele>
        <time>2021-11-17T03:24:25.128Z</time>
      </trkpt>
      <trkpt lat="47.554055" lon="7.848586">
        <ele>315.035689</ele>
        <time>2021-11-17T03:24:29.928Z</time>
      </trkpt>
      <trkpt lat="47.553725" lon="7.849291">
        <ele>315.843846</ele>
        <time>2021-11-17T03:24:41.301Z</time>
      </trkpt>
      <trkpt lat="47.553605" lon="7.849629">
        <ele>316.203588</ele>
        <time>2021-11-17T03:24:46.820Z</time>
      </trkpt>
      <trkpt lat="47.553537" lon="7.849904">
        <ele>316.592382</ele>
        <time>2021-11-17T03:24:50.886Z</time>
      </trkpt>
      <trkpt lat="47.553380" lon="7.850453">
        <ele>317.464089</ele>
        <time>2021-11-17T03:24:59.790Z</time>
      </trkpt>
      <trkpt lat="47.553344" lon="7.850525">
        <ele>317.595091</ele>
        <time>2021-11-17T03:25:01.093Z</time>
      </trkpt>
      <trkpt lat="47.553283" lon="7.850634">
        <ele>317.802106</ele>
        <time>2021-11-17T03:25:03.159Z</time>
      </trkpt>
      <trkpt lat="47.552876" lon="7.851300">
        <ele>319.115637</ele>
        <time>2021-11-17T03:25:16.969Z</time>
      </trkpt>
      <trkpt lat="47.552678" lon="7.851709">
        <ele>319.851514</ele>
        <time>2021-11-17T03:25:25.638Z</time>
      </trkpt>
      <trkpt lat="47.552449" lon="7.852231">
        <ele>321.064449</ele>
        <time>2021-11-17T03:25:37.143Z</time>
      </trkpt>
      <trkpt lat="47.552272" lon="7.852167">
        <ele>321.661421</ele>
        <time>2021-11-17T03:25:42.543Z</time>
      </trkpt>
      <trkpt lat="47.552097" lon="7.852063">
        <ele>322.279224</ele>
        <time>2021-11-17T03:25:47.790Z</time>
      </trkpt>
      <trkpt lat="47.552042" lon="7.852007">
        <ele>322.497884</ele>
        <time>2021-11-17T03:25:50.190Z</time>
      </trkpt>
      <trkpt lat="47.551925" lon="7.851845">
        <ele>323.022581</ele>
        <time>2021-11-17T03:25:54.456Z</time>
      </trkpt>
      <trkpt lat="47.551830" lon="7.851603">
        <ele>323.641688</ele>
        <time>2021-11-17T03:26:00.278Z</time>
      </trkpt>
      <trkpt lat="47.551660" lon="7.851725">
        <ele>324.260603</ele>
        <time>2021-11-17T03:26:05.512Z</time>
      </trkpt>
      <trkpt lat="47.551516" lon="7.851950">
        <ele>324.946314</ele>
        <time>2021-11-17T03:26:12.070Z</time>
      </trkpt>
      <trkpt lat="47.550221" lon="7.853833">
        <ele>329.638104</ele>
        <time>2021-11-17T03:26:59.362Z</time>
      </trkpt>
      <trkpt lat="47.549883" lon="7.854434">
        <ele>330.498040</ele>
        <time>2021-11-17T03:27:09.482Z</time>
      </trkpt>
      <trkpt lat="47.549566" lon="7.855225">
        <ele>330.713899</ele>
        <time>2021-11-17T03:27:23.341Z</time>
      </trkpt>
      <trkpt lat="47.549362" lon="7.855774">
        <ele>330.860954</ele>
        <time>2021-11-17T03:27:31.829Z</time>
      </trkpt>
      <trkpt lat="47.548887" lon="7.857308">
        <ele>331.180708</ele>
        <time>2021-11-17T03:27:53.937Z</time>
      </trkpt>
      <trkpt lat="47.548743" lon="7.857692">
        <ele>331.245257</ele>
        <time>2021-11-17T03:27:59.909Z</time>
      </trkpt>
      <trkpt lat="47.548701" lon="7.857893">
        <ele>331.276175</ele>
        <time>2021-11-17T03:28:02.880Z</time>
      </trkpt>
      <trkpt lat="47.548686" lon="7.857973">
        <ele>331.288376</ele>
        <time>2021-11-17T03:28:04.004Z</time>
      </trkpt>
      <trkpt lat="47.548611" lon="7.858381">
        <ele>331.350511</ele>
        <time>2021-11-17T03:28:10.218Z</time>
      </trkpt>
      <trkpt lat="47.548334" lon="7.859801">
        <ele>332.160761</ele>
        <time>2021-11-17T03:28:33.255Z</time>
      </trkpt>
      <trkpt lat="47.548049" lon="7.860929">
        <ele>333.189648</ele>
        <time>2021-11-17T03:28:54.274Z</time>
      </trkpt>
      <trkpt lat="47.547930" lon="7.861711">
        <ele>333.907539</ele>
        <time>2021-11-17T03:29:09.037Z</time>
      </trkpt>
      <trkpt lat="47.547568" lon="7.863151">
        <ele>335.503160</ele>
        <time>2021-11-17T03:29:38.165Z</time>
      </trkpt>
      <trkpt lat="47.547320" lon="7.863864">
        <ele>336.336058</ele>
        <time>2021-11-17T03:29:52.105Z</time>
      </trkpt>
      <trkpt lat="47.546974" lon="7.864423">
        <ele>336.407881</ele>
        <time>2021-11-17T03:30:02.928Z</time>
      </trkpt>
      <trkpt lat="47.546885" lon="7.864500">
        <ele>336.387916</ele>
        <time>2021-11-17T03:30:06.013Z</time>
      </trkpt>
      <trkpt lat="47.546894" lon="7.864837">
        <ele>336.343817</ele>
        <time>2021-11-17T03:30:09.897Z</time>
      </trkpt>
      <trkpt lat="47.546889" lon="7.865225">
        <ele>336.293074</ele>
        <time>2021-11-17T03:30:15.322Z</time>
      </trkpt>
      <trkpt lat="47.546819" lon="7.865489">
        <ele>336.255987</ele>
        <time>2021-11-17T03:30:19.267Z</time>
      </trkpt>
      <trkpt lat="47.546510" lon="7.865766">
        <ele>336.186024</ele>
        <time>2021-11-17T03:30:25.901Z</time>
      </trkpt>
      <trkpt lat="47.546327" lon="7.865959">
        <ele>336.142509</ele>
        <time>2021-11-17T03:30:29.416Z</time>
      </trkpt>
      <trkpt lat="47.546096" lon="7.866147">
        <ele>335.999857</ele>
        <time>2021-11-17T03:30:33.972Z</time>
      </trkpt>
      <trkpt lat="47.545240" lon="7.866887">
        <ele>335.441890</ele>
        <time>2021-11-17T03:30:50.645Z</time>
      </trkpt>
      <trkpt lat="47.545160" lon="7.866985">
        <ele>335.383448</ele>
        <time>2021-11-17T03:30:52.601Z</time>
      </trkpt>
      <trkpt lat="47.545003" lon="7.867278">
        <ele>335.241283</ele>
        <time>2021-11-17T03:30:58.269Z</time>
      </trkpt>
      <trkpt lat="47.544568" lon="7.867693">
        <ele>335.537920</ele>
        <time>2021-11-17T03:31:11.060Z</time>
      </trkpt>
      <trkpt lat="47.544469" lon="7.867776">
        <ele>335.686732</ele>
        <time>2021-11-17T03:31:13.922Z</time>
      </trkpt>
      <trkpt lat="47.544410" lon="7.867825">
        <ele>335.775216</ele>
        <time>2021-11-17T03:31:16.011Z</time>
      </trkpt>
      <trkpt lat="47.544246" lon="7.867967">
        <ele>336.023715</ele>
        <time>2021-11-17T03:31:20.694Z</time>
      </trkpt>
      <trkpt lat="47.544214" lon="7.867988">
        <ele>336.069501</ele>
        <time>2021-11-17T03:31:21.542Z</time>
      </trkpt>
      <trkpt lat="47.543801" lon="7.868269">
        <ele>336.664039</ele>
        <time>2021-11-17T03:31:33.145Z</time>
      </trkpt>
      <trkpt lat="47.543657" lon="7.868359">
        <ele>336.868497</ele>
        <time>2021-11-17T03:31:37.495Z</time>
      </trkpt>
      <trkpt lat="47.543201" lon="7.868657">
        <ele>337.479846</ele>
        <time>2021-11-17T03:31:47.722Z</time>
      </trkpt>
      <trkpt lat="47.543105" lon="7.868711">
        <ele>337.479846</ele>
        <time>2021-11-17T03:31:50.267Z</time>
      </trkpt>
      <trkpt lat="47.543049" lon="7.868759">
        <ele>337.479846</ele>
        <time>2021-11-17T03:31:51.564Z</time>
      </trkpt>
      <trkpt lat="47.542722" lon="7.869201">
        <ele>337.479846</ele>
        <time>2021-11-17T03:32:00.965Z</time>
      </trkpt>
      <trkpt lat="47.542696" lon="7.869257">
        <ele>337.479846</ele>
        <time>2021-11-17T03:32:01.706Z</time>
      </trkpt>
      <trkpt lat="47.542657" lon="7.869354">
        <ele>337.479846</ele>
        <time>2021-11-17T03:32:03.108Z</time>
      </trkpt>
      <trkpt lat="47.542372" lon="7.869746">
        <ele>337.479846</ele>
        <time>2021-11-17T03:32:09.941Z</time>
      </trkpt>
      <trkpt lat="47.542329" lon="7.869820">
        <ele>337.479846</ele>
        <time>2021-11-17T03:32:11.132Z</time>
      </trkpt>
      <trkpt lat="47.542329" lon="7.869820">
        <ele>337.479846</ele>
        <time>2021-11-17T03:32:11.135Z</time>
      </trkpt>
    </trkseg>
  </trk>
</gpx>